[[{"header":{"parameterUnit":"m.s-1","parameterCategory":1,"la1":31.0,"la2":29.5877,"lo1":-88.7671,"lo2":-86.6584,"dy":0.0162,"dx":0.0185,"nx":115,"ny":88,"refTime":"2023-08-18T06:00:00:Z","depth":0,"parameterNumber":2,"parameterNumberName":"U-component_of_WINDS"},"data":[0.0,0.0,0.0,0.0,0.0,0.0,0.0,0.0,0.0,0.0,0.0,0.0,0.0,0.0,0.0,0.0,0.0,0.0,0.0,0.0,0.0,0.0,0.0,0.0,0.0,0.0,0.0,0.0,0.0,0.0,0.0,0.0,0.0,0.0,0.0,0.0,0.0,0.0,0.0,0.0,0.0,0.0,0.0,0.0,0.0,0.0,0.0,0.0,0.0,0.0,0.0,0.0,0.0,0.0,0.0,0.0,0.0,0.0,0.0,0.0,0.0,0.0,0.0,0.0,0.0,0.0,0.0,0.0,0.0,0.0,0.0,0.0,0.0,0.0,0.0,0.0,0.0,0.0,0.0,0.0,0.0,0.0,0.0,0.0,0.0,0.0,0.0,0.0,0.0,0.0,0.0,0.0,0.0,0.0,0.0,0.0,0.0,0.0,0.0,0.0,0.0,0.0,0.0,0.0,0.0,0.0,0.0,0.0,0.0,0.0,0.0,0.0,0.0,0.0,0.0,0.0,0.0,0.0,0.0,0.0,0.0,0.0,0.0,0.0,0.0,0.0,0.0,0.0,0.0,0.0,0.0,0.0,0.0,0.0,0.0,0.0,0.0,0.0,0.0,0.0,0.0,0.0,0.0,0.0,0.0,0.0,0.0,0.0,0.0,0.0,0.0,0.0,0.0,0.0,0.0,0.0,0.0,0.0,0.0,0.0,0.0,0.0,0.0,0.0,0.0,0.0,0.0,0.0,0.0,0.0,0.0,0.0,0.0,0.0,0.0,0.0,0.0,0.0,0.0,0.0,0.0,0.0,0.0,0.0,0.0,0.0,0.0,0.0,0.0,0.0,0.0,0.0,0.0,0.0,0.0,0.0,0.0,0.0,0.0,0.0,0.0,0.0,0.0,0.0,0.0,0.0,0.0,0.0,0.0,0.0,0.0,0.0,0.0,0.0,0.0,0.0,0.0,0.0,0.0,0.0,0.0,0.0,0.0,0.0,0.0,0.0,0.0,0.0,0.0,0.0,0.0,0.0,0.0,0.0,0.0,0.0,0.0,0.0,0.0,0.0,0.0,0.0,0.0,0.0,0.0,0.0,0.0,0.0,0.0,0.0,0.0,0.0,0.0,0.0,0.0,0.0,0.0,0.0,0.0,0.0,0.0,0.0,0.0,0.0,0.0,0.0,0.0,0.0,0.0,0.0,0.0,0.0,0.0,0.0,0.0,0.0,0.0,0.0,0.0,0.0,0.0,0.0,0.0,0.0,0.0,0.0,0.0,0.0,0.0,0.0,0.0,0.0,0.0,0.0,0.0,0.0,0.0,0.0,0.0,0.0,0.0,0.0,0.0,0.0,0.0,0.0,0.0,0.0,0.0,0.0,0.0,0.0,0.0,0.0,0.0,0.0,0.0,0.0,0.0,0.0,0.0,0.0,0.0,0.0,0.0,0.0,0.0,0.0,0.0,0.0,0.0,0.0,0.0,0.0,0.0,0.0,0.0,0.0,0.0,0.0,0.0,0.0,0.0,0.0,0.0,0.0,0.0,0.0,0.0,0.0,0.0,0.0,0.0,0.0,0.0,0.0,0.0,0.0,0.0,0.0,0.0,0.0,0.0,0.0,0.0,0.0,0.0,0.0,0.0,0.0,0.0,0.0,0.0,0.0,0.0,0.0,0.0,0.0,0.0,0.0,0.0,0.0,0.0,0.0,0.0,0.0,0.0,0.0,0.0,0.0,0.0,0.0,0.0,0.0,0.0,0.0,0.0,0.0,0.0,0.0,0.0,0.0,0.0,0.0,0.0,0.0,0.0,0.0,0.0,0.0,0.0,0.0,0.0,0.0,0.0,0.0,0.0,0.0,0.0,0.0,0.0,0.0,0.0,0.0,0.0,0.0,0.0,0.0,0.0,0.0,0.0,0.0,0.0,0.0,0.0,0.0,0.0,0.0,0.0,0.0,0.0,0.0,0.0,0.0,0.0,0.0,0.0,0.0,0.0,0.0,0.0,0.0,0.0,0.0,0.0,0.0,0.0,0.0,0.0,0.0,0.0,0.0,0.0,0.0,0.0,0.0,0.0,0.0,0.0,0.0,0.0,0.0,0.0,0.0,0.0,0.0,0.0,0.0,0.0,0.0,0.0,0.0,0.0,0.0,0.0,0.0,0.0,0.0,0.0,0.0,0.0,0.0,0.0,0.0,0.0,0.0,0.0,0.0,0.0,0.0,0.0,0.0,0.0,0.0,0.0,0.0,0.0,0.0,0.0,0.0,0.0,0.0,0.0,0.0,0.0,0.0,0.0,0.0,0.0,0.0,0.0,0.0,0.0,0.0,0.0,0.0,0.0,0.0,0.0,0.0,0.0,0.0,0.0,0.0,0.0,0.0,0.0,0.0,0.0,0.0,0.0,0.0,0.0,0.0,0.0,0.0,0.0,0.0,0.0,0.0,0.0,0.0,0.0,0.0,0.0,0.0,0.0,0.0,0.0,0.0,0.0,0.0,0.0,0.0,0.0,0.0,0.0,0.0,0.0,0.0,0.0,0.0,0.0,0.0,0.0,0.0,0.0,0.0,0.0,0.0,0.0,0.0,0.0,0.0,0.0,0.0,0.0,0.0,0.0,0.0,0.0,0.0,0.0,0.0,0.0,0.0,0.0,0.0,0.0,0.0,0.0,0.0,0.0,0.0,0.0,0.0,0.0,0.0,0.0,0.0,0.0,0.0,0.0,0.0,0.0,0.0,0.0,0.0,0.0,0.0,0.0,0.0,0.0,0.0,0.0,0.0,0.0,0.0,0.0,0.0,0.0,0.0,0.0,0.0,0.0,0.0,0.0,0.0,0.0,0.0,0.0,0.0,0.0,0.0,0.0,0.0,0.0,0.0,0.0,0.0,0.0,0.0,0.0,0.0,0.0,0.0,0.0,0.0,0.0,0.0,0.0,0.0,0.0,0.0,0.0,0.0,0.0,0.0,0.0,0.0,0.0,0.0,0.0,0.0,0.0,0.0,0.0,0.0,0.0,0.0,0.0,0.0,0.0,0.0,0.0,0.0,0.0,0.0,0.0,0.0,0.0,0.0,0.0,0.0,0.0,0.0,0.0,0.0,0.0,0.0,0.0,0.0,0.0,0.0,0.0,0.0,0.0,0.0,0.0,0.0,0.0,0.0,0.0,0.0,0.0,0.0,0.0,0.0,0.0,0.0,0.0,0.0,0.0,0.0,0.0,0.0,0.0,0.0,0.0,0.0,0.0,0.0,0.0,0.0,0.0,0.0,0.0,0.0,0.0,0.0,0.0,0.0,0.0,0.0,0.0,0.0,0.0,0.0,0.0,0.0,0.0,0.0,0.0,0.0,0.0,0.0,0.0,0.0,0.0,0.0,0.0,0.0,0.0,0.0,0.0,0.0,0.0,0.0,0.0,0.0,0.0,0.0,0.0,0.0,0.0,0.0,0.0,0.0,0.0,0.0,0.0,0.0,0.0,0.0,0.0,0.0,0.0,0.0,0.0,0.0,0.0,0.0,0.0,0.0,0.0,0.0,0.0,0.0,0.0,0.0,0.0,0.0,0.0,0.0,0.0,0.0,0.0,0.0,0.0,0.0,0.0,0.0,0.0,0.0,0.0,0.0,0.0,0.0,0.0,0.0,0.0,0.0,0.0,0.0,0.0,0.0,0.0,0.0,0.0,0.0,0.0,0.0,0.0,0.0,0.0,0.0,0.0,0.0,0.0,0.0,0.0,0.0,0.0,0.0,0.0,0.0,0.0,0.0,0.0,0.0,0.0,0.0,0.0,0.0,0.0,0.0,0.0,0.0,0.0,0.0,0.0,0.0,0.0,0.0,0.0,0.0,0.0,0.0,0.0,0.0,0.0,0.0,0.0,0.0,0.0,0.0,0.0,0.0,0.0,0.0,0.0,0.0,0.0,0.0,0.0,0.0,0.0,0.0,0.0,0.0,0.0,0.0,0.0,0.0,0.0,0.0,0.0,0.0,0.0,0.0,0.0,0.0,0.0,0.0,0.0,0.0,0.0,0.0,0.0,0.0,0.0,0.0,0.0,0.0,0.0,0.0,0.0,0.0,0.0,0.0,0.0,0.0,0.0,0.0,0.0,0.0,0.0,0.0,0.0,0.0,0.0,0.0,0.0,0.0,0.0,0.0,0.0,0.0,0.0,0.0,0.0,0.0,0.0,0.0,0.0,0.0,0.0,0.0,0.0,0.0,0.0,0.0,0.0,0.0,0.0,0.0,0.0,0.0,0.0,0.0,0.0,0.0,0.0,0.0,0.0,0.0,-0.4491,0.0,0.0,0.0,0.0,0.0,0.0,0.0,0.0,0.0,0.0,0.0,0.0,0.0,0.0,0.0,0.0,0.0,0.0,0.0,0.0,0.0,0.0,0.0,0.0,0.0,0.0,0.0,0.0,0.0,0.0,0.0,0.0,0.0,0.0,0.0,0.0,0.0,0.0,0.0,0.0,0.0,0.0,0.0,0.0,0.0,0.0,0.0,0.0,0.0,0.0,0.0,0.0,0.0,0.0,0.0,0.0,0.0,0.0,0.0,0.0,0.0,0.0,0.0,0.0,0.0,0.0,0.0,0.0,0.0,0.0,0.0,0.0,0.0,0.0,0.0,0.0,0.0,0.0,0.0,0.0,0.0,0.0,0.0,0.0,0.0,0.0,0.0,0.0,0.0,0.0,0.0,0.0,0.0,0.0,0.0,0.0,0.0,0.0,0.0,0.0,0.0,0.0,0.0,0.0,0.0,0.0,0.0,0.0,0.0,0.0,-0.5194,-0.4955,-0.4519,-0.4298,-0.4298,0.0,0.0,0.0,0.0,0.0,0.0,0.0,0.0,0.0,0.0,0.0,0.0,0.0,0.0,0.0,0.0,0.0,0.0,0.0,0.0,0.0,0.0,0.0,0.0,0.0,0.0,0.0,0.0,0.0,0.0,0.0,0.0,0.0,0.0,0.0,0.0,0.0,0.0,0.0,0.0,0.0,0.0,0.0,0.0,0.0,0.0,0.0,0.0,0.0,0.0,0.0,0.0,0.0,0.0,0.0,0.0,0.0,0.0,0.0,0.0,0.0,0.0,0.0,0.0,0.0,0.0,0.0,0.0,0.0,0.0,0.0,0.0,0.0,0.0,0.0,0.0,0.0,0.0,0.0,0.0,0.0,0.0,0.0,0.0,0.0,0.0,0.0,0.0,0.0,0.0,0.0,0.0,0.0,0.0,0.0,0.0,0.0,0.0,0.0,0.0,0.0,0.0,0.0,0.0,0.0,0.0,0.0,0.0,0.0,0.0,0.0,0.0,-0.4517,-0.444,-0.4462,0.0,0.0,0.0,0.0,0.0,0.0,0.0,0.0,0.0,0.0,0.0,0.0,0.0,0.0,0.0,0.0,0.0,0.0,0.0,0.0,0.0,0.0,0.0,0.0,0.0,0.0,0.0,0.0,0.0,0.0,0.0,0.0,0.0,0.0,0.0,0.0,0.0,0.0,0.0,0.0,0.0,0.0,0.0,0.0,0.0,0.0,0.0,0.0,0.0,0.0,0.0,0.0,0.0,0.0,0.0,0.0,0.0,0.0,0.0,0.0,0.0,0.0,0.0,0.0,0.0,0.0,0.0,0.0,0.0,0.0,0.0,0.0,0.0,0.0,0.0,0.0,0.0,0.0,0.0,0.0,0.0,0.0,0.0,0.0,0.0,0.0,0.0,0.0,0.0,0.0,0.0,0.0,0.0,0.0,0.0,0.0,0.0,0.0,0.0,0.0,0.0,0.0,0.0,0.0,0.0,0.0,0.0,0.0,0.0,0.0,-0.5609,-0.5566,-0.5143,0.0,-0.4941,0.0,0.0,0.0,0.0,0.0,0.0,0.0,0.0,0.0,0.0,0.0,0.0,0.0,0.0,0.0,0.0,0.0,0.0,0.0,0.0,0.0,0.0,0.0,0.0,0.0,0.0,0.0,0.0,0.0,0.0,0.0,0.0,0.0,0.0,0.0,0.0,0.0,0.0,0.0,0.0,0.0,0.0,0.0,0.0,0.0,0.0,0.0,0.0,0.0,0.0,0.0,0.0,0.0,0.0,0.0,0.0,0.0,0.0,0.0,0.0,0.0,0.0,0.0,0.0,0.0,0.0,0.0,0.0,0.0,0.0,0.0,0.0,0.0,0.0,0.0,0.0,0.0,0.0,0.0,0.0,0.0,0.0,0.0,0.0,0.0,0.0,0.0,0.0,0.0,0.0,0.0,0.0,0.0,0.0,0.0,0.0,0.0,0.0,0.0,0.0,0.0,0.0,0.0,0.0,0.0,0.0,0.0,0.0,0.0,0.0,-0.5279,-0.529,-0.5094,-0.5007,0.0,0.0,0.0,0.0,0.0,0.0,0.0,0.0,0.0,0.0,0.0,0.0,0.0,0.0,0.0,0.0,0.0,0.0,0.0,0.0,0.0,0.0,0.0,0.0,0.0,0.0,0.0,0.0,0.0,0.0,0.0,0.0,0.0,0.0,0.0,0.0,0.0,0.0,0.0,0.0,0.0,0.0,0.0,0.0,0.0,0.0,0.0,0.0,0.0,0.0,0.0,0.0,0.0,0.0,0.0,0.0,0.0,0.0,0.0,0.0,0.0,0.0,0.0,0.0,0.0,0.0,0.0,0.0,0.0,0.0,0.0,0.0,0.0,0.0,0.0,0.0,0.0,0.0,0.0,0.0,0.0,0.0,0.0,0.0,0.0,0.0,0.0,0.0,0.0,0.0,0.0,0.0,0.0,0.0,0.0,0.0,0.0,0.0,0.0,0.0,0.0,0.0,0.0,0.0,0.0,0.0,0.0,0.0,0.0,0.0,-0.5148,-0.5203,-0.5186,-0.5197,-0.5192,-0.5197,0.0,0.0,0.0,0.0,0.0,0.0,0.0,0.0,0.0,0.0,0.0,0.0,0.0,0.0,0.0,0.0,0.0,0.0,0.0,0.0,0.0,0.0,0.0,0.0,0.0,0.0,0.0,0.0,0.0,0.0,0.0,0.0,0.0,0.0,0.0,0.0,0.0,0.0,0.0,0.0,0.0,0.0,0.0,0.0,0.0,0.0,0.0,0.0,0.0,0.0,0.0,0.0,0.0,0.0,0.0,0.0,0.0,0.0,0.0,0.0,0.0,0.0,0.0,0.0,0.0,0.0,0.0,0.0,0.0,0.0,0.0,0.0,0.0,0.0,0.0,0.0,0.0,0.0,0.0,0.0,0.0,0.0,0.0,0.0,0.0,0.0,0.0,0.0,0.0,0.0,0.0,0.0,0.0,0.0,0.0,0.0,0.0,0.0,0.0,0.0,0.0,0.0,0.0,0.0,0.0,0.0,0.0,0.0,-0.529,-0.5539,-0.5669,-0.5658,-0.568,-0.5669,0.0,0.0,0.0,0.0,0.0,0.0,0.0,0.0,0.0,0.0,0.0,0.0,0.0,0.0,0.0,0.0,0.0,0.0,0.0,0.0,0.0,0.0,0.0,0.0,0.0,0.0,0.0,0.0,0.0,0.0,0.0,0.0,0.0,0.0,0.0,0.0,0.0,0.0,0.0,0.0,0.0,0.0,0.0,0.0,0.0,0.0,0.0,0.0,0.0,0.0,0.0,0.0,0.0,0.0,0.0,0.0,0.0,0.0,0.0,0.0,0.0,0.0,0.0,0.0,0.0,0.0,0.0,0.0,0.0,0.0,0.0,0.0,0.0,0.0,0.0,0.0,0.0,0.0,0.0,0.0,0.0,0.0,0.0,0.0,0.0,0.0,0.0,0.0,0.0,0.0,0.0,0.0,0.0,0.0,0.0,0.0,0.0,0.0,0.0,0.0,0.0,0.0,0.0,0.0,0.0,0.0,0.0,0.0,0.0,-0.5561,-0.5647,-0.5701,-0.5701,-0.5701,-0.5701,0.0,0.0,0.0,0.0,0.0,0.0,0.0,0.0,0.0,0.0,0.0,0.0,0.0,0.0,0.0,0.0,0.0,0.0,0.0,0.0,0.0,0.0,0.0,0.0,0.0,0.0,0.0,0.0,0.0,0.0,0.0,0.0,0.0,0.0,0.0,0.0,0.0,0.0,0.0,0.0,0.0,0.0,0.0,0.0,0.0,0.0,0.0,0.0,0.0,0.0,0.0,0.0,0.0,0.0,0.0,0.0,0.0,0.0,0.0,0.0,0.0,0.0,0.0,0.0,0.0,0.0,0.0,0.0,0.0,0.0,0.0,0.0,0.0,0.0,0.0,0.0,0.0,0.0,0.0,0.0,0.0,0.0,0.0,0.0,0.0,0.0,0.0,0.0,0.0,0.0,0.0,0.0,0.0,0.0,0.0,0.0,0.0,0.0,0.0,0.0,0.0,0.0,0.0,0.0,0.0,0.0,0.0,0.0,0.0,-0.5734,0.0,-0.5766,-0.5788,-0.5755,-0.5739,0.0,0.0,0.0,0.0,0.0,0.0,0.0,0.0,0.0,0.0,0.0,0.0,0.0,0.0,0.0,0.0,0.0,0.0,0.0,0.0,0.0,0.0,0.0,0.0,0.0,0.0,0.0,0.0,0.0,0.0,0.0,0.0,0.0,0.0,0.0,0.0,0.0,0.0,0.0,0.0,0.0,0.0,0.0,0.0,0.0,0.0,0.0,0.0,0.0,0.0,0.0,0.0,0.0,0.0,0.0,0.0,0.0,0.0,0.0,0.0,0.0,0.0,0.0,0.0,0.0,0.0,0.0,0.0,0.0,0.0,0.0,0.0,0.0,0.0,0.0,0.0,0.0,0.0,0.0,0.0,0.0,0.0,0.0,0.0,0.0,0.0,0.0,0.0,0.0,0.0,0.0,0.0,0.0,0.0,0.0,0.0,0.0,0.0,0.0,0.0,0.0,0.0,0.0,0.0,0.0,0.0,0.0,0.0,-0.5766,-0.5825,-0.5814,-0.5868,-0.5992,-0.5863,-0.5793,0.0,0.0,0.0,0.0,0.0,0.0,0.0,0.0,0.0,0.0,0.0,0.0,0.0,0.0,0.0,0.0,0.0,0.0,0.0,0.0,0.0,0.0,0.0,0.0,0.0,0.0,0.0,0.0,0.0,0.0,0.0,0.0,0.0,0.0,0.0,0.0,0.0,0.0,0.0,0.0,0.0,0.0,0.0,0.0,0.0,0.0,0.0,0.0,0.0,0.0,0.0,0.0,0.0,0.0,0.0,0.0,0.0,0.0,0.0,0.0,0.0,0.0,0.0,0.0,0.0,0.0,0.0,0.0,0.0,0.0,0.0,0.0,0.0,0.0,0.0,0.0,0.0,0.0,0.0,0.0,0.0,0.0,0.0,0.0,0.0,0.0,0.0,0.0,0.0,0.0,0.0,0.0,0.0,0.0,0.0,0.0,0.0,0.0,0.0,0.0,0.0,0.0,0.0,0.0,0.0,0.0,0.0,0.0,0.0,-0.6811,-0.6245,-0.6044,-0.6264,-0.6066,-0.5944,0.0,0.0,0.0,0.0,0.0,0.0,0.0,0.0,0.0,0.0,0.0,0.0,0.0,0.0,0.0,0.0,0.0,0.0,0.0,0.0,0.0,0.0,0.0,0.0,0.0,0.0,0.0,0.0,0.0,0.0,0.0,0.0,0.0,0.0,0.0,0.0,0.0,0.0,0.0,0.0,0.0,0.0,0.0,0.0,0.0,0.0,0.0,0.0,0.0,0.0,0.0,0.0,0.0,0.0,0.0,0.0,0.0,0.0,0.0,0.0,0.0,0.0,0.0,0.0,0.0,0.0,0.0,0.0,0.0,0.0,0.0,0.0,0.0,0.0,0.0,0.0,0.0,0.0,0.0,0.0,0.0,0.0,0.0,0.0,0.0,0.0,0.0,0.0,0.0,0.0,0.0,0.0,0.0,0.0,0.0,0.0,0.0,0.0,0.0,0.0,0.0,0.0,0.0,0.0,0.0,0.0,0.0,0.0,0.0,-0.748,-0.6772,-0.6577,-0.698,-0.66,-0.6337,-0.6227,0.0,0.0,0.0,0.0,0.0,0.0,0.0,0.0,0.0,0.0,0.0,0.0,0.0,0.0,0.0,0.0,0.0,0.0,0.0,0.0,0.0,0.0,0.0,0.0,0.0,0.0,0.0,0.0,0.0,0.0,0.0,0.0,0.0,0.0,0.0,0.0,0.0,0.0,0.0,0.0,0.0,0.0,0.0,0.0,0.0,0.0,0.0,0.0,0.0,0.0,0.0,0.0,0.0,0.0,0.0,0.0,0.0,0.0,0.0,0.0,0.0,0.0,0.0,0.0,0.0,0.0,0.0,0.0,0.0,0.0,0.0,0.0,0.0,0.0,0.0,0.0,0.0,0.0,0.0,0.0,0.0,0.0,0.0,0.0,0.0,0.0,0.0,0.0,0.0,0.0,0.0,0.0,0.0,0.0,0.0,0.0,0.0,0.0,0.0,0.0,0.0,0.0,0.0,0.0,0.0,0.0,0.0,0.0,-0.7962,-0.7353,-0.7339,-0.7929,-0.7338,-0.6895,0.0,0.0,0.0,0.0,0.0,0.0,0.0,0.0,0.0,0.0,0.0,0.0,0.0,0.0,0.0,0.0,0.0,0.0,0.0,0.0,0.0,0.0,0.0,0.0,0.0,0.0,0.0,0.0,0.0,0.0,0.0,0.0,0.0,0.0,0.0,0.0,0.0,0.0,0.0,0.0,0.0,0.0,0.0,0.0,0.0,0.0,0.0,0.0,0.0,0.0,0.0,0.0,0.0,0.0,0.0,0.0,0.0,0.0,0.0,0.0,0.0,0.0,0.0,0.0,0.0,0.0,0.0,0.0,0.0,0.0,0.0,0.0,0.0,0.0,0.0,0.0,0.0,0.0,0.0,0.0,0.0,0.0,0.0,0.0,0.0,0.0,0.0,0.0,0.0,0.0,0.0,0.0,0.0,0.0,0.0,0.0,0.0,0.0,0.0,0.0,0.0,0.0,0.0,0.0,0.0,0.0,0.0,0.0,0.0,-0.8508,-0.798,-0.7679,-0.7697,-0.734,-0.7122,0.0,0.0,0.0,0.0,0.0,0.0,0.0,0.0,0.0,0.0,0.0,0.0,0.0,0.0,0.0,0.0,0.0,0.0,0.0,0.0,0.0,0.0,0.0,0.0,0.0,0.0,0.0,0.0,0.0,0.0,0.0,0.0,0.0,0.0,0.0,0.0,0.0,0.0,0.0,0.0,0.0,0.0,0.0,0.0,0.0,0.0,0.0,0.0,0.0,0.0,0.0,0.0,0.0,0.0,0.0,0.0,0.0,0.0,0.0,0.0,0.0,0.0,0.0,0.0,0.0,0.0,0.0,0.0,0.0,0.0,0.0,0.0,0.0,0.0,0.0,0.0,0.0,0.0,0.0,0.0,0.0,0.0,0.0,0.0,0.0,0.0,0.0,0.0,0.0,0.0,0.0,0.0,0.0,0.0,0.0,0.0,0.0,0.0,0.0,0.0,0.0,0.0,0.0,0.0,0.0,0.0,0.0,0.0,-0.8327,-0.8613,-0.8289,-0.8061,-0.7952,-0.7645,-0.7467,0.0,0.0,0.0,0.0,0.0,0.0,0.0,0.0,0.0,0.0,0.0,0.0,0.0,0.0,0.0,0.0,0.0,0.0,0.0,0.0,0.0,0.0,0.0,0.0,0.0,0.0,0.0,0.0,0.0,0.0,0.0,0.0,0.0,0.0,0.0,0.0,0.0,0.0,0.0,0.0,0.0,0.0,0.0,0.0,0.0,0.0,0.0,0.0,0.0,0.0,0.0,0.0,0.0,0.0,0.0,0.0,0.0,0.0,0.0,0.0,0.0,0.0,0.0,0.0,0.0,0.0,0.0,0.0,0.0,0.0,0.0,0.0,0.0,0.0,0.0,0.0,0.0,0.0,0.0,0.0,0.0,0.0,0.0,0.0,0.0,0.0,0.0,0.0,0.0,0.0,0.0,0.0,0.0,0.0,0.0,0.0,0.0,0.0,0.0,0.0,0.0,0.0,0.0,0.0,0.0,0.0,0.0,0.0,-0.8621,-0.8497,-0.8484,-0.8471,-0.8432,-0.8127,-0.7853,0.0,0.0,0.0,0.0,0.0,0.0,0.0,0.0,0.0,0.0,0.0,0.0,0.0,0.0,0.0,0.0,0.0,0.0,0.0,0.0,0.0,0.0,0.0,0.0,0.0,0.0,0.0,0.0,0.0,0.0,0.0,0.0,0.0,0.0,0.0,0.0,0.0,0.0,0.0,0.0,0.0,0.0,0.0,0.0,0.0,0.0,0.0,0.0,0.0,0.0,0.0,0.0,0.0,0.0,0.0,0.0,0.0,0.0,0.0,0.0,0.0,0.0,0.0,0.0,0.0,0.0,0.0,0.0,0.0,0.0,0.0,0.0,0.0,0.0,0.0,0.0,0.0,0.0,0.0,0.0,0.0,0.0,0.0,0.0,0.0,0.0,0.0,0.0,0.0,0.0,0.0,0.0,0.0,0.0,0.0,0.0,0.0,0.0,0.0,0.0,0.0,0.0,0.0,0.0,0.0,0.0,0.0,0.0,-0.9136,-0.9101,-0.9115,-0.8978,-0.8726,-0.8449,-0.823,0.0,0.0,0.0,0.0,0.0,0.0,0.0,0.0,0.0,0.0,0.0,0.0,0.0,0.0,0.0,0.0,0.0,0.0,0.0,0.0,0.0,0.0,0.0,0.0,0.0,0.0,0.0,0.0,0.0,0.0,0.0,0.0,0.0,0.0,0.0,0.0,0.0,0.0,0.0,0.0,0.0,0.0,0.0,0.0,0.0,0.0,0.0,0.0,-0.2198,0.0,0.0,0.0,0.0,0.0,0.0,0.0,0.0,0.0,0.0,0.0,0.0,0.0,0.0,0.0,0.0,0.0,0.0,0.0,0.0,0.0,0.0,0.0,0.0,0.0,0.0,0.0,0.0,0.0,0.0,0.0,0.0,0.0,0.0,0.0,0.0,0.0,0.0,0.0,0.0,0.0,0.0,0.0,0.0,0.0,0.0,0.0,0.0,0.0,0.0,0.0,0.0,0.0,0.0,0.0,0.0,0.0,0.0,0.0,-0.9814,-0.9905,-0.9759,-0.96,-0.9393,-0.9155,-0.8757,0.0,0.0,0.0,0.0,0.0,0.0,0.0,0.0,0.0,0.0,0.0,0.0,0.0,0.0,0.0,0.0,0.0,0.0,0.0,0.0,0.0,0.0,0.0,0.0,0.0,0.0,0.0,0.0,0.0,0.0,0.0,0.0,0.0,0.0,0.0,0.0,0.0,0.0,0.0,0.0,0.0,0.0,0.0,0.0,0.0,0.0,0.0,0.0,0.0,0.0,0.0,0.0,0.0,0.0,0.0,0.0,0.0,0.0,0.0,0.0,0.0,0.0,0.0,0.0,0.0,0.0,0.0,0.0,0.0,0.0,0.0,0.0,0.0,0.0,0.0,0.0,0.0,0.0,0.0,0.0,0.0,0.0,0.0,0.0,0.0,0.0,0.0,0.0,0.0,0.0,0.0,0.0,0.0,0.0,0.0,0.0,0.0,0.0,0.0,0.0,0.0,0.0,0.0,0.0,0.0,0.0,0.0,-1.0243,-1.0504,-1.0697,-1.0448,-1.0294,-1.0232,-1.0028,-0.9467,-0.8523,0.0,0.0,0.0,0.0,0.0,0.0,0.0,0.0,0.0,0.0,0.0,0.0,0.0,0.0,0.0,0.0,0.0,0.0,0.0,0.0,0.0,0.0,0.0,0.0,0.0,0.0,0.0,0.0,0.0,0.0,0.0,0.0,0.0,0.0,0.0,0.0,0.0,0.0,-0.0782,-0.0869,0.0,0.0,0.0,0.0,0.0,0.0,0.0,0.0,-0.373,0.0,0.0,0.0,0.0,0.0,0.0,0.0,0.0,0.0,0.0,0.0,0.0,0.0,0.0,0.0,0.0,0.0,0.0,0.0,0.0,0.0,0.0,0.0,0.0,0.0,0.0,0.0,0.0,0.0,0.0,0.0,0.0,0.0,0.0,0.0,0.0,0.0,0.0,0.0,0.0,0.0,0.0,0.0,0.0,0.0,0.0,0.0,0.0,0.0,0.0,0.0,0.0,0.0,0.0,0.0,0.0,-1.094,-1.0906,-1.1019,-1.1259,-1.1219,-1.1079,-1.0855,-1.0825,-1.0446,-0.9721,0.0,0.0,0.0,0.0,0.0,0.0,0.0,0.0,0.0,0.0,0.0,0.0,0.0,0.0,0.0,0.0,0.0,0.0,0.0,0.0,0.0,0.0,0.0,0.0,0.0,0.0,0.0,0.0,0.0,0.0,0.0,0.0,0.0,0.0,0.0,0.0,0.0,0.0,0.0,-0.138,-0.1554,0.0,0.0,0.0,0.0,0.0,0.0,0.0,0.0,-0.3955,0.0,0.0,0.0,0.0,0.0,0.0,0.0,0.0,0.0,0.0,0.0,0.0,0.0,0.0,0.0,0.0,0.0,0.0,0.0,0.0,0.0,0.0,0.0,0.0,0.0,0.0,0.0,0.0,0.0,0.0,0.0,0.0,0.0,0.0,0.0,0.0,0.0,0.0,0.0,0.0,0.0,0.0,0.0,0.0,0.0,0.0,0.0,0.0,0.0,0.0,0.0,0.0,0.0,0.0,0.0,-1.0931,-1.0979,-1.1129,-1.1392,-1.1266,-1.1209,-1.1216,-1.1069,-1.083,0.0,0.0,0.0,0.0,0.0,0.0,0.0,0.0,0.0,0.0,0.0,0.0,0.0,0.0,0.0,0.0,0.0,0.0,0.0,0.0,0.0,0.0,0.0,0.0,0.0,0.0,0.0,0.0,0.0,0.0,0.0,0.0,0.0,0.0,0.0,0.0,0.0,0.0,0.0,0.0,-0.1605,-0.1712,-0.1741,0.0,0.0,0.0,0.0,0.0,0.0,-0.3375,-0.3652,0.0,0.0,0.0,0.0,0.0,0.0,0.0,0.0,0.0,0.0,0.0,0.0,0.0,0.0,0.0,0.0,0.0,0.0,0.0,0.0,0.0,0.0,0.0,0.0,0.0,0.0,0.0,0.0,0.0,0.0,0.0,0.0,0.0,0.0,0.0,0.0,0.0,0.0,0.0,0.0,0.0,0.0,0.0,0.0,0.0,0.0,0.0,0.0,0.0,0.0,0.0,0.0,0.0,0.0,0.0,-1.103,-1.1129,-1.1309,-1.1559,-1.1376,-1.1343,-1.1486,-1.1296,-1.1104,0.0,0.0,0.0,0.0,0.0,0.0,0.0,0.0,0.0,0.0,0.0,0.0,0.0,0.0,0.0,0.0,0.0,0.0,0.0,0.0,0.0,0.0,0.0,0.0,0.0,0.0,0.0,0.0,0.0,0.0,0.0,0.0,0.0,0.0,0.0,0.0,0.0,0.0,0.0,0.0,0.0,-0.1916,-0.1966,-0.2125,0.0,0.0,0.0,0.0,-0.328,-0.3727,0.0,0.0,0.0,0.0,0.0,0.0,0.0,0.0,0.0,0.0,0.0,0.0,0.0,0.0,0.0,0.0,0.0,0.0,0.0,0.0,0.0,0.0,0.0,0.0,0.0,0.0,0.0,0.0,0.0,0.0,0.0,0.0,0.0,0.0,0.0,0.0,0.0,0.0,0.0,0.0,0.0,0.0,0.0,0.0,0.0,0.0,0.0,0.0,0.0,0.0,0.0,0.0,0.0,0.0,0.0,0.0,-1.2076,-1.1915,-1.1928,-1.2184,-1.2164,-1.2062,-1.1866,-1.1801,-1.1558,0.0,0.0,0.0,0.0,0.0,0.0,0.0,0.0,0.0,0.0,0.0,0.0,0.0,0.0,0.0,0.0,0.0,0.0,0.0,0.0,0.0,0.0,0.0,0.0,0.0,0.0,0.0,0.0,0.0,0.0,0.0,0.0,0.0,0.0,0.0,0.0,0.0,0.0,0.0,0.0,0.0,-0.2595,-0.2589,-0.3272,-0.366,0.0,0.0,-0.4894,-0.455,-0.4853,0.0,0.0,0.0,0.0,0.0,0.0,0.0,0.0,0.0,0.0,0.0,0.0,0.0,0.0,0.0,0.0,0.0,0.0,0.0,0.0,0.0,0.0,0.0,0.0,0.0,0.0,0.0,0.0,0.0,0.0,0.0,0.0,0.0,0.0,0.0,0.0,0.0,0.0,0.0,0.0,0.0,0.0,0.0,0.0,0.0,0.0,0.0,0.0,0.0,0.0,0.0,0.0,0.0,0.0,0.0,-1.1833,-1.1945,-1.1841,-1.1834,-1.1956,-1.1969,-1.1937,-1.1906,-1.1906,-1.1795,0.0,0.0,0.0,0.0,0.0,0.0,0.0,0.0,0.0,0.0,0.0,0.0,0.0,0.0,0.0,0.0,0.0,0.0,0.0,0.0,0.0,0.0,0.0,0.0,0.0,0.0,0.0,0.0,0.0,0.0,0.0,0.0,0.0,0.0,0.0,0.0,0.0,0.0,0.0,0.0,0.0,0.0,-0.2691,-0.3023,0.0,0.0,0.0,-0.376,-0.3594,0.0,0.0,0.0,0.0,0.0,0.0,0.0,0.0,0.0,0.0,0.0,0.0,0.0,0.0,0.0,0.0,0.0,0.0,0.0,0.0,0.0,0.0,0.0,0.0,0.0,0.0,0.0,0.0,0.0,0.0,0.0,0.0,0.0,0.0,0.0,0.0,0.0,0.0,0.0,0.0,0.0,0.0,0.0,0.0,0.0,0.0,0.0,0.0,0.0,0.0,0.0,0.0,0.0,0.0,0.0,0.0,0.0,-1.225,-1.2261,-1.2243,-1.2261,-1.225,-1.2241,-1.2193,-1.2193,0.0,0.0,0.0,0.0,0.0,0.0,0.0,0.0,0.0,0.0,0.0,0.0,0.0,0.0,0.0,0.0,0.0,0.0,0.0,0.0,0.0,0.0,0.0,0.0,0.0,0.0,0.0,-0.2579,0.0,0.0,0.0,0.0,0.0,0.0,0.0,0.0,0.0,0.0,0.0,0.0,0.0,0.0,-0.2856,-0.3007,-0.3119,-0.3255,0.0,0.0,-0.3588,-0.3588,-0.3588,-0.3574,0.0,0.0,0.0,0.0,0.0,0.0,0.0,0.0,0.0,0.0,0.0,0.0,0.0,0.0,0.0,0.0,0.0,0.0,0.0,0.0,0.0,0.0,0.0,0.0,0.0,0.0,0.0,0.0,0.0,0.0,0.0,0.0,0.0,0.0,0.0,0.0,0.0,0.0,0.0,0.0,0.0,0.0,0.0,0.0,0.0,0.0,0.0,0.0,0.0,0.0,0.0,0.0,0.0,0.0,-1.351,-1.3751,-1.3744,-1.3723,-1.3737,-1.3763,-1.3521,-1.3048,-1.3027,-1.2668,0.0,0.0,0.0,0.0,0.0,0.0,0.0,0.0,0.0,0.0,0.0,0.0,0.0,0.0,0.0,0.0,0.0,0.0,0.0,0.0,0.0,0.0,0.0,0.0,0.0,0.0,0.0,0.0,0.0,0.0,0.0,0.0,0.0,0.0,0.0,0.0,0.0,0.0,0.0,0.0,0.0,-0.328,-0.3829,-0.4284,-0.4766,0.0,-0.571,-0.5959,-0.5964,-0.5946,-0.5959,-0.5946,0.0,0.0,0.0,0.0,0.0,0.0,0.0,0.0,0.0,0.0,0.0,0.0,0.0,0.0,0.0,0.0,0.0,0.0,0.0,0.0,0.0,0.0,0.0,0.0,0.0,0.0,0.0,0.0,0.0,0.0,0.0,0.0,0.0,0.0,0.0,0.0,0.0,0.0,0.0,0.0,0.0,0.0,0.0,0.0,0.0,0.0,0.0,0.0,0.0,0.0,0.0,0.0,0.0,-1.3843,-1.4066,-1.4093,-1.4086,-1.4093,-1.4086,-1.3931,-1.3617,-1.3421,-1.3215,0.0,0.0,0.0,0.0,0.0,0.0,0.0,0.0,0.0,0.0,0.0,0.0,0.0,0.0,0.0,0.0,0.0,0.0,0.0,0.0,0.0,0.0,0.0,0.0,0.0,0.0,0.0,0.0,-0.2949,-0.3119,-0.3119,0.0,0.0,0.0,0.0,0.0,0.0,0.0,0.0,0.0,0.0,-0.4291,-0.4522,-0.4715,0.0,0.0,-0.5411,-0.5593,-0.5593,-0.5712,-0.5831,-0.5831,-0.6062,0.0,0.0,0.0,0.0,0.0,0.0,0.0,0.0,0.0,0.0,0.0,0.0,0.0,0.0,0.0,0.0,0.0,0.0,0.0,0.0,0.0,0.0,0.0,0.0,0.0,0.0,0.0,0.0,0.0,0.0,0.0,0.0,0.0,0.0,0.0,0.0,0.0,0.0,0.0,0.0,0.0,0.0,0.0,0.0,0.0,0.0,0.0,0.0,0.0,0.0,0.0,0.0,-1.4371,-1.4551,-1.4551,-1.4551,-1.4578,-1.4551,-1.4444,-1.4264,-1.4077,-1.3908,0.0,0.0,0.0,0.0,0.0,0.0,0.0,0.0,0.0,0.0,0.0,0.0,0.0,0.0,0.0,0.0,0.0,0.0,0.0,0.0,0.0,0.0,0.0,0.0,0.0,0.0,0.0,0.0,-0.3299,-0.338,-0.3558,0.0,0.0,0.0,0.0,0.0,0.0,0.0,0.0,0.0,0.0,-0.5242,-0.5462,-0.5484,-0.5555,-0.5734,-0.5887,-0.5968,-0.5982,-0.6134,-0.625,-0.6265,0.0,0.0,0.0,0.0,0.0,0.0,0.0,0.0,0.0,0.0,0.0,0.0,0.0,0.0,0.0,0.0,0.0,0.0,0.0,0.0,0.0,0.0,0.0,0.0,0.0,0.0,0.0,-0.6383,0.0,0.0,-0.6459,0.0,0.0,0.0,0.0,0.0,0.0,0.0,0.0,0.0,0.0,0.0,0.0,0.0,0.0,0.0,0.0,0.0,0.0,0.0,0.0,0.0,0.0,-1.5165,-1.536,-1.5345,-1.5352,-1.536,-1.5367,-1.5269,-1.5054,-1.5061,-1.4814,-1.4306,0.0,0.0,0.0,0.0,0.0,0.0,0.0,0.0,0.0,0.0,0.0,0.0,0.0,0.0,0.0,0.0,0.0,0.0,0.0,0.0,0.0,0.0,0.0,0.0,0.0,0.0,-0.3605,-0.3705,-0.3996,0.0,0.0,0.0,0.0,0.0,0.0,0.0,0.0,0.0,-0.4811,-0.5337,-0.5971,-0.6741,-0.6863,-0.7047,-0.76,-0.7711,-0.7731,-0.7701,-0.7727,-0.7766,0.0,0.0,0.0,0.0,0.0,0.0,0.0,0.0,0.0,0.0,0.0,0.0,0.0,0.0,0.0,0.0,0.0,0.0,0.0,0.0,0.0,0.0,0.0,0.0,0.0,0.0,0.0,-0.8102,-0.8194,0.0,0.0,0.0,0.0,0.0,0.0,0.0,0.0,0.0,0.0,0.0,-1.4005,-1.4293,0.0,0.0,0.0,0.0,0.0,0.0,0.0,0.0,0.0,0.0,0.0,0.0,-1.5326,-1.5389,-1.541,-1.541,-1.541,-1.541,-1.5368,-1.5305,-1.5173,-1.4928,-1.4587,0.0,0.0,0.0,0.0,0.0,0.0,0.0,0.0,0.0,0.0,0.0,0.0,0.0,0.0,0.0,0.0,0.0,0.0,0.0,0.0,0.0,0.0,0.0,0.0,0.0,-0.4257,0.0,0.0,0.0,0.0,0.0,0.0,0.0,0.0,0.0,0.0,0.0,-0.5387,-0.6332,-0.6635,-0.7013,-0.7729,-0.7829,-0.7918,0.0,0.0,0.0,0.0,0.0,0.0,0.0,0.0,0.0,0.0,0.0,0.0,0.0,0.0,-0.7574,-0.6854,-0.6463,-0.6216,-0.6151,0.0,0.0,0.0,0.0,0.0,0.0,0.0,0.0,0.0,0.0,0.0,0.0,0.0,0.0,-0.9849,-0.9934,-0.9939,0.0,0.0,0.0,0.0,0.0,0.0,0.0,0.0,-1.4657,-1.4856,-1.4871,-1.517,-1.5383,0.0,-1.571,-1.5614,0.0,0.0,0.0,0.0,0.0,0.0,0.0,0.0,-1.5731,-1.5731,-1.5752,-1.5752,-1.5752,-1.5629,-1.5578,-1.557,-1.5335,-1.509,-1.4845,-1.4676,-1.446,0.0,0.0,0.0,0.0,0.0,0.0,0.0,0.0,0.0,0.0,0.0,0.0,0.0,0.0,0.0,0.0,0.0,0.0,0.0,0.0,0.0,0.0,0.0,-0.5249,0.0,0.0,0.0,0.0,0.0,0.0,0.0,0.0,0.0,-0.5747,-0.5865,-0.6381,-0.7355,-0.7663,-0.7976,-0.8463,0.0,0.0,0.0,0.0,0.0,0.0,0.0,-0.8968,-0.8899,-0.8867,-0.8797,-0.8625,-0.8592,-0.8576,-0.8517,0.0,0.0,-0.7432,-0.7019,-0.6749,-0.6701,-0.6493,-0.6343,-0.6259,-0.6732,-0.73,0.0,0.0,0.0,0.0,0.0,0.0,0.0,0.0,-1.1637,-1.1669,0.0,-1.1681,0.0,0.0,0.0,0.0,-1.3247,-1.4444,0.0,0.0,-1.5685,-1.5957,-1.5986,-1.6308,-1.6448,-1.6477,-1.6903,-1.7114,-1.7055,-1.6327,0.0,0.0,0.0,0.0,0.0,0.0,-1.6433,-1.6374,-1.6419,-1.6404,-1.6367,-1.6074,-1.5928,-1.5921,-1.5607,-1.5342,-1.5153,-1.5132,-1.5006,-1.4734,-1.4467,0.0,0.0,0.0,0.0,0.0,0.0,0.0,0.0,0.0,0.0,0.0,0.0,0.0,0.0,0.0,0.0,0.0,0.0,0.0,0.0,-0.6737,0.0,0.0,0.0,0.0,0.0,0.0,0.0,0.0,0.0,0.0,-0.6885,-0.7116,-0.7521,-0.7799,0.0,0.0,0.0,0.0,-0.9027,-0.9005,-0.9033,-0.9011,-0.9027,-0.9033,-0.9017,-0.9017,0.0,0.0,-0.8813,-0.8802,-0.8738,-0.8565,-0.8549,-0.8398,-0.8074,-0.7709,-0.7445,-0.7253,-0.7199,-0.7128,-0.6993,-0.735,-0.7735,-1.5317,0.0,0.0,0.0,0.0,-1.4633,-1.4561,-1.4568,-1.4568,-1.4568,-1.4568,-1.4568,0.0,0.0,0.0,0.0,0.0,0.0,-1.7044,-1.7052,-1.7225,-1.7333,-1.7341,-1.7427,-1.7473,-1.7495,-1.7604,-1.767,-1.7678,-1.7652,-1.7325,-1.6768,0.0,0.0,0.0,0.0,-1.7115,-1.6455,-1.672,-1.6742,-1.6389,-1.6309,-1.6257,-1.6265,-1.6169,-1.5958,-1.5675,-1.5668,-1.5453,-1.5013,-1.492,0.0,0.0,0.0,0.0,0.0,0.0,0.0,0.0,0.0,0.0,0.0,0.0,0.0,0.0,0.0,0.0,0.0,0.0,0.0,-0.7632,-0.7611,-0.7616,0.0,0.0,0.0,0.0,0.0,0.0,0.0,0.0,0.0,-0.9066,-0.8306,-0.7969,0.0,0.0,-0.8846,-0.929,-0.9366,-0.9366,-0.9344,-0.935,0.0,-0.9366,-0.935,-0.9328,-0.9226,-0.9097,-0.899,-0.8942,-0.8904,-0.8872,-0.8861,-0.8802,-0.8743,-0.8592,-0.8182,-0.7864,-0.7772,-0.7585,-0.74,-0.7375,-0.7832,-0.8264,-1.7467,-1.7106,-1.6428,-1.6173,-1.6151,-1.6151,-1.6151,-1.6151,-1.6151,-1.6151,-1.6144,-1.6151,-1.6173,-1.6173,-1.658,0.0,0.0,0.0,-1.7623,-1.7653,-1.7932,-1.8051,-1.8067,-1.8203,-1.8267,-1.8267,-1.8489,-1.8578,-1.8578,-1.8924,-1.875,-1.8125,0.0,0.0,-1.7386,-1.7946,-1.7946,-1.7401,-1.7633,-1.7633,-1.7364,-1.7049,-1.6721,-1.6419,-1.6389,-1.6309,-1.6104,-1.6096,-1.5878,-1.5445,-1.5424,-1.5239,0.0,0.0,0.0,0.0,0.0,0.0,0.0,0.0,0.0,0.0,0.0,-0.7824,-0.8278,0.0,0.0,0.0,-0.8909,-0.8929,-0.8802,-0.8807,0.0,0.0,0.0,0.0,0.0,0.0,0.0,-0.948,-0.9875,-1.0165,-1.0212,-0.9534,-0.9064,-0.9192,-0.9208,-0.9332,-0.9638,0.0,-0.9702,-0.9686,-0.9686,-0.9702,-0.9686,-0.9686,-0.9648,-0.952,-0.9328,-0.9167,-0.9135,-0.9075,-0.9059,-0.9017,-0.8958,-0.8931,-0.8899,-0.8619,-0.8344,-0.8236,-0.8036,-0.7901,-0.7889,-0.8522,-0.9096,-1.92,-1.9076,-1.7547,-1.6908,-1.69,-1.6879,-1.6908,-1.69,-1.6908,-1.69,-1.69,-1.69,-1.69,-1.69,-1.69,0.0,-1.6916,-1.7214,-1.7395,-1.739,-1.8071,-1.8375,-1.8383,-1.8695,-1.884,-1.8824,-1.935,-1.9577,-1.9583,-1.9977,-1.9994,-1.9555,-1.9084,-1.8818,-1.8804,-1.8874,-1.8874,-1.8804,-1.8819,-1.8843,-1.8796,-1.8078,-1.7341,-1.6573,-1.6529,-1.6507,-1.6433,-1.6448,-1.6287,-1.5972,-1.5928,-1.5697,-1.5196,0.0,0.0,0.0,0.0,0.0,0.0,0.0,0.0,0.0,0.0,0.0,0.0,0.0,0.0,0.0,-1.0443,0.0,-1.0222,-1.018,0.0,0.0,0.0,-0.9509,-1.0132,-0.9645,-0.959,-1.0351,0.0,0.0,-1.0711,-1.0727,-1.0599,-1.0229,-1.0088,-1.0021,-1.0005,-0.9989,-1.0005,-0.9983,-1.0024,-1.0031,-1.0037,-1.0072,-1.0039,-0.9906,-0.9721,-0.9568,-0.9438,-0.94,-0.9318,-0.9189,-0.9101,-0.9091,-0.9096,-0.9097,-0.8966,-0.8674,-0.8581,-0.8582,-0.8647,-0.9292,-0.9869,-1.92,-1.9162,-1.8761,-1.86,-1.8608,-1.8629,-1.8608,-1.8608,-1.8608,-1.86,-1.86,-1.86,-1.86,-1.86,-1.86,-1.86,-1.8608,-1.8701,-1.8722,-1.8722,-1.889,-1.8996,-1.8974,-1.9067,-1.9109,-1.9109,-1.9218,-1.9305,-1.9305,-1.9414,-1.9401,-1.9305,-1.9153,-1.901,-1.8827,-1.9563,-1.9563,-1.8804,-1.9188,-1.9211,-1.8827,-1.8602,-1.8271,-1.7712,-1.7705,-1.7424,-1.68,-1.6763,-1.6616,-1.6301,-1.6279,-1.6097,-1.5733,-1.5554,0.0,0.0,0.0,0.0,0.0,0.0,0.0,0.0,0.0,-1.0953,-1.1412,0.0,-1.1621,0.0,-1.1814,-1.1838,-1.1766,-1.1766,0.0,0.0,-1.161,-1.1574,-1.173,-1.1616,-1.1616,-1.1801,-1.1819,-1.1848,-1.1884,-1.1891,-1.1884,-1.1746,-1.0865,-1.018,-1.0031,-1.0005,-1.0005,-1.0059,-1.0279,-1.0388,-1.0413,-1.0572,-1.0621,-1.0429,-1.0361,-1.0276,-1.0083,-1.0065,-1.006,-0.9986,-0.9907,-0.9856,-0.9804,-0.9725,-0.9593,-0.9485,-0.9327,-0.9248,-0.9457,-0.9679,-0.9861,-1.9324,-1.92,-1.92,-1.92,-1.92,-1.92,-1.92,-1.92,-1.92,-1.92,-1.92,-1.92,-1.92,-1.92,-1.92,-1.92,-1.92,-1.92,-1.92,-1.9209,-1.9372,-1.9427,-1.9436,-1.9598,-1.9697,-1.9697,-1.9689,-1.9697,-1.9689,-1.9689,-1.9697,-1.9697,-1.9689,-1.9614,-1.9484,-1.972,-1.969,-1.9486,-1.976,-1.9646,-1.9165,-1.9165,-1.8935,-1.8427,-1.8195,-1.7887,-1.7445,-1.72,-1.6939,-1.6653,-1.6631,-1.6485,-1.614,-1.6009,-1.5821,0.0,0.0,0.0,0.0,0.0,0.0,0.0,0.0,0.0,0.0,0.0,-1.2786,-1.2544,-1.2517,-1.2464,-1.2311,-1.2305,-1.2305,-1.2305,-1.2305,-1.2305,-1.2305,-1.2305,-1.2305,-1.2305,-1.2305,-1.2305,-1.2305,-1.2305,-1.2305,-1.2305,-1.1673,-1.1159,-1.104,-1.103,-1.1023,-1.1036,-1.1177,-1.1299,-1.1299,-1.1376,-1.1335,-1.1096,-1.1,-1.084,-1.049,-1.0437,-1.0396,-1.0333,-1.0229,-1.0194,-1.0194,-1.0113,-1.0073,-1.0166,-1.009,-0.9962,-0.9823,-0.9985,-1.0142,-1.9858,-1.9592,-1.9592,-1.957,-1.9592,-1.9548,-1.9415,-1.92,-1.92,-1.92,-1.92,-1.92,-1.92,-1.92,-1.92,-1.92,-1.92,-1.92,-1.92,-1.9217,-1.9499,-1.9623,-1.9662,-1.9978,-2.0146,-2.0169,-2.0146,-2.0177,-2.0155,-2.0146,-2.0146,-2.0177,-2.0169,-2.0172,-2.0189,-1.9552,-1.9569,-2.0275,-2.0292,-2.0079,-1.9706,-1.9691,-1.944,-1.892,-1.8504,-1.8272,-1.8179,-1.7683,-1.7294,-1.7075,-1.6984,-1.6785,-1.647,-1.647,-1.6316,0.0,-1.5792,0.0,0.0,0.0,0.0,0.0,0.0,0.0,0.0,-1.3594,-1.3541,-1.3095,-1.3048,-1.2927,-1.2627,-1.26,-1.26,-1.2607,-1.26,-1.2607,-1.2607,-1.26,-1.26,-1.26,-1.26,-1.26,-1.2666,-1.26,-1.2614,-1.2693,-1.2692,-1.2626,-1.2587,-1.2377,-1.2175,-1.2305,-1.2357,-1.2268,-1.2341,-1.23,-1.2141,-1.1838,-1.171,-1.143,-1.0985,-1.0888,-1.0792,-1.0615,-1.0574,-1.0485,-1.0448,-1.0442,-1.0485,-1.0671,-1.0701,-1.0563,-1.019,-1.036,-1.0639,-2.1678,-2.164,-2.164,-2.1617,-2.1617,-2.1383,-2.0496,-1.92,-1.92,-1.92,-1.92,-1.92,-1.92,-1.92,-1.92,-1.92,-1.92,-1.92,-1.92,-1.92,-1.9269,-1.9303,-1.9281,-1.938,-1.9406,-1.9406,-1.9428,-1.9406,-1.9406,-1.9406,-1.9406,-1.9406,-1.9406,-1.9569,-1.9768,0.0,0.0,0.0,-2.0292,-2.0269,-2.0147,-2.0178,-1.9942,-1.9477,-1.9371,0.0,-1.8666,-1.8195,-1.7917,-1.7879,-1.7447,0.0,0.0,0.0,0.0,0.0,0.0,0.0,0.0,0.0,0.0,0.0,-1.4972,-1.4601,-1.4435,-1.4455,-1.4435,-1.4344,-1.4324,-1.433,-1.4247,-1.4241,-1.4261,-1.4247,-1.4241,-1.4241,-1.4241,-1.4234,-1.4247,-1.4247,-1.4241,-1.4234,-1.4165,-1.4247,-1.422,-1.4171,-1.4234,-1.4247,-1.4206,-1.3132,-1.2351,-1.2318,-1.2603,-1.2785,-1.298,-1.2994,-1.2896,-1.2707,-1.2642,-1.2486,-1.2209,-1.2048,-1.1956,-1.1867,-1.1571,-1.1267,-1.1267,-1.1105,-1.096,-1.1014,-1.102,-1.1002,-1.0868,-1.0942,-1.0997,-2.2378,-2.2191,-2.2191,-2.2191,0.0,-2.2049,-2.1491,-2.0668,-2.0388,-2.0275,-2.0283,-2.0275,-2.0297,-2.0275,-2.0283,-2.0306,-2.0275,-2.0283,-2.0297,-2.0275,-2.0297,-2.0275,-2.0297,-2.0306,-2.0297,-2.0297,-2.0306,-2.0306,-2.0275,-2.0283,-2.0212,-2.004,-2.004,-2.004,-2.0001,-1.9821,-1.9821,-1.9995,-2.0198,-2.0292,-2.0292,-2.0292,-2.0178,-1.9942,-1.9714,0.0,0.0,0.0,0.0,0.0,0.0,0.0,0.0,-1.7084,0.0,-1.6675,-1.6653,-1.658,-1.6404,-1.625,-1.6089,-1.5995,-1.5698,-1.5275,-1.4748,-1.4713,-1.4713,-1.4713,-1.4713,-1.4713,-1.4713,-1.4713,-1.4713,-1.4713,-1.4713,-1.4713,-1.4713,-1.4713,-1.4713,-1.4713,-1.4713,-1.4713,-1.4713,-1.4713,-1.4713,-1.4713,-1.4713,-1.4713,-1.465,-1.4034,-1.3476,-1.3351,-1.3366,-1.3481,-1.3607,-1.3641,-1.3527,-1.3326,-1.3239,-1.31,-1.279,-1.2671,-1.2571,-1.2465,-1.2154,-1.189,-1.1878,-1.1665,-1.1496,-1.1478,-1.1388,-1.1304,-1.1291,-1.1195,-1.1117,-2.2852,-2.2557,-2.2548,-2.2572,-2.2548,-2.25,-2.2452,-2.2363,-2.1809,0.0,0.0,-2.1477,-2.1461,-2.1405,-2.1405,-2.1405,-2.1405,-2.1405,-2.1405,-2.1405,-2.1405,-2.1405,-2.1405,-2.1405,-2.1405,-2.1405,-2.1405,-2.1405,-2.1405,-2.1405,-2.1259,-2.1026,-2.0968,-2.0814,-2.0506,-2.0512,-2.0335,-2.0016,-2.0184,-2.0292,-2.0292,-2.0292,-2.0292,-2.0292,-1.992,-1.9714,-1.9714,-1.9219,-1.8758,-1.838,-1.8203,-1.7893,-1.7473,-1.7356,-1.7185,-1.6983,-1.6961,-1.6851,-1.658,-1.6506,-1.647,-1.6389,-1.6133,-1.5684,-1.4972,-1.4853,-1.4824,-1.4817,-1.4824,-1.4817,-1.4824,-1.4824,-1.4824,-1.4824,-1.4824,-1.4817,-1.4845,-1.4824,-1.4845,-1.4817,-1.4866,-1.4824,-1.4852,-1.4852,-1.4824,-1.4845,-1.4866,-1.4824,-1.4803,-1.4706,-1.4469,-1.4282,-1.4143,-1.4126,-1.4096,-1.4076,-1.3981,-1.3726,-1.368,-1.3546,-1.3232,-1.3059,-1.2979,-1.2869,-1.2605,-1.2447,-1.2401,-1.2192,-1.2026,-1.2026,-1.1856,-1.1678,-1.164,-1.1457,-1.1307,-2.3959,-2.3938,-2.3904,-2.3929,-2.3904,-2.3682,-2.346,-2.3175,-2.2421,-2.1962,-2.1739,-2.1739,-2.1629,-2.1405,-2.1405,-2.1405,-2.1405,-2.1405,-2.1405,-2.1405,-2.1405,-2.1405,-2.1405,-2.1405,-2.1405,-2.1405,-2.1405,-2.1405,-2.1381,-2.1413,-2.1379,-2.1336,-2.1336,-2.1293,-2.1235,-2.1227,-2.1225,-2.1165,-2.0591,-2.0292,-2.0292,-2.0292,-2.0292,-2.0292,-2.0246,-2.0201,-2.0178,-1.9737,-1.9463,-1.9371,-1.8542,-1.8063,-1.797,-1.7543,-1.7288,-1.7236,-1.7244,-1.7222,-1.7186,-1.6968,-1.6712,-1.6426,-1.6345,-1.6148,-1.5762,-1.5479,-1.5298,-1.5305,-1.5306,-1.5298,-1.5298,-1.5299,-1.5306,-1.5285,-1.5305,-1.5298,-1.5285,-1.5277,-1.5277,-1.5277,-1.5298,-1.5277,-1.5264,-1.5277,-1.5277,-1.5305,-1.5243,-1.5285,-1.5194,-1.495,-1.4657,-1.4461,-1.4377,-1.4279,-1.4166,-1.4109,-1.4055,-1.4035,-1.4001,-1.3968,-1.3839,-1.3673,-1.3548,-1.3531,-1.3185,-1.292,-1.29,-1.2684,-1.2547,-1.2508,-1.2445,-1.2355,-1.221,-1.2115,-1.1877,-2.4516,-2.4489,-2.4303,-2.4211,-2.4211,-2.4069,-2.3954,-2.3818,-2.344,-2.2977,-2.2488,-2.261,-2.2512,-2.2292,-2.2414,-2.2488,-2.2472,-2.235,-2.2267,-2.2267,-2.212,-2.2046,-2.2054,-2.2054,-2.207,-2.2046,-2.2046,-2.2054,-2.2046,-2.2046,-2.1952,-2.173,-2.1516,-2.1405,-2.1405,-2.1405,-2.1405,-2.1396,-2.0883,-2.0609,-2.0609,-2.0403,-2.0292,-2.0292,-2.0292,-2.0292,-2.0292,-2.0102,-1.9851,-1.9592,-1.9157,-1.8796,-1.8473,-1.8009,-1.773,-1.773,-1.7473,-1.7309,-1.7309,-1.7201,-1.7047,-1.6901,-1.6748,-1.6602,-1.644,-1.6126,-1.5935,-1.5943,-1.5935,-1.5957,-1.5928,-1.5789,-1.5673,-1.5673,-1.5498,-1.5417,-1.541,-1.541,-1.541,-1.541,-1.541,-1.541,-1.541,-1.541,-1.541,-1.541,-1.541,-1.541,-1.541,-1.5215,-1.5013,-1.4824,-1.4573,-1.437,-1.4258,-1.4166,-1.4109,-1.4109,-1.4109,-1.4109,-1.4109,-1.3976,-1.3934,-1.3885,-1.3599,-1.3408,-1.3374,-1.3195,-1.305,-1.3024,-1.2897,-1.2772,-1.2686,-1.2505,-1.207,-2.4939,-2.4902,-2.459,-2.4477,-2.4452,-2.4477,-2.4477,-2.4477,-2.4452,-2.4101,-2.3519,-2.3494,-2.3322,-2.313,-2.3256,-2.3322,-2.3272,-2.3021,-2.2896,-2.2871,-2.2703,-2.2628,-2.2628,-2.2628,-2.2628,-2.2628,-2.2628,-2.2628,-2.2628,-2.2628,-2.2457,-2.2115,-2.1816,-2.167,-2.1662,-2.1662,-2.167,-2.1645,-2.1311,-2.1097,-2.0985,-2.0717,-2.0506,-2.0429,-2.0452,-2.0386,-2.0323,-2.0292,-2.0133,-1.9774,-1.9646,-1.9409,-1.9004,-1.8527,-1.8272,-1.8203,-1.7776,-1.7419,-1.7302,-1.7309,-1.7309,-1.7302,-1.7129,-1.699,-1.6961,-1.6763,-1.6536,-1.6418,-1.636,-1.6367,-1.6338,-1.6184,-1.6016,-1.6001,-1.5796,-1.5679,-1.5629,-1.5614,-1.5622,-1.5622,-1.5622,-1.5657,-1.5628,-1.5556,-1.549,-1.5432,-1.541,-1.541,-1.541,-1.541,-1.5326,-1.5152,-1.4824,-1.4566,-1.4482,-1.43,-1.4201,-1.4159,-1.413,-1.4109,-1.4109,-1.4109,-1.4088,-1.406,-1.3934,-1.3802,-1.3773,-1.3654,-1.355,-1.3539,-1.3424,-1.3266,-1.315,-1.2803,-1.2271,-2.5343,-2.5343,-2.5278,-2.5287,-2.526,-2.526,-2.5251,-2.5251,-2.5278,-2.5123,-2.4703,-2.4096,-2.3623,-2.3347,-2.318,-2.3097,-2.3071,-2.2779,-2.2669,-2.2669,-2.2628,-2.2628,-2.2628,-2.2628,-2.2628,-2.2628,-2.2628,-2.2628,-2.2628,-2.2628,-2.2602,-2.2551,-2.2508,-2.2465,-2.2474,-2.2474,-2.2474,-2.2482,-2.2106,-2.1722,-2.1379,-2.1328,-2.1156,-2.0854,-2.0846,-2.0674,-2.0335,-2.0292,-2.0269,-2.0201,-1.9828,-1.96,-1.9486,-1.9027,-1.8735,-1.8704,-1.8295,-1.7823,-1.738,-1.7309,-1.7309,-1.7309,-1.7273,-1.7244,-1.7251,-1.7222,-1.6951,-1.6557,-1.6411,-1.644,-1.6389,-1.6367,-1.6353,-1.6345,-1.6287,-1.6309,-1.6235,-1.6301,-1.6301,-1.6301,-1.6228,-1.6294,-1.6206,-1.6016,-1.5746,-1.5541,-1.5527,-1.5527,-1.5519,-1.5519,-1.5484,-1.5398,-1.5174,-1.495,-1.4734,-1.4503,-1.4377,-1.4335,-1.4201,-1.4124,-1.4103,-1.4109,-1.4109,-1.4088,-1.4082,-1.4018,-1.4018,-1.4039,-1.3997,-1.3934,-1.3894,-1.3902,-1.3644,-1.3262,-1.2715,-2.5746,-2.5745,-2.5489,-2.5398,-2.5398,-2.5398,-2.5398,-2.5398,-2.5398,-2.532,-2.5205,-2.4886,-2.4468,-2.398,-2.3797,-2.3696,-2.3705,-2.3447,-2.3231,-2.3071,-2.2921,-2.2754,-2.2628,-2.2628,-2.2628,-2.2628,-2.2628,-2.2628,-2.2628,-2.2628,-2.2628,-2.2628,-2.2628,-2.2628,-2.2628,-2.2628,-2.2628,-2.2594,-2.2423,-2.2269,-2.208,-2.1636,-2.1336,-2.1208,-2.1191,-2.102,-2.0709,-2.0643,-2.0554,-2.0317,-2.0102,-2.0011,-2.0011,-1.9554,-1.9279,-1.9234,-1.8796,-1.8288,-1.78,-1.7776,-1.7637,-1.7333,-1.7309,-1.7309,-1.7309,-1.7309,-1.7178,-1.7004,-1.693,-1.693,-1.6916,-1.6792,-1.6705,-1.6675,-1.6506,-1.6396,-1.6389,-1.6396,-1.6389,-1.6389,-1.6389,-1.6396,-1.6374,-1.6279,-1.6155,-1.6001,-1.5979,-1.595,-1.5972,-1.5987,-1.6008,-1.5979,-1.5915,-1.5583,-1.5092,-1.4734,-1.4573,-1.4426,-1.4335,-1.4279,-1.4137,-1.4109,-1.4109,-1.4109,-1.4109,-1.4109,-1.4088,-1.4109,-1.4109,-1.4109,-1.4082,-1.4018,-1.3758,-1.3562,-1.3211,-2.6159,-2.6114,-2.5847,-2.5728,-2.5728,-2.5728,-2.5737,-2.5728,-2.5728,-2.5728,-2.571,-2.5618,-2.5303,-2.4837,-2.4573,-2.4416,-2.4382,-2.413,-2.3928,-2.3726,-2.3523,-2.3242,-2.2892,-2.2884,-2.2773,-2.2636,-2.2628,-2.2628,-2.2628,-2.2628,-2.2628,-2.2628,-2.2628,-2.2628,-2.2628,-2.2628,-2.2628,-2.2628,-2.2628,-2.2628,-2.2517,-2.2029,-2.167,-2.1585,-2.1567,-2.1405,-2.1069,-2.102,-2.0848,-2.048,-2.0477,-2.0417,-2.0278,-1.9973,-1.9737,-1.9569,-1.9242,-1.8827,-1.8319,-1.8295,-1.8087,-1.7613,-1.752,-1.7466,-1.7326,-1.7309,-1.7309,-1.7288,-1.7309,-1.7288,-1.728,-1.7121,-1.7019,-1.6997,-1.6777,-1.666,-1.6645,-1.6646,-1.6675,-1.6653,-1.6696,-1.6609,-1.6573,-1.6543,-1.6492,-1.6397,-1.636,-1.6389,-1.6389,-1.6367,-1.6367,-1.6389,-1.6374,-1.6155,-1.5583,-1.5298,-1.5014,-1.4873,-1.483,-1.4577,-1.4345,-1.4282,-1.4124,-1.4145,-1.4124,-1.4109,-1.4109,-1.4109,-1.4046,-1.4088,-1.406,-1.3976,-1.3891,-1.3794,-1.3709,-2.6564,-2.6582,-2.6563,-2.6481,-2.6545,-2.6499,-2.6536,-2.6472,-2.649,-2.6536,-2.6444,-2.6132,-2.5975,-2.5858,-2.5298,-2.496,-2.4916,-2.4681,-2.4532,-2.4506,-2.4472,-2.4165,-2.3581,-2.3538,-2.3227,-2.2765,-2.2705,-2.2663,-2.2637,-2.2628,-2.2628,-2.2628,-2.2628,-2.2628,-2.2628,-2.2628,-2.2628,-2.2628,-2.2628,-2.2628,-2.2619,-2.2551,-2.2312,-2.1996,-2.197,-2.179,-2.1448,-2.1388,-2.1216,-2.0889,-2.088,-2.0694,-2.0352,-2.0278,-2.0033,-1.966,-1.9577,-1.9325,-1.8866,-1.8781,-1.8573,-1.8156,-1.8063,-1.7877,-1.752,-1.745,-1.745,-1.7326,-1.7426,-1.7396,-1.7356,-1.7282,-1.7244,-1.7251,-1.7251,-1.7214,-1.7229,-1.7163,-1.7251,-1.7222,-1.7178,-1.7084,-1.6895,-1.6858,-1.6726,-1.6543,-1.6433,-1.6448,-1.6492,-1.6455,-1.6462,-1.647,-1.6462,-1.6389,-1.6308,-1.598,-1.5848,-1.5673,-1.5309,-1.5088,-1.4834,-1.4609,-1.4401,-1.4234,-1.4287,-1.4272,-1.4143,-1.4046,-1.3955,-1.3913,-1.387,-1.3828,-1.3934,-1.4018,-1.3807,-2.6618,-2.6618,-2.6618,-2.6618,-2.6618,-2.6618,-2.6618,-2.6618,-2.6618,-2.6618,-2.6591,-2.6453,-2.6389,-2.6344,-2.6134,-2.5751,-2.5269,-2.5163,-2.5006,-2.4867,-2.4867,-2.4638,-2.4262,-2.4027,-2.3826,-2.3574,-2.3393,-2.316,-2.292,-2.2714,-2.2628,-2.2628,-2.2628,-2.2628,-2.2628,-2.2628,-2.2628,-2.2628,-2.2628,-2.2628,-2.2628,-2.2628,-2.2525,-2.2389,-2.2372,-2.22,-2.179,-2.179,-2.161,-2.1234,-2.1225,-2.1054,-2.0694,-2.0429,-2.0238,-2.0087,-2.0033,-1.9828,-1.9394,-1.9325,-1.9096,-1.862,-1.855,-1.8473,-1.8311,-1.8265,-1.8265,-1.8241,-1.8265,-1.8172,-1.78,-1.752,-1.7309,-1.7309,-1.7309,-1.7309,-1.7309,-1.7309,-1.7309,-1.7309,-1.7309,-1.7251,-1.7163,-1.7157,-1.7106,-1.7011,-1.6974,-1.696,-1.6974,-1.6982,-1.6945,-1.6974,-1.6982,-1.6982,-1.6982,-1.6534,-1.6205,-1.6021,-1.5795,-1.5628,-1.5412,-1.5297,-1.5127,-1.4832,-1.476,-1.4404,-1.4249,-1.3613,-1.3572,-1.3372,-1.3345,-1.3413,-1.3976,-1.3498,-1.3243,-2.6618,-2.6618,-2.6618,-2.6618,-2.6618,-2.6618,-2.6618,-2.6618,-2.6618,-2.6618,-2.6618,-2.6618,-2.6618,-2.6618,-2.6618,-2.6316,-2.5829,-2.5792,-2.5687,-2.5519,-2.5528,-2.5287,-2.4933,-2.4703,-2.4395,-2.4096,-2.3824,-2.3554,-2.3314,-2.3066,-2.2903,-2.2774,-2.2749,-2.2714,-2.262,-2.2628,-2.2628,-2.2628,-2.2628,-2.2628,-2.2628,-2.2628,-2.2628,-2.2603,-2.2628,-2.2491,-2.2209,-2.2175,-2.1996,-2.1662,-2.1602,-2.143,-2.1071,-2.0717,-2.048,-2.0472,-2.0383,-2.0178,-1.9897,-1.9828,-1.96,-1.9119,-1.905,-1.9004,-1.885,-1.8804,-1.8804,-1.8804,-1.8804,-1.862,-1.8156,-1.7753,-1.7496,-1.7356,-1.7309,-1.7309,-1.7309,-1.7309,-1.7309,-1.7309,-1.7309,-1.7309,-1.7309,-1.7302,-1.7288,-1.7309,-1.7309,-1.7309,-1.7309,-1.7309,-1.7309,-1.7309,-1.7266,-1.7244,-1.7214,-1.6899,-1.6746,-1.6588,-1.634,-1.6192,-1.6022,-1.5919,-1.5736,-1.5485,-1.5082,-1.4661,-1.4071,-1.3349,-1.2978,-1.2751,-1.2468,-1.24,-1.2592,-1.2613,-1.2357,-2.6618,-2.6618,-2.6618,-2.6618,-2.6618,-2.6618,-2.6618,-2.6618,-2.6618,-2.6618,-2.6618,-2.6618,-2.6618,-2.6618,-2.6618,-2.6582,-2.6508,-2.6481,-2.6463,-2.6463,-2.649,-2.6154,-2.563,-2.5531,-2.5014,-2.4236,-2.3858,-2.3726,-2.3699,-2.3614,-2.3417,-2.316,-2.3091,-2.2997,-2.2645,-2.2688,-2.2637,-2.2637,-2.2628,-2.2603,-2.2628,-2.2628,-2.2628,-2.2628,-2.2628,-2.2585,-2.256,-2.2568,-2.2388,-2.2072,-2.1996,-2.1816,-2.1439,-2.1071,-2.0897,-2.0846,-2.0554,-2.0335,-2.0295,-2.0263,-2.0011,-1.9691,-1.96,-1.9417,-1.9081,-1.8966,-1.8966,-1.8989,-1.8943,-1.8704,-1.8342,-1.8195,-1.7909,-1.7396,-1.7309,-1.7309,-1.7309,-1.7309,-1.7309,-1.7309,-1.7309,-1.7309,-1.7309,-1.7309,-1.7309,-1.7309,-1.7309,-1.7309,-1.7309,-1.7309,-1.7309,-1.7309,-1.7309,-1.7309,-1.7309,-1.7295,-1.728,-1.7206,-1.6958,-1.6759,-1.6563,-1.6407,-1.6252,-1.5931,-1.4789,-1.4304,-1.3275,-1.2642,-1.2459,-1.2203,-1.1816,-1.15,-1.1743,-1.1863,-1.144,-2.6618,-2.6618,-2.6618,-2.6618,-2.6618,-2.6618,-2.6618,-2.6618,-2.6618,-2.6618,-2.6618,-2.6618,-2.6618,-2.6618,-2.6618,-2.6618,-2.6618,-2.6618,-2.6618,-2.6618,-2.6618,-2.6491,-2.6263,-2.6046,-2.5575,-2.4919,-2.453,-2.4256,-2.4052,-2.3837,-2.3623,-2.3529,-2.3485,-2.346,-2.3332,-2.3083,-2.2946,-2.2937,-2.2697,-2.2603,-2.2628,-2.2603,-2.2603,-2.2628,-2.2628,-2.2628,-2.2628,-2.2628,-2.2542,-2.2389,-2.2431,-2.2226,-2.1857,-2.1448,-2.1251,-2.1199,-2.09,-2.0717,-2.0683,-2.0446,-2.0263,-2.011,-2.0087,-2.0011,-1.9851,-1.9791,-1.9783,-1.9814,-1.9814,-1.9646,-1.9256,-1.9134,-1.8573,-1.7419,-1.7309,-1.7356,-1.7356,-1.7309,-1.7309,-1.7309,-1.7309,-1.7309,-1.7309,-1.7309,-1.7309,-1.7309,-1.7309,-1.7309,-1.7309,-1.7309,-1.7309,-1.7309,-1.7309,-1.7309,-1.7309,-1.7309,-1.7309,-1.7309,-1.7194,-1.7077,-1.694,-1.6826,-1.6669,-1.5925,-1.4815,-1.3778,-1.2708,-1.2095,-1.195,-1.1453,-1.0908,-1.0956,-1.13,-1.1078,-1.0596,-2.6829,-2.6793,-2.6646,-2.6618,-2.6618,-2.6618,-2.6618,-2.6618,-2.6618,-2.6618,-2.6618,-2.6618,-2.6618,-2.6618,-2.6618,-2.6618,-2.6618,-2.6618,-2.6618,-2.6618,-2.6618,-2.6618,-2.6564,-2.6236,-2.5926,-2.5552,-2.5212,-2.4889,-2.4555,-2.4367,-2.4115,-2.3923,-2.3897,-2.382,-2.3709,-2.3468,-2.3323,-2.3314,-2.3109,-2.2946,-2.2809,-2.2783,-2.274,-2.2628,-2.2628,-2.2628,-2.2628,-2.2628,-2.2628,-2.2628,-2.2628,-2.2449,-2.2217,-2.1874,-2.1627,-2.1559,-2.1302,-2.1079,-2.1037,-2.0728,-2.0506,-2.0512,-2.0392,-2.0292,-2.0292,-2.0292,-2.0292,-2.0292,-2.0269,-2.011,-1.9691,-1.9592,-1.9019,-1.8009,-1.7893,-1.7776,-1.7629,-1.7396,-1.7302,-1.7309,-1.7309,-1.7309,-1.7309,-1.7309,-1.7309,-1.7309,-1.7309,-1.7309,-1.7309,-1.7309,-1.7309,-1.7309,-1.7309,-1.7309,-1.7309,-1.7309,-1.7309,-1.7309,-1.728,-1.7236,-1.7168,-1.7114,-1.6977,-1.5722,-1.4564,-1.3685,-1.2669,-1.1861,-1.1419,-1.0746,-1.0237,-1.0031,-1.0133,-0.9928,-0.9549,-2.7233,-2.7187,-2.6848,-2.671,-2.6683,-2.6655,-2.6664,-2.6618,-2.6618,-2.6618,-2.6618,-2.6618,-2.6618,-2.6618,-2.6618,-2.6618,-2.6618,-2.6618,-2.6618,-2.6618,-2.6618,-2.6618,-2.6555,-2.6327,-2.6127,-2.6008,-2.5789,-2.5506,-2.5096,-2.5061,-2.4873,-2.4317,-2.4229,-2.4092,-2.3905,-2.3759,-2.3717,-2.3717,-2.3666,-2.3425,-2.3151,-2.3151,-2.2963,-2.2688,-2.2671,-2.2654,-2.2628,-2.2628,-2.2628,-2.2628,-2.2628,-2.2585,-2.2525,-2.2234,-2.2021,-2.2004,-2.1653,-2.1482,-2.1371,-2.1105,-2.0923,-2.0906,-2.0657,-2.0357,-2.0417,-2.0426,-2.0383,-2.03,-2.0292,-2.0124,-1.9783,-1.9691,-1.9394,-1.9012,-1.8643,-1.8388,-1.8087,-1.7606,-1.7356,-1.7309,-1.7309,-1.7309,-1.7309,-1.7309,-1.7309,-1.7309,-1.7309,-1.7309,-1.7309,-1.7309,-1.7309,-1.7309,-1.7309,-1.7309,-1.7309,-1.7309,-1.7309,-1.7309,-1.7286,-1.7286,-1.7169,-1.7068,-1.6739,-1.5507,-1.4358,-1.3488,-1.26,-1.1709,-1.1105,-1.0716,-1.0063,-0.9279,-0.9046,-0.9152,-0.9099,-2.7637,-2.7628,-2.7527,-2.7316,-2.7068,-2.705,-2.6857,-2.6637,-2.6628,-2.6646,-2.6618,-2.6618,-2.6618,-2.6618,-2.6618,-2.6618,-2.6618,-2.6618,-2.6618,-2.6618,-2.6618,-2.6618,-2.6582,-2.65,-2.6327,-2.6127,-2.6017,-2.5725,-2.5248,-2.5248,-2.5039,-2.4648,-2.4633,-2.4579,-2.4477,-2.4195,-2.4075,-2.4006,-2.382,-2.3683,-2.358,-2.3546,-2.3357,-2.3006,-2.2963,-2.2843,-2.2637,-2.2628,-2.2628,-2.2628,-2.2628,-2.2628,-2.2594,-2.2491,-2.2397,-2.2337,-2.2089,-2.1841,-2.1764,-2.1482,-2.1285,-2.1276,-2.1122,-2.1002,-2.076,-2.0752,-2.0606,-2.0417,-2.0292,-2.0255,-2.0133,-2.0065,-1.9973,-1.9814,-1.8942,-1.8288,-1.8079,-1.7637,-1.7309,-1.7309,-1.7309,-1.7309,-1.7309,-1.7309,-1.7309,-1.7309,-1.7309,-1.7309,-1.7309,-1.7309,-1.7309,-1.7309,-1.7309,-1.7309,-1.7309,-1.7309,-1.7309,-1.7309,-1.7286,-1.7239,-1.6974,-1.6692,-1.6119,-1.5211,-1.4058,-1.3095,-1.2204,-1.1337,-1.0958,-1.0674,-0.9999,-0.9286,-0.9241,-0.9254,-0.9077,-2.8059,-2.8041,-2.7867,-2.7665,-2.7463,-2.7454,-2.7316,-2.7077,-2.693,-2.6866,-2.6802,-2.6655,-2.6618,-2.6618,-2.6618,-2.6618,-2.6618,-2.6618,-2.6618,-2.6618,-2.6618,-2.6618,-2.6582,-2.6482,-2.6354,-2.63,-2.6181,-2.5935,-2.5651,-2.5587,-2.534,-2.5036,-2.497,-2.4923,-2.475,-2.4597,-2.4451,-2.4417,-2.4247,-2.4093,-2.3922,-2.3905,-2.3691,-2.3425,-2.3331,-2.3194,-2.2869,-2.2688,-2.2628,-2.2628,-2.2628,-2.2628,-2.2628,-2.2628,-2.2628,-2.2585,-2.2363,-2.2252,-2.2183,-2.19,-2.167,-2.1619,-2.1509,-2.1328,-2.1148,-2.1097,-2.0942,-2.064,-2.0572,-2.0363,-2.0022,-1.9837,-1.97,-1.9469,-1.8761,-1.8233,-1.8365,-1.7722,-1.738,-1.7309,-1.7309,-1.7309,-1.7302,-1.7295,-1.7302,-1.7309,-1.7309,-1.7309,-1.7309,-1.7309,-1.7309,-1.7309,-1.7309,-1.7309,-1.7309,-1.7309,-1.7216,-1.7216,-1.681,-1.6833,-1.645,-1.6048,-1.5337,-1.4519,-1.3589,-1.2772,-1.2049,-1.137,-1.0906,-1.0509,-0.9859,-0.9506,-0.9408,-0.9347,-0.9172,-2.8462,-2.8425,-2.8078,-2.7894,-2.7867,-2.7858,-2.7802,-2.7701,-2.7399,-2.727,-2.7206,-2.6903,-2.6811,-2.6655,-2.6756,-2.6673,-2.6618,-2.6618,-2.6618,-2.6618,-2.6618,-2.6618,-2.6591,-2.6391,-2.6336,-2.6391,-2.6218,-2.6044,-2.5844,-2.5871,-2.5679,-2.5266,-2.5146,-2.5045,-2.4887,-2.4787,-2.4793,-2.475,-2.4727,-2.4528,-2.4314,-2.4254,-2.4066,-2.3776,-2.3632,-2.3512,-2.316,-2.2886,-2.2688,-2.2671,-2.262,-2.2628,-2.2628,-2.2628,-2.2628,-2.2628,-2.2568,-2.2551,-2.2542,-2.2234,-2.2047,-2.2004,-2.1747,-2.1499,-2.1499,-2.1473,-2.1319,-2.0983,-2.0934,-2.0615,-2.0012,-1.9384,-1.9167,-1.9073,-1.8625,-1.8466,-1.8464,-1.7863,-1.7254,-1.7207,-1.7193,-1.7207,-1.7207,-1.7207,-1.7177,-1.715,-1.7194,-1.723,-1.7251,-1.7309,-1.7309,-1.7309,-1.7309,-1.7309,-1.7309,-1.7309,-1.7162,-1.7021,-1.6339,-1.6001,-1.5527,-1.5051,-1.4406,-1.3709,-1.3281,-1.2851,-1.2341,-1.1707,-1.1076,-1.0547,-1.0073,-0.9717,-0.9441,-0.9461,-0.9332,-2.8856,-2.8856,-2.8794,-2.8573,-2.8316,-2.8289,-2.8115,-2.7812,-2.772,-2.7665,-2.7646,-2.7555,-2.7343,-2.7077,-2.7068,-2.6894,-2.6692,-2.6664,-2.6618,-2.6618,-2.6618,-2.6618,-2.6591,-2.65,-2.6391,-2.6272,-2.6154,-2.5871,-2.556,-2.5532,-2.5358,-2.5229,-2.5045,-2.497,-2.5072,-2.4868,-2.4821,-2.4821,-2.4821,-2.4759,-2.4682,-2.4622,-2.4451,-2.4127,-2.3845,-2.3692,-2.3528,-2.3203,-2.3006,-2.2946,-2.2757,-2.2645,-2.2636,-2.2628,-2.2628,-2.2628,-2.2628,-2.2628,-2.2585,-2.2517,-2.2449,-2.2422,-2.2303,-2.2209,-2.1893,-2.1876,-2.1687,-2.1396,-2.1285,-2.106,-2.0558,-2.0085,-1.9596,-1.9216,-1.8626,-1.8172,-1.8118,-1.7546,-1.7019,-1.6742,-1.6638,-1.6602,-1.6616,-1.6645,-1.6726,-1.6917,-1.7027,-1.71,-1.7179,-1.7251,-1.728,-1.7273,-1.7309,-1.7286,-1.7255,-1.7162,-1.688,-1.6544,-1.5859,-1.5289,-1.4813,-1.4334,-1.3806,-1.3498,-1.3268,-1.2832,-1.2467,-1.1834,-1.1174,-1.0728,-1.031,-0.9894,-0.9588,-0.9567,-0.9514,-2.8984,-2.8984,-2.8984,-2.8865,-2.872,-2.8663,-2.8544,-2.8353,-2.816,-2.8087,-2.8041,-2.7903,-2.7674,-2.749,-2.7472,-2.7353,-2.716,-2.6958,-2.6756,-2.6664,-2.6618,-2.6618,-2.6618,-2.6618,-2.6473,-2.63,-2.6017,-2.5761,-2.5651,-2.5477,-2.5386,-2.5221,-2.5045,-2.4998,-2.4989,-2.4868,-2.4821,-2.4821,-2.4821,-2.4821,-2.4821,-2.4821,-2.4733,-2.446,-2.4153,-2.3939,-2.3913,-2.3571,-2.3434,-2.3306,-2.304,-2.2749,-2.2645,-2.2628,-2.2628,-2.2628,-2.2628,-2.2628,-2.2628,-2.2628,-2.2594,-2.2628,-2.2628,-2.2491,-2.2329,-2.2286,-2.2073,-2.1799,-2.1629,-2.1469,-2.0858,-2.0013,-1.9542,-1.9121,-1.852,-1.7964,-1.759,-1.7191,-1.6892,-1.6632,-1.6536,-1.6455,-1.6396,-1.6345,-1.6404,-1.6638,-1.6653,-1.6741,-1.7005,-1.7085,-1.7178,-1.7222,-1.728,-1.7286,-1.7209,-1.6998,-1.6574,-1.6025,-1.5259,-1.4741,-1.4238,-1.3811,-1.3353,-1.3165,-1.3026,-1.2953,-1.2565,-1.1907,-1.1394,-1.0998,-1.058,-1.0043,-0.9715,-0.9616,-0.9575,-2.8984,-2.8984,-2.8984,-2.8984,-2.8984,-2.8975,-2.8948,-2.8931,-2.8627,-2.848,-2.8434,-2.8115,-2.8041,-2.7903,-2.7894,-2.7867,-2.7683,-2.7463,-2.7151,-2.6949,-2.6811,-2.6784,-2.6747,-2.6655,-2.6591,-2.6527,-2.6072,-2.5898,-2.588,-2.577,-2.545,-2.5284,-2.5146,-2.5045,-2.4896,-2.4821,-2.4821,-2.4821,-2.4821,-2.4821,-2.4821,-2.4821,-2.4776,-2.4691,-2.4485,-2.4306,-2.4256,-2.3982,-2.3777,-2.3752,-2.3391,-2.3057,-2.2843,-2.262,-2.2628,-2.2628,-2.2628,-2.2628,-2.2628,-2.2628,-2.2628,-2.2628,-2.2628,-2.2628,-2.2577,-2.2542,-2.238,-2.2234,-2.2047,-2.1804,-2.0947,-2.011,-1.9377,-1.888,-1.8439,-1.7768,-1.7222,-1.7005,-1.6939,-1.6734,-1.6514,-1.6389,-1.6301,-1.6243,-1.6287,-1.6316,-1.6331,-1.6418,-1.6683,-1.6866,-1.6961,-1.7084,-1.7128,-1.6947,-1.6852,-1.6685,-1.6285,-1.5456,-1.4693,-1.4214,-1.3739,-1.3383,-1.3044,-1.2953,-1.2832,-1.2783,-1.2662,-1.2175,-1.1712,-1.1316,-1.0801,-1.024,-0.9895,-0.9677,-0.9612,-2.8984,-2.8984,-2.8984,-2.8984,-2.8984,-2.8984,-2.8984,-2.9005,-2.8893,-2.8883,-2.8856,-2.8792,-2.8573,-2.837,-2.8287,-2.8142,-2.7885,-2.772,-2.7628,-2.7454,-2.7261,-2.7105,-2.7059,-2.6848,-2.6701,-2.65,-2.6236,-2.6035,-2.577,-2.545,-2.5395,-2.5431,-2.5109,-2.4923,-2.4998,-2.4951,-2.4821,-2.4821,-2.4821,-2.4821,-2.4821,-2.4821,-2.4821,-2.4793,-2.4674,-2.4648,-2.4588,-2.4323,-2.4109,-2.4075,-2.3768,-2.3597,-2.3401,-2.2972,-2.2705,-2.2645,-2.2611,-2.2628,-2.2628,-2.2628,-2.2628,-2.2628,-2.2628,-2.2628,-2.2628,-2.2628,-2.2542,-2.2517,-2.2439,-2.2262,-2.183,-2.0801,-2.013,-1.9608,-1.8894,-1.8163,-1.7741,-1.7421,-1.7106,-1.6829,-1.6572,-1.6338,-1.6265,-1.6162,-1.6096,-1.6067,-1.6016,-1.614,-1.6396,-1.6551,-1.6616,-1.677,-1.6954,-1.6659,-1.6401,-1.6217,-1.5883,-1.4908,-1.4172,-1.3721,-1.3311,-1.3026,-1.2813,-1.2783,-1.2783,-1.2783,-1.2589,-1.2322,-1.1951,-1.1536,-1.0973,-1.0384,-1.0019,-0.9723,-0.9628,-2.8984,-2.8984,-2.8984,-2.8984,-2.8984,-2.8984,-2.8984,-2.8984,-2.8984,-2.8984,-2.8984,-2.8975,-2.8893,-2.8737,-2.8691,-2.85,-2.8206,-2.8115,-2.8004,-2.7793,-2.76,-2.7509,-2.75,-2.7279,-2.7105,-2.693,-2.6719,-2.6362,-2.5889,-2.5422,-2.5367,-2.5293,-2.5006,-2.4876,-2.4951,-2.4868,-2.4821,-2.4821,-2.4821,-2.4821,-2.4821,-2.4821,-2.4821,-2.4821,-2.4821,-2.4821,-2.4759,-2.4656,-2.4511,-2.4443,-2.4162,-2.3999,-2.3794,-2.3503,-2.3083,-2.2894,-2.2731,-2.2611,-2.2603,-2.2628,-2.2628,-2.2628,-2.2628,-2.2628,-2.2628,-2.2628,-2.2628,-2.2628,-2.2603,-2.2534,-2.2295,-2.1511,-2.1013,-2.0498,-1.9611,-1.8874,-1.8465,-1.8063,-1.7592,-1.7092,-1.6748,-1.6514,-1.6257,-1.614,-1.5965,-1.5833,-1.5746,-1.5913,-1.614,-1.6191,-1.6265,-1.6402,-1.6546,-1.6385,-1.5964,-1.5591,-1.53,-1.4399,-1.3739,-1.3292,-1.305,-1.2861,-1.2813,-1.2783,-1.2783,-1.2783,-1.2735,-1.254,-1.2146,-1.1756,-1.1218,-1.0679,-1.0138,-0.9797,-0.9673,-2.8984,-2.8984,-2.8984,-2.8984,-2.8984,-2.8984,-2.8984,-2.8984,-2.8984,-2.8984,-2.8984,-2.8984,-2.8984,-2.8975,-2.8938,-2.8792,-2.8517,-2.8517,-2.8372,-2.8151,-2.7977,-2.7922,-2.7913,-2.7784,-2.7591,-2.7362,-2.7288,-2.692,-2.6226,-2.5706,-2.5422,-2.5312,-2.5053,-2.4849,-2.4812,-2.4821,-2.4821,-2.4821,-2.4821,-2.4821,-2.4821,-2.4821,-2.4821,-2.4821,-2.4821,-2.4821,-2.4785,-2.4759,-2.475,-2.4682,-2.4511,-2.4323,-2.429,-2.3982,-2.3648,-2.3331,-2.2946,-2.2732,-2.268,-2.2611,-2.2628,-2.2628,-2.2628,-2.2628,-2.2628,-2.2628,-2.2628,-2.2628,-2.2603,-2.2594,-2.2467,-2.2013,-2.1627,-2.117,-2.0364,-1.9542,-1.9101,-1.8676,-1.8223,-1.7677,-1.7099,-1.6777,-1.6602,-1.6418,-1.6331,-1.603,-1.5935,-1.5797,-1.5987,-1.5833,-1.5885,-1.6016,-1.6084,-1.6023,-1.5587,-1.4884,-1.4482,-1.3832,-1.3363,-1.2977,-1.288,-1.2807,-1.2783,-1.2783,-1.2783,-1.2783,-1.2783,-1.2759,-1.2467,-1.2049,-1.1512,-1.1022,-1.058,-1.0019,-0.9649,-2.8984,-2.8984,-2.8984,-2.8984,-2.8984,-2.8984,-2.8984,-2.8984,-2.8984,-2.8984,-2.8984,-2.8984,-2.8984,-2.8984,-2.8984,-2.8977,-2.8902,-2.8856,-2.8792,-2.8674,-2.8472,-2.8344,-2.8289,-2.794,-2.7885,-2.7747,-2.7729,-2.7279,-2.6701,-2.6225,-2.5888,-2.5677,-2.5354,-2.5045,-2.4868,-2.4821,-2.4821,-2.4821,-2.4821,-2.4821,-2.4821,-2.4821,-2.4821,-2.4821,-2.4821,-2.4821,-2.4821,-2.4821,-2.4821,-2.4812,-2.4759,-2.4716,-2.4656,-2.4357,-2.4169,-2.3878,-2.3485,-2.304,-2.3006,-2.2817,-2.2671,-2.2671,-2.262,-2.2603,-2.2628,-2.2628,-2.2628,-2.2628,-2.2628,-2.2628,-2.2527,-2.2055,-2.1768,-2.1372,-2.0758,-2.0058,-1.9598,-1.9061,-1.8627,-1.8364,-1.7808,-1.7386,-1.7108,-1.6903,-1.6697,-1.6374,-1.6118,-1.5979,-1.5804,-1.5673,-1.5353,-1.5433,-1.5505,-1.5457,-1.5048,-1.4362,-1.3934,-1.3314,-1.3011,-1.2729,-1.2729,-1.2724,-1.2783,-1.2783,-1.2783,-1.2783,-1.2783,-1.2759,-1.2686,-1.2273,-1.1634,-1.134,-1.1145,-1.0482,-0.9649,-2.8984,-2.8984,-2.8984,-2.8984,-2.8984,-2.8984,-2.8984,-2.8984,-2.8984,-2.8984,-2.8984,-2.8984,-2.8984,-2.8984,-2.8984,-2.8984,-2.8984,-2.8984,-2.8984,-2.8984,-2.883,-2.8748,-2.872,-2.8564,-2.8417,-2.816,-2.8096,-2.7876,-2.7314,-2.6944,-2.6638,-2.6238,-2.5831,-2.5383,-2.5093,-2.4885,-2.4821,-2.4821,-2.4821,-2.4821,-2.4821,-2.4821,-2.4821,-2.4821,-2.4821,-2.4821,-2.4821,-2.4821,-2.4821,-2.4821,-2.4821,-2.4821,-2.4768,-2.4631,-2.4528,-2.4485,-2.4041,-2.3656,-2.3443,-2.3083,-2.2929,-2.2809,-2.2714,-2.2603,-2.2628,-2.2628,-2.2628,-2.2628,-2.2628,-2.2628,-2.2603,-2.2358,-2.2266,-2.1911,-2.1165,-2.0684,-2.0117,-1.9427,-1.8964,-1.8752,-1.8533,-1.8096,-1.7664,-1.74,-1.7136,-1.6763,-1.6418,-1.6133,-1.5899,-1.5614,-1.519,-1.4725,-1.4809,-1.4881,-1.4346,-1.3767,-1.3564,-1.3113,-1.2763,-1.2588,-1.2605,-1.2638,-1.2702,-1.2767,-1.2783,-1.2783,-1.2783,-1.2764,-1.2716,-1.2248,-1.1731,-1.1414,-1.1071,-1.029,-0.9628,-2.8984,-2.8984,-2.8984,-2.8984,-2.8984,-2.8984,-2.8984,-2.8984,-2.8984,-2.8984,-2.8984,-2.8984,-2.8984,-2.8984,-2.8984,-2.8984,-2.8984,-2.8984,-2.8984,-2.8984,-2.8984,-2.8957,-2.892,-2.8931,-2.8812,-2.8535,-2.8535,-2.839,-2.8129,-2.782,-2.7486,-2.6884,-2.6508,-2.6009,-2.5567,-2.5278,-2.5115,-2.4821,-2.4821,-2.4821,-2.4821,-2.4821,-2.4821,-2.4821,-2.4821,-2.4821,-2.4821,-2.4821,-2.4821,-2.4821,-2.4821,-2.4821,-2.4785,-2.4759,-2.4733,-2.4691,-2.4408,-2.4229,-2.3939,-2.3597,-2.3254,-2.3032,-2.2826,-2.2628,-2.2628,-2.2628,-2.2628,-2.2628,-2.2628,-2.2628,-2.2603,-2.2569,-2.2518,-2.2215,-2.1674,-2.1275,-2.0773,-1.9943,-1.9302,-1.9045,-1.8855,-1.8716,-1.8338,-1.7962,-1.7596,-1.7188,-1.6792,-1.6367,-1.5893,-1.5482,-1.4746,-1.4118,-1.3852,-1.3787,-1.3195,-1.2861,-1.2799,-1.2853,-1.2518,-1.2395,-1.2391,-1.2479,-1.2587,-1.2657,-1.274,-1.2783,-1.2783,-1.2764,-1.2691,-1.2395,-1.2005,-1.137,-1.0806,-1.0068,-0.9628,-2.8984,-2.8984,-2.8984,-2.8984,-2.8984,-2.8984,-2.8984,-2.8984,-2.8984,-2.8984,-2.8984,-2.8984,-2.8984,-2.8984,-2.8984,-2.8984,-2.8984,-2.8984,-2.8984,-2.8984,-2.8984,-2.8984,-2.8984,-2.8975,-2.8957,-2.8902,-2.8856,-2.8838,-2.8847,-2.8652,-2.8101,-2.7398,-2.7183,-2.6805,-2.6353,-2.5929,-2.5388,-2.504,-2.4879,-2.4827,-2.481,-2.4821,-2.4821,-2.4821,-2.4821,-2.4821,-2.4821,-2.4821,-2.4821,-2.4821,-2.4821,-2.4821,-2.4821,-2.4821,-2.4821,-2.4759,-2.4733,-2.4597,-2.4444,-2.3982,-2.3529,-2.3143,-2.286,-2.268,-2.2697,-2.2611,-2.2594,-2.2534,-2.2491,-2.2525,-2.2551,-2.2628,-2.2594,-2.2256,-2.1761,-2.1256,-2.0756,-2.0243,-1.9671,-1.9369,-1.914,-1.8928,-1.8538,-1.8056,-1.7974,-1.7607,-1.6807,-1.6336,-1.5591,-1.5043,-1.4165,-1.3461,-1.2939,-1.2504,-1.1809,-1.1701,-1.2048,-1.2215,-1.2094,-1.2067,-1.2121,-1.226,-1.2425,-1.2538,-1.2597,-1.2708,-1.2783,-1.2764,-1.274,-1.2643,-1.2273,-1.1565,-1.083,-1.0117,-0.9752,-2.8984,-2.8984,-2.8984,-2.8984,-2.8984,-2.8984,-2.8984,-2.8984,-2.8984,-2.8984,-2.8984,-2.8984,-2.8984,-2.8984,-2.8984,-2.8984,-2.8984,-2.8984,-2.8984,-2.8984,-2.8984,-2.8984,-2.8984,-2.8984,-2.8984,-2.8984,-2.8984,-2.8984,-2.8957,-2.8984,-2.8845,-2.8359,-2.7882,-2.7429,-2.6953,-2.6476,-2.5856,-2.5371,-2.5129,-2.5078,-2.481,-2.4821,-2.4821,-2.4821,-2.4821,-2.4821,-2.4821,-2.4821,-2.4821,-2.4821,-2.4821,-2.4821,-2.4821,-2.4821,-2.4821,-2.4821,-2.4821,-2.4821,-2.4725,-2.4307,-2.3862,-2.3503,-2.316,-2.2895,-2.2877,-2.256,-2.2294,-2.2226,-2.226,-2.2286,-2.2252,-2.2414,-2.2509,-2.217,-2.1745,-2.1211,-2.0708,-2.0218,-1.9782,-1.9409,-1.9173,-1.8977,-1.8508,-1.803,-1.8053,-1.7959,-1.7111,-1.6246,-1.5463,-1.463,-1.3737,-1.3092,-1.26,-1.2108,-1.1456,-1.1407,-1.1477,-1.1569,-1.1693,-1.1763,-1.1872,-1.2078,-1.2233,-1.2363,-1.2474,-1.256,-1.267,-1.2751,-1.2759,-1.271,-1.2273,-1.1634,-1.09,-1.0216,-0.992,-2.8984,-2.8984,-2.8984,-2.8984,-2.8984,-2.8984,-2.8984,-2.8984,-2.8984,-2.8984,-2.8984,-2.8984,-2.8984,-2.8984,-2.8984,-2.8984,-2.8984,-2.8984,-2.8984,-2.8984,-2.8984,-2.8984,-2.8984,-2.8984,-2.8984,-2.8984,-2.8984,-2.8984,-2.8984,-2.8984,-2.8938,-2.8719,-2.8414,-2.7948,-2.7602,-2.6908,-2.6284,-2.5846,-2.5563,-2.5474,-2.5161,-2.5061,-2.5009,-2.4975,-2.4907,-2.4821,-2.4821,-2.4821,-2.4821,-2.4821,-2.4821,-2.4821,-2.4821,-2.4821,-2.4821,-2.4821,-2.4821,-2.4821,-2.4699,-2.4425,-2.4092,-2.3828,-2.3494,-2.3323,-2.3126,-2.2698,-2.2526,-2.2407,-2.2235,-2.2004,-2.2004,-2.2123,-2.2089,-2.1751,-2.1612,-2.1171,-2.0677,-2.0195,-1.9821,-1.9441,-1.9236,-1.8971,-1.8229,-1.7673,-1.7183,-1.7171,-1.6686,-1.5898,-1.5228,-1.4339,-1.3351,-1.2794,-1.2407,-1.1886,-1.1413,-1.1402,-1.1391,-1.1418,-1.1504,-1.1531,-1.1655,-1.1856,-1.1974,-1.2043,-1.2194,-1.2393,-1.2511,-1.2581,-1.2697,-1.2778,-1.2268,-1.1707,-1.1365,-1.0732,-1.0191,-2.8984,-2.8984,-2.8984,-2.8984,-2.8984,-2.8984,-2.8984,-2.8984,-2.8984,-2.8984,-2.8984,-2.8984,-2.8984,-2.8984,-2.8984,-2.8984,-2.8984,-2.8984,-2.8984,-2.8984,-2.8984,-2.8984,-2.8984,-2.8984,-2.8984,-2.8984,-2.8984,-2.8984,-2.8984,-2.8984,-2.8984,-2.8895,-2.8605,-2.8292,-2.8328,-2.7473,-2.6801,-2.6374,-2.6041,-2.5874,-2.57,-2.5489,-2.5386,-2.5215,-2.5052,-2.4941,-2.4802,-2.483,-2.4821,-2.4821,-2.4821,-2.4821,-2.4821,-2.4821,-2.4821,-2.4821,-2.4821,-2.4821,-2.4768,-2.4408,-2.4254,-2.4187,-2.3879,-2.3682,-2.3605,-2.3297,-2.2886,-2.2672,-2.2407,-2.2081,-2.191,-2.1756,-2.1653,-2.1492,-2.1355,-2.0821,-2.0289,-2.0028,-1.9634,-1.9035,-1.906,-1.8945,-1.8068,-1.7246,-1.6477,-1.6132,-1.5979,-1.5512,-1.4921,-1.4051,-1.306,-1.2671,-1.2316,-1.1877,-1.1494,-1.1359,-1.13,-1.1311,-1.1332,-1.1386,-1.1456,-1.1602,-1.1698,-1.1763,-1.1925,-1.2134,-1.2291,-1.2402,-1.2565,-1.2681,-1.2311,-1.1858,-1.159,-1.1169,-1.0507,-2.8984,-2.8984,-2.8984,-2.8984,-2.8984,-2.8984,-2.8984,-2.8984,-2.8984,-2.8984,-2.8984,-2.8984,-2.8984,-2.8984,-2.8984,-2.8984,-2.8984,-2.8984,-2.8984,-2.8984,-2.8984,-2.8984,-2.8984,-2.8984,-2.8984,-2.8984,-2.8984,-2.8984,-2.8984,-2.8984,-2.8984,-2.8895,-2.8627,-2.8259,-2.7894,-2.7368,-2.7078,-2.6539,-2.6306,-2.6199,-2.5939,-2.5785,-2.5643,-2.5457,-2.5303,-2.5086,-2.4853,-2.4881,-2.4855,-2.483,-2.4821,-2.4821,-2.4821,-2.4821,-2.4821,-2.4821,-2.4821,-2.4821,-2.4812,-2.4639,-2.4605,-2.4487,-2.4282,-2.405,-2.3981,-2.3416,-2.3083,-2.286,-2.2637,-2.232,-2.2013,-2.1936,-2.179,-2.1439,-2.104,-2.01,-1.9526,-1.9518,-1.9249,-1.852,-1.8223,-1.8005,-1.7377,-1.6499,-1.5725,-1.5392,-1.5251,-1.5158,-1.4685,-1.3774,-1.2855,-1.2601,-1.2297,-1.189,-1.1569,-1.1461,-1.1327,-1.1311,-1.1311,-1.1332,-1.1375,-1.144,-1.152,-1.1661,-1.1768,-1.1904,-1.207,-1.2269,-1.2511,-1.2536,-1.2244,-1.1828,-1.1409,-1.1017,-1.0556,-2.8984,-2.8984,-2.8984,-2.8984,-2.8984,-2.8984,-2.8984,-2.8984,-2.8984,-2.8984,-2.8984,-2.8984,-2.8984,-2.8984,-2.8984,-2.8984,-2.8984,-2.8984,-2.8984,-2.8984,-2.8984,-2.8984,-2.8984,-2.8984,-2.8984,-2.8984,-2.8984,-2.8984,-2.8984,-2.8984,-2.8925,-2.8785,-2.8606,-2.8229,-2.7822,-2.755,-2.7301,-2.6913,-2.6781,-2.661,-2.6375,-2.6217,-2.602,-2.5823,-2.5626,-2.5412,-2.5138,-2.4992,-2.4941,-2.4881,-2.483,-2.483,-2.4821,-2.4821,-2.4821,-2.4821,-2.4821,-2.4821,-2.4812,-2.4785,-2.4742,-2.4761,-2.4528,-2.4434,-2.4323,-2.3878,-2.3562,-2.3263,-2.2946,-2.2553,-2.2254,-2.2177,-2.1834,-2.1483,-2.0921,-1.9994,-1.9201,-1.9209,-1.8538,-1.7795,-1.7367,-1.7075,-1.667,-1.5719,-1.4883,-1.4704,-1.4547,-1.4481,-1.4447,-1.3701,-1.2988,-1.2762,-1.2526,-1.2206,-1.1881,-1.1612,-1.1466,-1.131,-1.1289,-1.1289,-1.1294,-1.1359,-1.1456,-1.1515,-1.1563,-1.166,-1.1915,-1.2131,-1.2346,-1.2442,-1.2337,-1.1864,-1.1278,-1.0861,-1.0527,-2.8984,-2.8984,-2.8984,-2.8984,-2.8984,-2.8984,-2.8984,-2.8984,-2.8984,-2.8984,-2.8984,-2.8984,-2.8984,-2.8984,-2.8984,-2.8984,-2.8984,-2.8984,-2.8984,-2.8984,-2.8984,-2.8984,-2.8984,-2.8984,-2.8984,-2.8984,-2.8984,-2.8984,-2.8984,-2.8984,-2.8845,-2.8636,-2.8546,-2.8298,-2.802,-2.7663,-2.7486,-2.7275,-2.7086,-2.6932,-2.679,-2.6674,-2.6448,-2.6259,-2.6062,-2.5763,-2.5497,-2.5346,-2.5146,-2.4992,-2.4855,-2.483,-2.4821,-2.4821,-2.4821,-2.4821,-2.4821,-2.4821,-2.4821,-2.4821,-2.4821,-2.4821,-2.4768,-2.4768,-2.4648,-2.434,-2.4066,-2.3819,-2.3528,-2.2971,-2.2562,-2.2205,-2.1855,-2.1488,-2.1137,-2.0233,-1.928,-1.8604,-1.7727,-1.7128,-1.6801,-1.6447,-1.595,-1.5109,-1.4393,-1.433,-1.4259,-1.4286,-1.4226,-1.4037,-1.3427,-1.3163,-1.2918,-1.2605,-1.2298,-1.1973,-1.1725,-1.1601,-1.1332,-1.1289,-1.1289,-1.1294,-1.1364,-1.1386,-1.1321,-1.1455,-1.1758,-1.1974,-1.2136,-1.2194,-1.2278,-1.2045,-1.1502,-1.097,-1.0513,-2.8984,-2.8984,-2.8984,-2.8984,-2.8984,-2.8984,-2.8984,-2.8984,-2.8984,-2.8984,-2.8984,-2.8984,-2.8984,-2.8984,-2.8984,-2.8984,-2.8984,-2.8984,-2.8984,-2.8984,-2.8984,-2.8984,-2.8984,-2.8984,-2.8984,-2.8984,-2.8984,-2.8984,-2.8984,-2.8984,-2.8984,-2.8865,-2.8636,-2.8457,-2.8208,-2.7801,-2.7642,-2.7431,-2.7267,-2.7133,-2.7112,-2.6957,-2.6769,-2.6542,-2.6439,-2.6122,-2.5848,-2.5577,-2.538,-2.5252,-2.4949,-2.4838,-2.4821,-2.4821,-2.4821,-2.4821,-2.4821,-2.4821,-2.4821,-2.4821,-2.4821,-2.4821,-2.4821,-2.4821,-2.475,-2.4656,-2.4477,-2.422,-2.3987,-2.3488,-2.2724,-2.222,-2.1643,-2.1063,-2.0655,-1.9966,-1.8967,-1.7979,-1.7086,-1.598,-1.5667,-1.5507,-1.5032,-1.4642,-1.4027,-1.4018,-1.4024,-1.4062,-1.4073,-1.3949,-1.3841,-1.3572,-1.3287,-1.2994,-1.2708,-1.2411,-1.2125,-1.1877,-1.1644,-1.1429,-1.1354,-1.1354,-1.1305,-1.1289,-1.1289,-1.1434,-1.1671,-1.1811,-1.1887,-1.2131,-1.221,-1.2009,-1.171,-1.1064,-1.0386,-2.8984,-2.8984,-2.8984,-2.8984,-2.8984,-2.8984,-2.8984,-2.8984,-2.8984,-2.8984,-2.8984,-2.8984,-2.8984,-2.8984,-2.8984,-2.8984,-2.8984,-2.8984,-2.8984,-2.8984,-2.8984,-2.8984,-2.8984,-2.8984,-2.8984,-2.8984,-2.8984,-2.8984,-2.8984,-2.8984,-2.8984,-2.8955,-2.8755,-2.8725,-2.8567,-2.8229,-2.7891,-2.762,-2.7358,-2.7164,-2.7112,-2.7112,-2.694,-2.6803,-2.6743,-2.6491,-2.6162,-2.5866,-2.5723,-2.5474,-2.5095,-2.4958,-2.4898,-2.4821,-2.4821,-2.4821,-2.4821,-2.4821,-2.4821,-2.4821,-2.4821,-2.4821,-2.4821,-2.4821,-2.4821,-2.4742,-2.4631,-2.4485,-2.4308,-2.3947,-2.3031,-2.2139,-2.1268,-2.0444,-1.9969,-1.9497,-1.8503,-1.7475,-1.6223,-1.4912,-1.446,-1.4358,-1.41,-1.3813,-1.3744,-1.3852,-1.3954,-1.4035,-1.4089,-1.4089,-1.4046,-1.3916,-1.3642,-1.3357,-1.3107,-1.2837,-1.253,-1.2276,-1.2075,-1.1848,-1.1601,-1.145,-1.1439,-1.138,-1.1289,-1.1423,-1.1542,-1.1542,-1.1617,-1.1865,-1.2087,-1.1993,-1.1568,-1.0826,-1.0095,-2.8984,-2.8984,-2.8984,-2.8984,-2.8984,-2.8984,-2.8984,-2.8984,-2.8984,-2.8984,-2.8984,-2.8984,-2.8984,-2.8984,-2.8984,-2.8984,-2.8984,-2.8984,-2.8984,-2.8984,-2.8984,-2.8984,-2.8984,-2.8984,-2.8984,-2.8984,-2.8984,-2.8984,-2.8984,-2.8984,-2.8984,-2.8984,-2.8955,-2.8925,-2.8836,-2.8537,-2.8199,-2.784,-2.7478,-2.7194,-2.7112,-2.7112,-2.7112,-2.7086,-2.7026,-2.6914,-2.661,-2.6379,-2.6182,-2.574,-2.5363,-2.5181,-2.4941,-2.4821,-2.4821,-2.4821,-2.4821,-2.4821,-2.4821,-2.4821,-2.4821,-2.4821,-2.4821,-2.459,-2.4479,-2.4738,-2.4708,-2.4682,-2.4522,-2.3538,-2.256,-2.2196,-2.1533,-2.0445,-1.9651,-1.892,-1.792,-1.6752,-1.5368,-1.4269,-1.3809,-1.3724,-1.3779,-1.3567,-1.3459,-1.3653,-1.3863,-1.3933,-1.404,-1.4105,-1.4148,-1.4137,-1.3949,-1.3701,-1.3545,-1.3285,-1.2915,-1.2667,-1.2463,-1.2151,-1.1822,-1.1688,-1.159,-1.1482,-1.1386,-1.1305,-1.1359,-1.1386,-1.1439,-1.159,-1.1795,-1.1941,-1.1476,-1.0661,-1.0036,-2.8984,-2.8984,-2.8984,-2.8984,-2.8984,-2.8984,-2.8984,-2.8984,-2.8984,-2.8984,-2.8984,-2.8984,-2.8984,-2.8984,-2.8984,-2.8984,-2.8984,-2.8984,-2.8984,-2.8984,-2.8984,-2.8984,-2.8984,-2.8984,-2.8984,-2.8984,-2.8984,-2.8984,-2.8984,-2.8984,-2.8984,-2.8984,-2.8984,-2.8984,-2.8984,-2.8696,-2.8397,-2.8059,-2.7749,-2.7366,-2.7164,-2.7112,-2.7112,-2.7112,-2.7077,-2.7069,-2.6816,-2.661,-2.6465,-2.622,-2.5646,-2.5252,-2.4855,-2.4838,-2.4821,-2.4821,-2.4821,-2.4821,-2.4821,-2.4821,-2.4821,-2.4765,-2.4646,-2.4128,-2.4044,-2.4498,-2.4701,-2.471,-2.4306,-2.3147,-2.2232,-2.2023,-2.151,-2.032,-1.9241,-1.8266,-1.7302,-1.5969,-1.4559,-1.3942,-1.3384,-1.3307,-1.3421,-1.3377,-1.3256,-1.3405,-1.3701,-1.3842,-1.3943,-1.4019,-1.4143,-1.4153,-1.4175,-1.4003,-1.3873,-1.369,-1.334,-1.2996,-1.2748,-1.2398,-1.2055,-1.186,-1.1731,-1.159,-1.1499,-1.1423,-1.1364,-1.13,-1.138,-1.145,-1.1558,-1.1725,-1.1244,-1.0468,-0.9966,-2.8984,-2.8984,-2.8984,-2.8984,-2.8984,-2.8984,-2.8984,-2.8984,-2.8984,-2.8984,-2.8984,-2.8984,-2.8984,-2.8984,-2.8984,-2.8984,-2.8984,-2.8984,-2.8984,-2.8984,-2.8984,-2.8984,-2.8984,-2.8984,-2.8984,-2.8984,-2.8984,-2.8984,-2.8984,-2.8984,-2.8984,-2.8984,-2.8984,-2.8984,-2.8975,-2.8785,-2.8546,-2.8238,-2.799,-2.7689,-2.7315,-2.7194,-2.7112,-2.7112,-2.7112,-2.7112,-2.7052,-2.6854,-2.6679,-2.6374,-2.5774,-2.5414,-2.5069,-2.4915,-2.4838,-2.4821,-2.4821,-2.4821,-2.4821,-2.4765,-2.4765,-2.4738,-2.4072,-2.3412,-2.3179,-2.3516,-2.3348,-2.3384,-2.3728,-2.2806,-2.1598,-2.1081,-1.9878,-1.8644,-1.8106,-1.746,-1.6508,-1.541,-1.447,-1.3892,-1.3474,-1.3299,-1.3337,-1.3239,-1.3152,-1.3168,-1.3459,-1.3664,-1.3787,-1.3927,-1.4056,-1.4159,-1.4169,-1.4186,-1.4083,-1.3943,-1.3755,-1.341,-1.305,-1.2711,-1.2377,-1.2087,-1.1838,-1.179,-1.1704,-1.1558,-1.1493,-1.1434,-1.131,-1.1364,-1.1434,-1.1547,-1.0937,-1.0325,-0.9661,-2.8929,-2.9005,-2.8984,-2.8984,-2.8984,-2.8984,-2.8984,-2.8984,-2.8984,-2.8984,-2.8984,-2.8984,-2.8984,-2.8984,-2.8984,-2.8984,-2.8984,-2.8984,-2.8984,-2.8984,-2.8984,-2.8984,-2.8984,-2.8984,-2.8984,-2.8984,-2.8984,-2.8984,-2.8984,-2.8984,-2.8984,-2.8984,-2.8984,-2.8984,-2.8984,-2.8955,-2.8767,-2.8517,-2.8277,-2.805,-2.7659,-2.7297,-2.7194,-2.7133,-2.7112,-2.7112,-2.7103,-2.7043,-2.6872,-2.6546,-2.6032,-2.5629,-2.5329,-2.5086,-2.4887,-2.4836,-2.4821,-2.4821,-2.4765,-2.4507,-2.4618,-2.4443,-2.344,-2.2721,-2.243,-2.2253,-2.2112,-2.2091,-2.243,-2.2338,-2.1102,-2.0007,-1.8695,-1.7615,-1.7263,-1.6919,-1.6043,-1.5139,-1.4557,-1.3969,-1.3716,-1.3484,-1.333,-1.3222,-1.3109,-1.3109,-1.3195,-1.3369,-1.3573,-1.3756,-1.3917,-1.4062,-1.4137,-1.4159,-1.4186,-1.411,-1.3965,-1.3755,-1.3363,-1.3025,-1.2711,-1.2355,-1.2118,-1.2082,-1.1957,-1.1795,-1.1704,-1.1666,-1.1531,-1.1358,-1.1461,-1.1535,-1.1098,-1.0412,-0.9342,-2.87,-2.8984,-2.8984,-2.8984,-2.8984,-2.8984,-2.8984,-2.8984,-2.8984,-2.8984,-2.8984,-2.8984,-2.8984,-2.8984,-2.8984,-2.8984,-2.8984,-2.8984,-2.8984,-2.8984,-2.8984,-2.8984,-2.8984,-2.8984,-2.8984,-2.8984,-2.8984,-2.8984,-2.8984,-2.8984,-2.8984,-2.8984,-2.8984,-2.8984,-2.8984,-2.8955,-2.8865,-2.8666,-2.8487,-2.8268,-2.7771,-2.744,-2.7297,-2.7215,-2.7112,-2.7112,-2.7112,-2.7112,-2.7069,-2.6872,-2.6512,-2.5989,-2.5592,-2.5309,-2.5104,-2.4904,-2.4853,-2.4821,-2.4682,-2.4016,-2.3952,-2.4248,-2.3095,-2.1508,-2.128,-2.1166,-2.088,-2.0408,-2.0745,-2.128,-2.0444,-1.9688,-1.8561,-1.7722,-1.7167,-1.6903,-1.6313,-1.5596,-1.4927,-1.4478,-1.4099,-1.3888,-1.3664,-1.3455,-1.3157,-1.3147,-1.3098,-1.3276,-1.3324,-1.3535,-1.3777,-1.3917,-1.4035,-1.4153,-1.4191,-1.4191,-1.4073,-1.3885,-1.3686,-1.331,-1.2969,-1.2608,-1.2414,-1.2357,-1.2201,-1.2051,-1.1958,-1.1899,-1.1719,-1.1583,-1.1621,-1.1571,-1.1088,-1.023,-0.8939]},{"header":{"parameterUnit":"m.s-1","parameterCategory":1,"la1":31.0,"la2":29.5877,"lo1":-88.7671,"lo2":-86.6584,"dy":0.0162,"dx":0.0185,"nx":115,"ny":88,"refTime":"2023-08-18T06:00:00:Z","depth":0,"parameterNumber":3,"parameterNumberName":"V-component_of_WINDS"},"data":[0.0,0.0,0.0,0.0,0.0,0.0,0.0,0.0,0.0,0.0,0.0,0.0,0.0,0.0,0.0,0.0,0.0,0.0,0.0,0.0,0.0,0.0,0.0,0.0,0.0,0.0,0.0,0.0,0.0,0.0,0.0,0.0,0.0,0.0,0.0,0.0,0.0,0.0,0.0,0.0,0.0,0.0,0.0,0.0,0.0,0.0,0.0,0.0,0.0,0.0,0.0,0.0,0.0,0.0,0.0,0.0,0.0,0.0,0.0,0.0,0.0,0.0,0.0,0.0,0.0,0.0,0.0,0.0,0.0,0.0,0.0,0.0,0.0,0.0,0.0,0.0,0.0,0.0,0.0,0.0,0.0,0.0,0.0,0.0,0.0,0.0,0.0,0.0,0.0,0.0,0.0,0.0,0.0,0.0,0.0,0.0,0.0,0.0,0.0,0.0,0.0,0.0,0.0,0.0,0.0,0.0,0.0,0.0,0.0,0.0,0.0,0.0,0.0,0.0,0.0,0.0,0.0,0.0,0.0,0.0,0.0,0.0,0.0,0.0,0.0,0.0,0.0,0.0,0.0,0.0,0.0,0.0,0.0,0.0,0.0,0.0,0.0,0.0,0.0,0.0,0.0,0.0,0.0,0.0,0.0,0.0,0.0,0.0,0.0,0.0,0.0,0.0,0.0,0.0,0.0,0.0,0.0,0.0,0.0,0.0,0.0,0.0,0.0,0.0,0.0,0.0,0.0,0.0,0.0,0.0,0.0,0.0,0.0,0.0,0.0,0.0,0.0,0.0,0.0,0.0,0.0,0.0,0.0,0.0,0.0,0.0,0.0,0.0,0.0,0.0,0.0,0.0,0.0,0.0,0.0,0.0,0.0,0.0,0.0,0.0,0.0,0.0,0.0,0.0,0.0,0.0,0.0,0.0,0.0,0.0,0.0,0.0,0.0,0.0,0.0,0.0,0.0,0.0,0.0,0.0,0.0,0.0,0.0,0.0,0.0,0.0,0.0,0.0,0.0,0.0,0.0,0.0,0.0,0.0,0.0,0.0,0.0,0.0,0.0,0.0,0.0,0.0,0.0,0.0,0.0,0.0,0.0,0.0,0.0,0.0,0.0,0.0,0.0,0.0,0.0,0.0,0.0,0.0,0.0,0.0,0.0,0.0,0.0,0.0,0.0,0.0,0.0,0.0,0.0,0.0,0.0,0.0,0.0,0.0,0.0,0.0,0.0,0.0,0.0,0.0,0.0,0.0,0.0,0.0,0.0,0.0,0.0,0.0,0.0,0.0,0.0,0.0,0.0,0.0,0.0,0.0,0.0,0.0,0.0,0.0,0.0,0.0,0.0,0.0,0.0,0.0,0.0,0.0,0.0,0.0,0.0,0.0,0.0,0.0,0.0,0.0,0.0,0.0,0.0,0.0,0.0,0.0,0.0,0.0,0.0,0.0,0.0,0.0,0.0,0.0,0.0,0.0,0.0,0.0,0.0,0.0,0.0,0.0,0.0,0.0,0.0,0.0,0.0,0.0,0.0,0.0,0.0,0.0,0.0,0.0,0.0,0.0,0.0,0.0,0.0,0.0,0.0,0.0,0.0,0.0,0.0,0.0,0.0,0.0,0.0,0.0,0.0,0.0,0.0,0.0,0.0,0.0,0.0,0.0,0.0,0.0,0.0,0.0,0.0,0.0,0.0,0.0,0.0,0.0,0.0,0.0,0.0,0.0,0.0,0.0,0.0,0.0,0.0,0.0,0.0,0.0,0.0,0.0,0.0,0.0,0.0,0.0,0.0,0.0,0.0,0.0,0.0,0.0,0.0,0.0,0.0,0.0,0.0,0.0,0.0,0.0,0.0,0.0,0.0,0.0,0.0,0.0,0.0,0.0,0.0,0.0,0.0,0.0,0.0,0.0,0.0,0.0,0.0,0.0,0.0,0.0,0.0,0.0,0.0,0.0,0.0,0.0,0.0,0.0,0.0,0.0,0.0,0.0,0.0,0.0,0.0,0.0,0.0,0.0,0.0,0.0,0.0,0.0,0.0,0.0,0.0,0.0,0.0,0.0,0.0,0.0,0.0,0.0,0.0,0.0,0.0,0.0,0.0,0.0,0.0,0.0,0.0,0.0,0.0,0.0,0.0,0.0,0.0,0.0,0.0,0.0,0.0,0.0,0.0,0.0,0.0,0.0,0.0,0.0,0.0,0.0,0.0,0.0,0.0,0.0,0.0,0.0,0.0,0.0,0.0,0.0,0.0,0.0,0.0,0.0,0.0,0.0,0.0,0.0,0.0,0.0,0.0,0.0,0.0,0.0,0.0,0.0,0.0,0.0,0.0,0.0,0.0,0.0,0.0,0.0,0.0,0.0,0.0,0.0,0.0,0.0,0.0,0.0,0.0,0.0,0.0,0.0,0.0,0.0,0.0,0.0,0.0,0.0,0.0,0.0,0.0,0.0,0.0,0.0,0.0,0.0,0.0,0.0,0.0,0.0,0.0,0.0,0.0,0.0,0.0,0.0,0.0,0.0,0.0,0.0,0.0,0.0,0.0,0.0,0.0,0.0,0.0,0.0,0.0,0.0,0.0,0.0,0.0,0.0,0.0,0.0,0.0,0.0,0.0,0.0,0.0,0.0,0.0,0.0,0.0,0.0,0.0,0.0,0.0,0.0,0.0,0.0,0.0,0.0,0.0,0.0,0.0,0.0,0.0,0.0,0.0,0.0,0.0,0.0,0.0,0.0,0.0,0.0,0.0,0.0,0.0,0.0,0.0,0.0,0.0,0.0,0.0,0.0,0.0,0.0,0.0,0.0,0.0,0.0,0.0,0.0,0.0,0.0,0.0,0.0,0.0,0.0,0.0,0.0,0.0,0.0,0.0,0.0,0.0,0.0,0.0,0.0,0.0,0.0,0.0,0.0,0.0,0.0,0.0,0.0,0.0,0.0,0.0,0.0,0.0,0.0,0.0,0.0,0.0,0.0,0.0,0.0,0.0,0.0,0.0,0.0,0.0,0.0,0.0,0.0,0.0,0.0,0.0,0.0,0.0,0.0,0.0,0.0,0.0,0.0,0.0,0.0,0.0,0.0,0.0,0.0,0.0,0.0,0.0,0.0,0.0,0.0,0.0,0.0,0.0,0.0,0.0,0.0,0.0,0.0,0.0,0.0,0.0,0.0,0.0,0.0,0.0,0.0,0.0,0.0,0.0,0.0,0.0,0.0,0.0,0.0,0.0,0.0,0.0,0.0,0.0,0.0,0.0,0.0,0.0,0.0,0.0,0.0,0.0,0.0,0.0,0.0,0.0,0.0,0.0,0.0,0.0,0.0,0.0,0.0,0.0,0.0,0.0,0.0,0.0,0.0,0.0,0.0,0.0,0.0,0.0,0.0,0.0,0.0,0.0,0.0,0.0,0.0,0.0,0.0,0.0,0.0,0.0,0.0,0.0,0.0,0.0,0.0,0.0,0.0,0.0,0.0,0.0,0.0,0.0,0.0,0.0,0.0,0.0,0.0,0.0,0.0,0.0,0.0,0.0,0.0,0.0,0.0,0.0,0.0,0.0,0.0,0.0,0.0,0.0,0.0,0.0,0.0,0.0,0.0,0.0,0.0,0.0,0.0,0.0,0.0,0.0,0.0,0.0,0.0,0.0,0.0,0.0,0.0,0.0,0.0,0.0,0.0,0.0,0.0,0.0,0.0,0.0,0.0,0.0,0.0,0.0,0.0,0.0,0.0,0.0,0.0,0.0,0.0,0.0,0.0,0.0,0.0,0.0,0.0,0.0,0.0,0.0,0.0,0.0,0.0,0.0,0.0,0.0,0.0,0.0,0.0,0.0,0.0,0.0,0.0,0.0,0.0,0.0,0.0,0.0,0.0,0.0,0.0,0.0,0.0,0.0,0.0,0.0,0.0,0.0,0.0,0.0,0.0,0.0,0.0,0.0,0.0,0.0,0.0,0.0,0.0,0.0,0.0,0.0,0.0,0.0,0.0,0.0,0.0,0.0,0.0,0.0,0.0,0.0,0.0,0.0,0.0,0.0,0.0,0.0,0.0,0.0,0.0,0.0,0.0,0.0,0.0,0.0,0.0,0.0,0.0,0.0,0.0,0.0,0.0,0.0,0.0,0.0,0.0,0.0,0.0,0.0,0.0,0.0,0.0,0.0,0.0,0.0,0.0,0.0,0.0,0.0,0.0,0.0,0.0,0.0,0.0,0.0,0.0,0.0,0.0,0.0,0.0,0.0,0.0,0.0,0.0,0.0,0.0,0.0,0.0,0.0,0.0,0.0,0.0,2.005,0.0,0.0,0.0,0.0,0.0,0.0,0.0,0.0,0.0,0.0,0.0,0.0,0.0,0.0,0.0,0.0,0.0,0.0,0.0,0.0,0.0,0.0,0.0,0.0,0.0,0.0,0.0,0.0,0.0,0.0,0.0,0.0,0.0,0.0,0.0,0.0,0.0,0.0,0.0,0.0,0.0,0.0,0.0,0.0,0.0,0.0,0.0,0.0,0.0,0.0,0.0,0.0,0.0,0.0,0.0,0.0,0.0,0.0,0.0,0.0,0.0,0.0,0.0,0.0,0.0,0.0,0.0,0.0,0.0,0.0,0.0,0.0,0.0,0.0,0.0,0.0,0.0,0.0,0.0,0.0,0.0,0.0,0.0,0.0,0.0,0.0,0.0,0.0,0.0,0.0,0.0,0.0,0.0,0.0,0.0,0.0,0.0,0.0,0.0,0.0,0.0,0.0,0.0,0.0,0.0,0.0,0.0,0.0,0.0,0.0,1.9859,1.992,2.0024,2.0112,2.0112,0.0,0.0,0.0,0.0,0.0,0.0,0.0,0.0,0.0,0.0,0.0,0.0,0.0,0.0,0.0,0.0,0.0,0.0,0.0,0.0,0.0,0.0,0.0,0.0,0.0,0.0,0.0,0.0,0.0,0.0,0.0,0.0,0.0,0.0,0.0,0.0,0.0,0.0,0.0,0.0,0.0,0.0,0.0,0.0,0.0,0.0,0.0,0.0,0.0,0.0,0.0,0.0,0.0,0.0,0.0,0.0,0.0,0.0,0.0,0.0,0.0,0.0,0.0,0.0,0.0,0.0,0.0,0.0,0.0,0.0,0.0,0.0,0.0,0.0,0.0,0.0,0.0,0.0,0.0,0.0,0.0,0.0,0.0,0.0,0.0,0.0,0.0,0.0,0.0,0.0,0.0,0.0,0.0,0.0,0.0,0.0,0.0,0.0,0.0,0.0,0.0,0.0,0.0,0.0,0.0,0.0,0.0,0.0,0.0,0.0,0.0,0.0,2.0064,2.0081,2.0076,0.0,0.0,0.0,0.0,0.0,0.0,0.0,0.0,0.0,0.0,0.0,0.0,0.0,0.0,0.0,0.0,0.0,0.0,0.0,0.0,0.0,0.0,0.0,0.0,0.0,0.0,0.0,0.0,0.0,0.0,0.0,0.0,0.0,0.0,0.0,0.0,0.0,0.0,0.0,0.0,0.0,0.0,0.0,0.0,0.0,0.0,0.0,0.0,0.0,0.0,0.0,0.0,0.0,0.0,0.0,0.0,0.0,0.0,0.0,0.0,0.0,0.0,0.0,0.0,0.0,0.0,0.0,0.0,0.0,0.0,0.0,0.0,0.0,0.0,0.0,0.0,0.0,0.0,0.0,0.0,0.0,0.0,0.0,0.0,0.0,0.0,0.0,0.0,0.0,0.0,0.0,0.0,0.0,0.0,0.0,0.0,0.0,0.0,0.0,0.0,0.0,0.0,0.0,0.0,0.0,0.0,0.0,0.0,0.0,0.0,1.9807,1.9819,1.9933,0.0,2.0004,0.0,0.0,0.0,0.0,0.0,0.0,0.0,0.0,0.0,0.0,0.0,0.0,0.0,0.0,0.0,0.0,0.0,0.0,0.0,0.0,0.0,0.0,0.0,0.0,0.0,0.0,0.0,0.0,0.0,0.0,0.0,0.0,0.0,0.0,0.0,0.0,0.0,0.0,0.0,0.0,0.0,0.0,0.0,0.0,0.0,0.0,0.0,0.0,0.0,0.0,0.0,0.0,0.0,0.0,0.0,0.0,0.0,0.0,0.0,0.0,0.0,0.0,0.0,0.0,0.0,0.0,0.0,0.0,0.0,0.0,0.0,0.0,0.0,0.0,0.0,0.0,0.0,0.0,0.0,0.0,0.0,0.0,0.0,0.0,0.0,0.0,0.0,0.0,0.0,0.0,0.0,0.0,0.0,0.0,0.0,0.0,0.0,0.0,0.0,0.0,0.0,0.0,0.0,0.0,0.0,0.0,0.0,0.0,0.0,0.0,1.9918,1.9915,1.9966,1.9988,0.0,0.0,0.0,0.0,0.0,0.0,0.0,0.0,0.0,0.0,0.0,0.0,0.0,0.0,0.0,0.0,0.0,0.0,0.0,0.0,0.0,0.0,0.0,0.0,0.0,0.0,0.0,0.0,0.0,0.0,0.0,0.0,0.0,0.0,0.0,0.0,0.0,0.0,0.0,0.0,0.0,0.0,0.0,0.0,0.0,0.0,0.0,0.0,0.0,0.0,0.0,0.0,0.0,0.0,0.0,0.0,0.0,0.0,0.0,0.0,0.0,0.0,0.0,0.0,0.0,0.0,0.0,0.0,0.0,0.0,0.0,0.0,0.0,0.0,0.0,0.0,0.0,0.0,0.0,0.0,0.0,0.0,0.0,0.0,0.0,0.0,0.0,0.0,0.0,0.0,0.0,0.0,0.0,0.0,0.0,0.0,0.0,0.0,0.0,0.0,0.0,0.0,0.0,0.0,0.0,0.0,0.0,0.0,0.0,0.0,1.9952,1.9938,1.9962,1.996,1.9941,1.996,0.0,0.0,0.0,0.0,0.0,0.0,0.0,0.0,0.0,0.0,0.0,0.0,0.0,0.0,0.0,0.0,0.0,0.0,0.0,0.0,0.0,0.0,0.0,0.0,0.0,0.0,0.0,0.0,0.0,0.0,0.0,0.0,0.0,0.0,0.0,0.0,0.0,0.0,0.0,0.0,0.0,0.0,0.0,0.0,0.0,0.0,0.0,0.0,0.0,0.0,0.0,0.0,0.0,0.0,0.0,0.0,0.0,0.0,0.0,0.0,0.0,0.0,0.0,0.0,0.0,0.0,0.0,0.0,0.0,0.0,0.0,0.0,0.0,0.0,0.0,0.0,0.0,0.0,0.0,0.0,0.0,0.0,0.0,0.0,0.0,0.0,0.0,0.0,0.0,0.0,0.0,0.0,0.0,0.0,0.0,0.0,0.0,0.0,0.0,0.0,0.0,0.0,0.0,0.0,0.0,0.0,0.0,0.0,1.9915,1.9847,1.981,1.9813,1.9807,1.981,0.0,0.0,0.0,0.0,0.0,0.0,0.0,0.0,0.0,0.0,0.0,0.0,0.0,0.0,0.0,0.0,0.0,0.0,0.0,0.0,0.0,0.0,0.0,0.0,0.0,0.0,0.0,0.0,0.0,0.0,0.0,0.0,0.0,0.0,0.0,0.0,0.0,0.0,0.0,0.0,0.0,0.0,0.0,0.0,0.0,0.0,0.0,0.0,0.0,0.0,0.0,0.0,0.0,0.0,0.0,0.0,0.0,0.0,0.0,0.0,0.0,0.0,0.0,0.0,0.0,0.0,0.0,0.0,0.0,0.0,0.0,0.0,0.0,0.0,0.0,0.0,0.0,0.0,0.0,0.0,0.0,0.0,0.0,0.0,0.0,0.0,0.0,0.0,0.0,0.0,0.0,0.0,0.0,0.0,0.0,0.0,0.0,0.0,0.0,0.0,0.0,0.0,0.0,0.0,0.0,0.0,0.0,0.0,0.0,1.9841,1.9816,1.9801,1.9801,1.9801,1.9801,0.0,0.0,0.0,0.0,0.0,0.0,0.0,0.0,0.0,0.0,0.0,0.0,0.0,0.0,0.0,0.0,0.0,0.0,0.0,0.0,0.0,0.0,0.0,0.0,0.0,0.0,0.0,0.0,0.0,0.0,0.0,0.0,0.0,0.0,0.0,0.0,0.0,0.0,0.0,0.0,0.0,0.0,0.0,0.0,0.0,0.0,0.0,0.0,0.0,0.0,0.0,0.0,0.0,0.0,0.0,0.0,0.0,0.0,0.0,0.0,0.0,0.0,0.0,0.0,0.0,0.0,0.0,0.0,0.0,0.0,0.0,0.0,0.0,0.0,0.0,0.0,0.0,0.0,0.0,0.0,0.0,0.0,0.0,0.0,0.0,0.0,0.0,0.0,0.0,0.0,0.0,0.0,0.0,0.0,0.0,0.0,0.0,0.0,0.0,0.0,0.0,0.0,0.0,0.0,0.0,0.0,0.0,0.0,0.0,1.9751,0.0,1.9782,1.9776,1.9785,1.977,0.0,0.0,0.0,0.0,0.0,0.0,0.0,0.0,0.0,0.0,0.0,0.0,0.0,0.0,0.0,0.0,0.0,0.0,0.0,0.0,0.0,0.0,0.0,0.0,0.0,0.0,0.0,0.0,0.0,0.0,0.0,0.0,0.0,0.0,0.0,0.0,0.0,0.0,0.0,0.0,0.0,0.0,0.0,0.0,0.0,0.0,0.0,0.0,0.0,0.0,0.0,0.0,0.0,0.0,0.0,0.0,0.0,0.0,0.0,0.0,0.0,0.0,0.0,0.0,0.0,0.0,0.0,0.0,0.0,0.0,0.0,0.0,0.0,0.0,0.0,0.0,0.0,0.0,0.0,0.0,0.0,0.0,0.0,0.0,0.0,0.0,0.0,0.0,0.0,0.0,0.0,0.0,0.0,0.0,0.0,0.0,0.0,0.0,0.0,0.0,0.0,0.0,0.0,0.0,0.0,0.0,0.0,0.0,1.9823,1.9745,1.9707,1.9732,1.9715,1.9713,1.9713,0.0,0.0,0.0,0.0,0.0,0.0,0.0,0.0,0.0,0.0,0.0,0.0,0.0,0.0,0.0,0.0,0.0,0.0,0.0,0.0,0.0,0.0,0.0,0.0,0.0,0.0,0.0,0.0,0.0,0.0,0.0,0.0,0.0,0.0,0.0,0.0,0.0,0.0,0.0,0.0,0.0,0.0,0.0,0.0,0.0,0.0,0.0,0.0,0.0,0.0,0.0,0.0,0.0,0.0,0.0,0.0,0.0,0.0,0.0,0.0,0.0,0.0,0.0,0.0,0.0,0.0,0.0,0.0,0.0,0.0,0.0,0.0,0.0,0.0,0.0,0.0,0.0,0.0,0.0,0.0,0.0,0.0,0.0,0.0,0.0,0.0,0.0,0.0,0.0,0.0,0.0,0.0,0.0,0.0,0.0,0.0,0.0,0.0,0.0,0.0,0.0,0.0,0.0,0.0,0.0,0.0,0.0,0.0,0.0,2.1198,2.023,1.9964,2.049,1.9999,1.9709,0.0,0.0,0.0,0.0,0.0,0.0,0.0,0.0,0.0,0.0,0.0,0.0,0.0,0.0,0.0,0.0,0.0,0.0,0.0,0.0,0.0,0.0,0.0,0.0,0.0,0.0,0.0,0.0,0.0,0.0,0.0,0.0,0.0,0.0,0.0,0.0,0.0,0.0,0.0,0.0,0.0,0.0,0.0,0.0,0.0,0.0,0.0,0.0,0.0,0.0,0.0,0.0,0.0,0.0,0.0,0.0,0.0,0.0,0.0,0.0,0.0,0.0,0.0,0.0,0.0,0.0,0.0,0.0,0.0,0.0,0.0,0.0,0.0,0.0,0.0,0.0,0.0,0.0,0.0,0.0,0.0,0.0,0.0,0.0,0.0,0.0,0.0,0.0,0.0,0.0,0.0,0.0,0.0,0.0,0.0,0.0,0.0,0.0,0.0,0.0,0.0,0.0,0.0,0.0,0.0,0.0,0.0,0.0,0.0,2.2809,2.1395,2.0781,2.1205,2.0814,2.0447,2.0133,0.0,0.0,0.0,0.0,0.0,0.0,0.0,0.0,0.0,0.0,0.0,0.0,0.0,0.0,0.0,0.0,0.0,0.0,0.0,0.0,0.0,0.0,0.0,0.0,0.0,0.0,0.0,0.0,0.0,0.0,0.0,0.0,0.0,0.0,0.0,0.0,0.0,0.0,0.0,0.0,0.0,0.0,0.0,0.0,0.0,0.0,0.0,0.0,0.0,0.0,0.0,0.0,0.0,0.0,0.0,0.0,0.0,0.0,0.0,0.0,0.0,0.0,0.0,0.0,0.0,0.0,0.0,0.0,0.0,0.0,0.0,0.0,0.0,0.0,0.0,0.0,0.0,0.0,0.0,0.0,0.0,0.0,0.0,0.0,0.0,0.0,0.0,0.0,0.0,0.0,0.0,0.0,0.0,0.0,0.0,0.0,0.0,0.0,0.0,0.0,0.0,0.0,0.0,0.0,0.0,0.0,0.0,0.0,2.4459,2.3014,2.2094,2.1785,2.1971,2.1704,0.0,0.0,0.0,0.0,0.0,0.0,0.0,0.0,0.0,0.0,0.0,0.0,0.0,0.0,0.0,0.0,0.0,0.0,0.0,0.0,0.0,0.0,0.0,0.0,0.0,0.0,0.0,0.0,0.0,0.0,0.0,0.0,0.0,0.0,0.0,0.0,0.0,0.0,0.0,0.0,0.0,0.0,0.0,0.0,0.0,0.0,0.0,0.0,0.0,0.0,0.0,0.0,0.0,0.0,0.0,0.0,0.0,0.0,0.0,0.0,0.0,0.0,0.0,0.0,0.0,0.0,0.0,0.0,0.0,0.0,0.0,0.0,0.0,0.0,0.0,0.0,0.0,0.0,0.0,0.0,0.0,0.0,0.0,0.0,0.0,0.0,0.0,0.0,0.0,0.0,0.0,0.0,0.0,0.0,0.0,0.0,0.0,0.0,0.0,0.0,0.0,0.0,0.0,0.0,0.0,0.0,0.0,0.0,0.0,2.4192,2.398,2.3545,2.2839,2.23,2.1919,0.0,0.0,0.0,0.0,0.0,0.0,0.0,0.0,0.0,0.0,0.0,0.0,0.0,0.0,0.0,0.0,0.0,0.0,0.0,0.0,0.0,0.0,0.0,0.0,0.0,0.0,0.0,0.0,0.0,0.0,0.0,0.0,0.0,0.0,0.0,0.0,0.0,0.0,0.0,0.0,0.0,0.0,0.0,0.0,0.0,0.0,0.0,0.0,0.0,0.0,0.0,0.0,0.0,0.0,0.0,0.0,0.0,0.0,0.0,0.0,0.0,0.0,0.0,0.0,0.0,0.0,0.0,0.0,0.0,0.0,0.0,0.0,0.0,0.0,0.0,0.0,0.0,0.0,0.0,0.0,0.0,0.0,0.0,0.0,0.0,0.0,0.0,0.0,0.0,0.0,0.0,0.0,0.0,0.0,0.0,0.0,0.0,0.0,0.0,0.0,0.0,0.0,0.0,0.0,0.0,0.0,0.0,0.0,2.4709,2.4196,2.433,2.418,2.3681,2.3269,2.2895,0.0,0.0,0.0,0.0,0.0,0.0,0.0,0.0,0.0,0.0,0.0,0.0,0.0,0.0,0.0,0.0,0.0,0.0,0.0,0.0,0.0,0.0,0.0,0.0,0.0,0.0,0.0,0.0,0.0,0.0,0.0,0.0,0.0,0.0,0.0,0.0,0.0,0.0,0.0,0.0,0.0,0.0,0.0,0.0,0.0,0.0,0.0,0.0,0.0,0.0,0.0,0.0,0.0,0.0,0.0,0.0,0.0,0.0,0.0,0.0,0.0,0.0,0.0,0.0,0.0,0.0,0.0,0.0,0.0,0.0,0.0,0.0,0.0,0.0,0.0,0.0,0.0,0.0,0.0,0.0,0.0,0.0,0.0,0.0,0.0,0.0,0.0,0.0,0.0,0.0,0.0,0.0,0.0,0.0,0.0,0.0,0.0,0.0,0.0,0.0,0.0,0.0,0.0,0.0,0.0,0.0,0.0,0.0,2.5352,2.4589,2.4552,2.4515,2.4446,2.4467,2.4125,0.0,0.0,0.0,0.0,0.0,0.0,0.0,0.0,0.0,0.0,0.0,0.0,0.0,0.0,0.0,0.0,0.0,0.0,0.0,0.0,0.0,0.0,0.0,0.0,0.0,0.0,0.0,0.0,0.0,0.0,0.0,0.0,0.0,0.0,0.0,0.0,0.0,0.0,0.0,0.0,0.0,0.0,0.0,0.0,0.0,0.0,0.0,0.0,0.0,0.0,0.0,0.0,0.0,0.0,0.0,0.0,0.0,0.0,0.0,0.0,0.0,0.0,0.0,0.0,0.0,0.0,0.0,0.0,0.0,0.0,0.0,0.0,0.0,0.0,0.0,0.0,0.0,0.0,0.0,0.0,0.0,0.0,0.0,0.0,0.0,0.0,0.0,0.0,0.0,0.0,0.0,0.0,0.0,0.0,0.0,0.0,0.0,0.0,0.0,0.0,0.0,0.0,0.0,0.0,0.0,0.0,0.0,0.0,2.6393,2.6199,2.6194,2.589,2.5254,2.4667,2.4288,0.0,0.0,0.0,0.0,0.0,0.0,0.0,0.0,0.0,0.0,0.0,0.0,0.0,0.0,0.0,0.0,0.0,0.0,0.0,0.0,0.0,0.0,0.0,0.0,0.0,0.0,0.0,0.0,0.0,0.0,0.0,0.0,0.0,0.0,0.0,0.0,0.0,0.0,0.0,0.0,0.0,0.0,0.0,0.0,0.0,0.0,0.0,0.0,2.2569,0.0,0.0,0.0,0.0,0.0,0.0,0.0,0.0,0.0,0.0,0.0,0.0,0.0,0.0,0.0,0.0,0.0,0.0,0.0,0.0,0.0,0.0,0.0,0.0,0.0,0.0,0.0,0.0,0.0,0.0,0.0,0.0,0.0,0.0,0.0,0.0,0.0,0.0,0.0,0.0,0.0,0.0,0.0,0.0,0.0,0.0,0.0,0.0,0.0,0.0,0.0,0.0,0.0,0.0,0.0,0.0,0.0,0.0,0.0,2.7811,2.7779,2.7416,2.7017,2.6572,2.5807,2.5077,0.0,0.0,0.0,0.0,0.0,0.0,0.0,0.0,0.0,0.0,0.0,0.0,0.0,0.0,0.0,0.0,0.0,0.0,0.0,0.0,0.0,0.0,0.0,0.0,0.0,0.0,0.0,0.0,0.0,0.0,0.0,0.0,0.0,0.0,0.0,0.0,0.0,0.0,0.0,0.0,0.0,0.0,0.0,0.0,0.0,0.0,0.0,0.0,0.0,0.0,0.0,0.0,0.0,0.0,0.0,0.0,0.0,0.0,0.0,0.0,0.0,0.0,0.0,0.0,0.0,0.0,0.0,0.0,0.0,0.0,0.0,0.0,0.0,0.0,0.0,0.0,0.0,0.0,0.0,0.0,0.0,0.0,0.0,0.0,0.0,0.0,0.0,0.0,0.0,0.0,0.0,0.0,0.0,0.0,0.0,0.0,0.0,0.0,0.0,0.0,0.0,0.0,0.0,0.0,0.0,0.0,0.0,2.9027,2.9307,2.9341,2.8705,2.8282,2.816,2.7506,2.6504,2.5199,0.0,0.0,0.0,0.0,0.0,0.0,0.0,0.0,0.0,0.0,0.0,0.0,0.0,0.0,0.0,0.0,0.0,0.0,0.0,0.0,0.0,0.0,0.0,0.0,0.0,0.0,0.0,0.0,0.0,0.0,0.0,0.0,0.0,0.0,0.0,0.0,0.0,0.0,2.0766,2.1525,0.0,0.0,0.0,0.0,0.0,0.0,0.0,0.0,2.4325,0.0,0.0,0.0,0.0,0.0,0.0,0.0,0.0,0.0,0.0,0.0,0.0,0.0,0.0,0.0,0.0,0.0,0.0,0.0,0.0,0.0,0.0,0.0,0.0,0.0,0.0,0.0,0.0,0.0,0.0,0.0,0.0,0.0,0.0,0.0,0.0,0.0,0.0,0.0,0.0,0.0,0.0,0.0,0.0,0.0,0.0,0.0,0.0,0.0,0.0,0.0,0.0,0.0,0.0,0.0,0.0,3.0894,3.0325,3.0326,3.0987,3.0876,3.0491,2.9824,2.969,2.9245,2.8381,0.0,0.0,0.0,0.0,0.0,0.0,0.0,0.0,0.0,0.0,0.0,0.0,0.0,0.0,0.0,0.0,0.0,0.0,0.0,0.0,0.0,0.0,0.0,0.0,0.0,0.0,0.0,0.0,0.0,0.0,0.0,0.0,0.0,0.0,0.0,0.0,0.0,0.0,0.0,2.236,2.2936,0.0,0.0,0.0,0.0,0.0,0.0,0.0,0.0,2.5061,0.0,0.0,0.0,0.0,0.0,0.0,0.0,0.0,0.0,0.0,0.0,0.0,0.0,0.0,0.0,0.0,0.0,0.0,0.0,0.0,0.0,0.0,0.0,0.0,0.0,0.0,0.0,0.0,0.0,0.0,0.0,0.0,0.0,0.0,0.0,0.0,0.0,0.0,0.0,0.0,0.0,0.0,0.0,0.0,0.0,0.0,0.0,0.0,0.0,0.0,0.0,0.0,0.0,0.0,0.0,3.0814,3.0423,3.0577,3.1354,3.1005,3.0797,3.0815,3.0411,3.0269,0.0,0.0,0.0,0.0,0.0,0.0,0.0,0.0,0.0,0.0,0.0,0.0,0.0,0.0,0.0,0.0,0.0,0.0,0.0,0.0,0.0,0.0,0.0,0.0,0.0,0.0,0.0,0.0,0.0,0.0,0.0,0.0,0.0,0.0,0.0,0.0,0.0,0.0,0.0,0.0,2.35,2.3923,2.4332,0.0,0.0,0.0,0.0,0.0,0.0,2.5421,2.5383,0.0,0.0,0.0,0.0,0.0,0.0,0.0,0.0,0.0,0.0,0.0,0.0,0.0,0.0,0.0,0.0,0.0,0.0,0.0,0.0,0.0,0.0,0.0,0.0,0.0,0.0,0.0,0.0,0.0,0.0,0.0,0.0,0.0,0.0,0.0,0.0,0.0,0.0,0.0,0.0,0.0,0.0,0.0,0.0,0.0,0.0,0.0,0.0,0.0,0.0,0.0,0.0,0.0,0.0,0.0,3.0986,3.0785,3.1072,3.1813,3.1256,3.1164,3.1611,3.1035,3.098,0.0,0.0,0.0,0.0,0.0,0.0,0.0,0.0,0.0,0.0,0.0,0.0,0.0,0.0,0.0,0.0,0.0,0.0,0.0,0.0,0.0,0.0,0.0,0.0,0.0,0.0,0.0,0.0,0.0,0.0,0.0,0.0,0.0,0.0,0.0,0.0,0.0,0.0,0.0,0.0,0.0,2.4868,2.551,2.5576,0.0,0.0,0.0,0.0,2.5453,2.5412,0.0,0.0,0.0,0.0,0.0,0.0,0.0,0.0,0.0,0.0,0.0,0.0,0.0,0.0,0.0,0.0,0.0,0.0,0.0,0.0,0.0,0.0,0.0,0.0,0.0,0.0,0.0,0.0,0.0,0.0,0.0,0.0,0.0,0.0,0.0,0.0,0.0,0.0,0.0,0.0,0.0,0.0,0.0,0.0,0.0,0.0,0.0,0.0,0.0,0.0,0.0,0.0,0.0,0.0,0.0,0.0,3.3349,3.2681,3.2717,3.3476,3.3421,3.3084,3.2491,3.2369,3.2083,0.0,0.0,0.0,0.0,0.0,0.0,0.0,0.0,0.0,0.0,0.0,0.0,0.0,0.0,0.0,0.0,0.0,0.0,0.0,0.0,0.0,0.0,0.0,0.0,0.0,0.0,0.0,0.0,0.0,0.0,0.0,0.0,0.0,0.0,0.0,0.0,0.0,0.0,0.0,0.0,0.0,2.5493,2.5572,2.5494,2.5441,0.0,0.0,2.5253,2.5317,2.5261,0.0,0.0,0.0,0.0,0.0,0.0,0.0,0.0,0.0,0.0,0.0,0.0,0.0,0.0,0.0,0.0,0.0,0.0,0.0,0.0,0.0,0.0,0.0,0.0,0.0,0.0,0.0,0.0,0.0,0.0,0.0,0.0,0.0,0.0,0.0,0.0,0.0,0.0,0.0,0.0,0.0,0.0,0.0,0.0,0.0,0.0,0.0,0.0,0.0,0.0,0.0,0.0,0.0,0.0,0.0,3.2565,3.2379,3.2042,3.2024,3.2354,3.239,3.2465,3.2601,3.2601,3.2683,0.0,0.0,0.0,0.0,0.0,0.0,0.0,0.0,0.0,0.0,0.0,0.0,0.0,0.0,0.0,0.0,0.0,0.0,0.0,0.0,0.0,0.0,0.0,0.0,0.0,0.0,0.0,0.0,0.0,0.0,0.0,0.0,0.0,0.0,0.0,0.0,0.0,0.0,0.0,0.0,0.0,0.0,2.5601,2.5544,0.0,0.0,0.0,2.5446,2.547,0.0,0.0,0.0,0.0,0.0,0.0,0.0,0.0,0.0,0.0,0.0,0.0,0.0,0.0,0.0,0.0,0.0,0.0,0.0,0.0,0.0,0.0,0.0,0.0,0.0,0.0,0.0,0.0,0.0,0.0,0.0,0.0,0.0,0.0,0.0,0.0,0.0,0.0,0.0,0.0,0.0,0.0,0.0,0.0,0.0,0.0,0.0,0.0,0.0,0.0,0.0,0.0,0.0,0.0,0.0,0.0,0.0,3.2494,3.2469,3.2476,3.2469,3.2494,3.2685,3.3161,3.3161,0.0,0.0,0.0,0.0,0.0,0.0,0.0,0.0,0.0,0.0,0.0,0.0,0.0,0.0,0.0,0.0,0.0,0.0,0.0,0.0,0.0,0.0,0.0,0.0,0.0,0.0,0.0,2.5613,0.0,0.0,0.0,0.0,0.0,0.0,0.0,0.0,0.0,0.0,0.0,0.0,0.0,0.0,2.5564,2.5527,2.5513,2.5476,0.0,0.0,2.5432,2.5432,2.5432,2.5434,0.0,0.0,0.0,0.0,0.0,0.0,0.0,0.0,0.0,0.0,0.0,0.0,0.0,0.0,0.0,0.0,0.0,0.0,0.0,0.0,0.0,0.0,0.0,0.0,0.0,0.0,0.0,0.0,0.0,0.0,0.0,0.0,0.0,0.0,0.0,0.0,0.0,0.0,0.0,0.0,0.0,0.0,0.0,0.0,0.0,0.0,0.0,0.0,0.0,0.0,0.0,0.0,0.0,0.0,3.5776,3.5705,3.5687,3.5632,3.5669,3.568,3.5396,3.4782,3.4727,3.411,0.0,0.0,0.0,0.0,0.0,0.0,0.0,0.0,0.0,0.0,0.0,0.0,0.0,0.0,0.0,0.0,0.0,0.0,0.0,0.0,0.0,0.0,0.0,0.0,0.0,0.0,0.0,0.0,0.0,0.0,0.0,0.0,0.0,0.0,0.0,0.0,0.0,0.0,0.0,0.0,0.0,2.5453,2.5337,2.5264,2.5178,0.0,2.4981,2.4942,2.4961,2.4946,2.4942,2.4946,0.0,0.0,0.0,0.0,0.0,0.0,0.0,0.0,0.0,0.0,0.0,0.0,0.0,0.0,0.0,0.0,0.0,0.0,0.0,0.0,0.0,0.0,0.0,0.0,0.0,0.0,0.0,0.0,0.0,0.0,0.0,0.0,0.0,0.0,0.0,0.0,0.0,0.0,0.0,0.0,0.0,0.0,0.0,0.0,0.0,0.0,0.0,0.0,0.0,0.0,0.0,0.0,0.0,3.6005,3.5939,3.5949,3.5931,3.5949,3.5931,3.5824,3.5589,3.5601,3.5345,0.0,0.0,0.0,0.0,0.0,0.0,0.0,0.0,0.0,0.0,0.0,0.0,0.0,0.0,0.0,0.0,0.0,0.0,0.0,0.0,0.0,0.0,0.0,0.0,0.0,0.0,0.0,0.0,2.5514,2.5513,2.5513,0.0,0.0,0.0,0.0,0.0,0.0,0.0,0.0,0.0,0.0,2.5303,2.5243,2.5207,0.0,0.0,2.5526,2.5827,2.5827,2.6241,2.6575,2.6575,2.6523,0.0,0.0,0.0,0.0,0.0,0.0,0.0,0.0,0.0,0.0,0.0,0.0,0.0,0.0,0.0,0.0,0.0,0.0,0.0,0.0,0.0,0.0,0.0,0.0,0.0,0.0,0.0,0.0,0.0,0.0,0.0,0.0,0.0,0.0,0.0,0.0,0.0,0.0,0.0,0.0,0.0,0.0,0.0,0.0,0.0,0.0,0.0,0.0,0.0,0.0,0.0,0.0,3.6659,3.6588,3.6588,3.6588,3.6598,3.6588,3.6609,3.668,3.6731,3.6649,0.0,0.0,0.0,0.0,0.0,0.0,0.0,0.0,0.0,0.0,0.0,0.0,0.0,0.0,0.0,0.0,0.0,0.0,0.0,0.0,0.0,0.0,0.0,0.0,0.0,0.0,0.0,0.0,2.549,2.546,2.5416,0.0,0.0,0.0,0.0,0.0,0.0,0.0,0.0,0.0,0.0,2.5622,2.5835,2.587,2.5855,2.5796,2.6282,2.6644,2.6641,2.7108,2.7482,2.7478,0.0,0.0,0.0,0.0,0.0,0.0,0.0,0.0,0.0,0.0,0.0,0.0,0.0,0.0,0.0,0.0,0.0,0.0,0.0,0.0,0.0,0.0,0.0,0.0,0.0,0.0,0.0,3.2743,0.0,0.0,3.2847,0.0,0.0,0.0,0.0,0.0,0.0,0.0,0.0,0.0,0.0,0.0,0.0,0.0,0.0,0.0,0.0,0.0,0.0,0.0,0.0,0.0,0.0,3.8193,3.8136,3.81,3.8118,3.8136,3.8154,3.8152,3.8216,3.8234,3.7911,3.7208,0.0,0.0,0.0,0.0,0.0,0.0,0.0,0.0,0.0,0.0,0.0,0.0,0.0,0.0,0.0,0.0,0.0,0.0,0.0,0.0,0.0,0.0,0.0,0.0,0.0,0.0,2.5548,2.5454,2.541,0.0,0.0,0.0,0.0,0.0,0.0,0.0,0.0,0.0,2.6361,2.638,2.6524,2.7225,2.7335,2.7248,2.7119,2.7169,2.7184,2.7192,2.7226,2.7194,0.0,0.0,0.0,0.0,0.0,0.0,0.0,0.0,0.0,0.0,0.0,0.0,0.0,0.0,0.0,0.0,0.0,0.0,0.0,0.0,0.0,0.0,0.0,0.0,0.0,0.0,0.0,3.4491,3.4971,0.0,0.0,0.0,0.0,0.0,0.0,0.0,0.0,0.0,0.0,0.0,3.6424,3.7234,0.0,0.0,0.0,0.0,0.0,0.0,0.0,0.0,0.0,0.0,0.0,0.0,3.8234,3.8209,3.82,3.82,3.82,3.82,3.8217,3.8242,3.8274,3.8202,3.8,0.0,0.0,0.0,0.0,0.0,0.0,0.0,0.0,0.0,0.0,0.0,0.0,0.0,0.0,0.0,0.0,0.0,0.0,0.0,0.0,0.0,0.0,0.0,0.0,0.0,2.707,0.0,0.0,0.0,0.0,0.0,0.0,0.0,0.0,0.0,0.0,0.0,2.6927,2.7022,2.6989,2.6995,2.7123,2.7135,2.711,0.0,0.0,0.0,0.0,0.0,0.0,0.0,0.0,0.0,0.0,0.0,0.0,0.0,0.0,2.8705,2.7619,2.7513,2.747,2.7184,0.0,0.0,0.0,0.0,0.0,0.0,0.0,0.0,0.0,0.0,0.0,0.0,0.0,0.0,3.5819,3.6282,3.6301,0.0,0.0,0.0,0.0,0.0,0.0,0.0,0.0,3.7449,3.7958,3.7994,3.8758,3.9115,0.0,3.9006,3.8707,0.0,0.0,0.0,0.0,0.0,0.0,0.0,0.0,3.8997,3.8997,3.8989,3.8989,3.8989,3.8744,3.8617,3.8599,3.8378,3.8307,3.836,3.7861,3.7609,0.0,0.0,0.0,0.0,0.0,0.0,0.0,0.0,0.0,0.0,0.0,0.0,0.0,0.0,0.0,0.0,0.0,0.0,0.0,0.0,0.0,0.0,0.0,2.773,0.0,0.0,0.0,0.0,0.0,0.0,0.0,0.0,0.0,2.6893,2.7227,2.7572,2.7692,2.769,2.7703,2.7844,0.0,0.0,0.0,0.0,0.0,0.0,0.0,2.9507,2.9569,2.9578,2.9579,2.965,2.9659,2.9664,2.9701,0.0,0.0,2.8419,2.8283,2.8248,2.7978,2.7987,2.7961,2.766,2.7448,2.7303,0.0,0.0,0.0,0.0,0.0,0.0,0.0,0.0,3.6838,3.6869,0.0,3.6906,0.0,0.0,0.0,0.0,3.6395,3.6903,0.0,0.0,3.87,3.9433,3.9442,4.0112,4.0456,4.0465,4.0247,4.0136,4.0119,3.9661,0.0,0.0,0.0,0.0,0.0,0.0,4.0483,4.0465,4.0447,4.0474,4.0447,3.9786,3.9423,3.9405,3.8689,3.8333,3.8345,3.8353,3.834,3.8382,3.7627,0.0,0.0,0.0,0.0,0.0,0.0,0.0,0.0,0.0,0.0,0.0,0.0,0.0,0.0,0.0,0.0,0.0,0.0,0.0,0.0,2.7467,0.0,0.0,0.0,0.0,0.0,0.0,0.0,0.0,0.0,0.0,2.7551,2.7392,2.7587,2.8422,0.0,0.0,0.0,0.0,2.9469,2.9455,2.9487,2.9474,2.9469,2.9487,2.9492,2.9492,0.0,0.0,2.9574,2.9598,2.9617,2.9687,2.9692,2.9715,2.9744,2.974,2.9585,2.8889,2.8741,2.8457,2.7725,2.7552,2.7426,3.809,0.0,0.0,0.0,0.0,3.9464,3.947,3.9488,3.9488,3.9488,3.9488,3.9488,0.0,0.0,0.0,0.0,0.0,0.0,3.9082,3.91,3.9557,3.9744,3.9762,3.9959,4.0066,4.0057,4.0009,3.998,3.9998,4.0415,4.0386,3.9986,0.0,0.0,0.0,0.0,4.0199,4.0474,4.0366,4.0356,4.0501,4.0302,4.0175,4.0193,3.9958,3.9622,3.9104,3.9086,3.8856,3.8358,3.8122,0.0,0.0,0.0,0.0,0.0,0.0,0.0,0.0,0.0,0.0,0.0,0.0,0.0,0.0,0.0,0.0,0.0,0.0,0.0,2.9053,2.9039,2.9057,0.0,0.0,0.0,0.0,0.0,0.0,0.0,0.0,0.0,2.87,2.8848,2.9044,0.0,0.0,2.9218,2.9407,2.9424,2.9424,2.9411,2.9429,0.0,2.9424,2.9429,2.9416,2.9428,2.9468,2.9521,2.9535,2.9526,2.9536,2.956,2.9598,2.9636,2.9659,2.9755,2.9739,2.9521,2.953,2.9476,2.924,2.904,2.888,3.9002,4.0055,3.9599,3.9408,3.9417,3.9417,3.9417,3.9417,3.9417,3.9417,3.9399,3.9417,3.9408,3.9408,3.9238,0.0,0.0,0.0,3.9467,3.9475,4.0099,4.0366,4.0402,4.0705,4.0848,4.0848,4.0747,4.0707,4.0707,4.1107,4.1144,4.0889,0.0,0.0,4.1209,4.0968,4.0968,4.1181,4.1104,4.1104,4.1218,4.0969,4.0745,4.051,4.0501,4.0302,3.9858,3.984,3.9486,3.8775,3.8721,3.8626,0.0,0.0,0.0,0.0,0.0,0.0,0.0,0.0,0.0,0.0,0.0,3.2127,3.0761,0.0,0.0,0.0,3.0198,2.9845,2.9537,2.9494,0.0,0.0,0.0,0.0,0.0,0.0,0.0,2.9285,2.9195,2.9158,2.9141,2.9288,2.9416,2.9377,2.9372,2.9373,2.9336,0.0,2.9315,2.932,2.932,2.9315,2.932,2.932,2.9312,2.9354,2.9416,2.9466,2.9476,2.9454,2.9459,2.9492,2.9531,2.9559,2.9569,2.9631,2.971,2.976,2.9795,2.9811,2.9834,2.9598,2.9407,3.9312,3.922,3.8172,3.7754,3.7736,3.7745,3.7754,3.7736,3.7754,3.7736,3.7736,3.7736,3.7736,3.7736,3.7736,0.0,3.7772,3.8494,3.8841,3.8886,4.0293,4.097,4.0988,4.1683,4.2068,4.2032,4.1793,4.1686,4.164,4.1475,4.151,4.1697,4.1936,4.2142,4.2297,4.2267,4.2267,4.2297,4.2269,4.2259,4.2279,4.1763,4.1228,4.07,4.0655,4.0664,4.061,4.0583,4.0247,3.9532,3.9486,3.9158,3.8454,0.0,0.0,0.0,0.0,0.0,0.0,0.0,0.0,0.0,0.0,0.0,0.0,0.0,0.0,0.0,3.1209,0.0,2.9634,2.9566,0.0,0.0,0.0,2.9706,2.9582,2.9683,2.968,2.9486,0.0,0.0,2.9378,2.9372,2.9419,2.9549,2.935,2.9207,2.9213,2.9218,2.9213,2.92,2.9268,2.9287,2.9409,2.9459,2.9573,2.9659,2.9535,2.9667,2.9709,2.97,2.9665,2.9766,2.9711,2.9735,2.9693,2.9815,2.9732,2.9941,2.9866,2.9805,2.9969,2.9755,2.9548,3.9312,3.9287,3.9004,3.8886,3.8904,3.8893,3.8904,3.8904,3.8904,3.8886,3.8886,3.8886,3.8886,3.8886,3.8886,3.8886,3.8904,3.9097,3.9196,3.9196,3.9548,3.9714,3.9724,3.9918,4.0006,4.0006,3.9954,3.9912,3.9912,3.9859,3.9888,3.9912,3.9986,4.0766,4.2223,4.1952,4.1952,4.2297,4.2103,4.2093,4.2287,4.2152,4.2084,4.211,4.2092,4.1871,4.1451,4.1424,4.1062,4.0284,4.0229,3.9903,3.9186,3.9173,0.0,0.0,0.0,0.0,0.0,0.0,0.0,0.0,0.0,3.474,3.35,0.0,3.3573,0.0,3.3132,3.2916,3.2714,3.2714,0.0,0.0,3.2728,3.2741,3.2727,3.2747,3.2747,3.2701,3.2695,3.2664,3.2651,3.2669,3.2651,3.2659,3.063,2.9152,2.9184,2.9213,2.9213,2.9318,2.98,3.0114,3.0188,3.065,3.1066,3.1111,3.1134,3.1162,3.1204,3.121,3.1253,3.1256,3.1302,3.1318,3.1273,3.1379,3.1379,3.1391,3.0929,3.0667,3.1298,3.1352,3.1275,3.9621,3.9312,3.9312,3.9312,3.9312,3.9312,3.9312,3.9312,3.9312,3.9312,3.9312,3.9312,3.9312,3.9312,3.9312,3.9312,3.9312,3.9312,3.9312,3.9329,3.9663,3.9831,3.9849,4.0182,4.033,4.033,4.0312,4.033,4.0312,4.0312,4.033,4.033,4.0312,4.0891,4.1903,4.1056,4.1049,4.1966,4.1838,4.1892,4.2114,4.2114,4.2218,4.2442,4.2542,4.246,4.2116,4.2174,4.1859,4.1089,4.1035,4.0673,3.9948,3.9938,3.9593,0.0,0.0,0.0,0.0,0.0,0.0,0.0,0.0,0.0,0.0,0.0,3.5128,3.4406,3.4332,3.4185,3.3825,3.3807,3.3807,3.3807,3.3807,3.3807,3.3807,3.3807,3.3807,3.3807,3.3807,3.3807,3.3807,3.3807,3.3807,3.3807,3.2291,3.1189,3.1231,3.1255,3.1237,3.1274,3.1618,3.1906,3.1906,3.2293,3.2514,3.2225,3.2175,3.2106,3.1811,3.1767,3.176,3.1801,3.1835,3.1846,3.1846,3.1892,3.2007,3.2305,3.2063,3.1837,3.1942,3.1912,3.1862,4.049,3.9838,3.9838,3.9848,3.9838,3.9859,3.9642,3.9312,3.9312,3.9312,3.9312,3.9312,3.9312,3.9312,3.9312,3.9312,3.9312,3.9312,3.9312,3.9347,4.0035,4.0344,4.0369,4.1018,4.1306,4.1295,4.1306,4.1312,4.1323,4.1306,4.1306,4.1312,4.1295,4.1358,4.1394,4.0031,4.0066,4.1569,4.1604,4.1686,4.1842,4.187,4.1988,4.2246,4.243,4.253,4.257,4.2757,4.2537,4.1867,4.184,4.1479,4.07,4.0637,4.032,0.0,3.9583,0.0,0.0,0.0,0.0,0.0,0.0,0.0,0.0,3.7224,3.7015,3.5556,3.5427,3.516,3.4458,3.4385,3.4385,3.4403,3.4385,3.4403,3.4403,3.4385,3.4385,3.4385,3.4385,3.4385,3.4507,3.4385,3.4422,3.458,3.4518,3.4397,3.4348,3.3947,3.3563,3.3807,3.3892,3.382,3.4022,3.4141,3.399,3.3373,3.3356,3.3019,3.2593,3.2481,3.2431,3.2489,3.2544,3.2388,3.2277,3.2258,3.2388,3.3026,3.3119,3.2937,3.2503,3.2305,3.2029,4.2834,4.2701,4.2701,4.2712,4.2712,4.283,4.1504,3.9312,3.9312,3.9312,3.9312,3.9312,3.9312,3.9312,3.9312,3.9312,3.9312,3.9312,3.9312,3.9312,3.9452,3.9522,3.9533,3.968,3.9733,3.9733,3.9722,3.9733,3.9733,3.9733,3.9733,3.9733,3.9733,4.0066,4.0643,0.0,0.0,0.0,4.1604,4.1615,4.1653,4.1659,4.1751,4.1949,4.2019,0.0,4.2359,4.2542,4.2596,4.2442,4.258,0.0,0.0,0.0,0.0,0.0,0.0,0.0,0.0,0.0,0.0,0.0,3.8751,3.8287,3.8037,3.8154,3.8099,3.7799,3.7745,3.77,3.7544,3.7525,3.7518,3.7544,3.7525,3.7525,3.7525,3.7507,3.7544,3.7544,3.7525,3.7507,3.7387,3.7544,3.7471,3.7343,3.7507,3.7544,3.7434,3.5417,3.3935,3.3844,3.4509,3.5066,3.5723,3.5822,3.5795,3.5696,3.5699,3.5629,3.5457,3.5491,3.5605,3.5531,3.5218,3.4742,3.4742,3.424,3.3794,3.3962,3.398,3.3924,3.3824,3.3739,3.3721,4.3859,4.3494,4.3494,4.3494,0.0,4.3566,4.2754,4.1397,4.1514,4.1569,4.1587,4.1569,4.1558,4.1569,4.1587,4.1576,4.1569,4.1587,4.1558,4.1569,4.1558,4.1569,4.1558,4.1576,4.1558,4.1558,4.1576,4.1576,4.1569,4.1587,4.1383,4.1032,4.1032,4.1032,4.1007,4.0639,4.0639,4.1053,4.1411,4.1604,4.1604,4.1604,4.1659,4.1751,4.1859,0.0,0.0,0.0,0.0,0.0,0.0,0.0,0.0,4.2285,0.0,4.1144,4.1089,4.0908,4.0537,4.0157,3.9948,3.9965,3.9284,3.8717,3.8419,3.839,3.839,3.839,3.839,3.839,3.839,3.839,3.839,3.839,3.839,3.839,3.839,3.839,3.839,3.839,3.839,3.839,3.839,3.839,3.839,3.839,3.839,3.839,3.8289,3.7102,3.6102,3.6128,3.6476,3.6975,3.7386,3.7477,3.729,3.7051,3.6937,3.68,3.6496,3.6475,3.6509,3.6525,3.6259,3.6059,3.6022,3.5701,3.5448,3.5392,3.5113,3.4853,3.4816,3.4519,3.4216,4.4428,4.3855,4.3838,4.3826,4.3838,4.3863,4.3887,4.3889,4.3862,0.0,0.0,4.3851,4.388,4.3886,4.3886,4.3886,4.3886,4.3886,4.3886,4.3886,4.3886,4.3886,4.3886,4.3886,4.3886,4.3886,4.3886,4.3886,4.3886,4.3886,4.3588,4.305,4.2991,4.2675,4.2043,4.1997,4.1692,4.1152,4.144,4.1604,4.1604,4.1604,4.1604,4.1604,4.1762,4.1859,4.1859,4.2111,4.2318,4.2462,4.256,4.267,4.2843,4.2891,4.2602,4.1967,4.1913,4.1642,4.0972,4.0791,4.0637,4.0501,3.993,3.9311,3.8625,3.8441,3.8368,3.835,3.8368,3.835,3.8368,3.8368,3.8368,3.8368,3.8368,3.835,3.836,3.8368,3.836,3.835,3.8352,3.8368,3.8379,3.8379,3.8368,3.836,3.8352,3.8368,3.8377,3.8247,3.8128,3.8199,3.8208,3.8548,3.8663,3.8608,3.8414,3.7841,3.7713,3.747,3.6981,3.6815,3.6843,3.7047,3.6869,3.68,3.6795,3.6638,3.6672,3.6672,3.6152,3.5676,3.5627,3.5132,3.4606,4.5238,4.5139,4.5135,4.5122,4.5135,4.5252,4.5367,4.536,4.4122,4.3632,4.3722,4.3722,4.3798,4.3886,4.3886,4.3886,4.3886,4.3886,4.3886,4.3886,4.3886,4.3886,4.3886,4.3886,4.3886,4.3886,4.3886,4.3886,4.3898,4.3904,4.3834,4.3746,4.3746,4.3658,4.3599,4.3582,4.3518,4.3395,4.2219,4.1604,4.1604,4.1604,4.1604,4.1604,4.1626,4.1648,4.1659,4.1849,4.1977,4.2019,4.2391,4.2619,4.2658,4.2815,4.2855,4.2729,4.2747,4.2692,4.2538,4.1931,4.1234,4.0591,4.0392,4.003,3.9322,3.8615,3.8224,3.8242,3.8305,3.8224,3.8224,3.8287,3.8305,3.8251,3.8242,3.8224,3.8251,3.8232,3.8232,3.8232,3.8224,3.8232,3.8259,3.8232,3.8232,3.8242,3.8267,3.8251,3.8266,3.832,3.8433,3.8486,3.8517,3.8575,3.8658,3.8699,3.8615,3.856,3.8469,3.8377,3.8216,3.8213,3.8258,3.8409,3.7889,3.7588,3.7532,3.6967,3.6765,3.6717,3.6532,3.6398,3.6426,3.6273,3.5755,4.6048,4.5996,4.5587,4.5414,4.5414,4.5446,4.5528,4.5511,4.4849,4.4672,4.492,4.4858,4.4907,4.5017,4.4956,4.492,4.4949,4.501,4.5029,4.5029,4.5102,4.5138,4.5156,4.5156,4.5126,4.5138,4.5138,4.5156,4.5138,4.5138,4.4945,4.4553,4.4115,4.3886,4.3886,4.3886,4.3886,4.3869,4.2816,4.2254,4.2254,4.1832,4.1604,4.1604,4.1604,4.1604,4.1604,4.1675,4.1795,4.1895,4.2096,4.2279,4.2422,4.2621,4.2738,4.2738,4.2843,4.291,4.291,4.2574,4.2194,4.1832,4.1388,4.1026,4.0691,3.9912,3.9441,3.946,3.9441,3.9433,3.9423,3.9079,3.8852,3.8852,3.848,3.8218,3.82,3.82,3.82,3.82,3.82,3.82,3.82,3.82,3.82,3.82,3.82,3.82,3.82,3.8257,3.8295,3.8368,3.8465,3.8499,3.8583,3.8658,3.8699,3.8699,3.8699,3.8699,3.8699,3.8727,3.8742,3.8739,3.8468,3.8328,3.8298,3.805,3.7832,3.7758,3.7389,3.7225,3.7172,3.6904,3.6205,4.6841,4.6772,4.6186,4.5914,4.5927,4.5914,4.5914,4.5914,4.5927,4.6113,4.6346,4.5986,4.5833,4.5952,4.5889,4.5833,4.5859,4.5985,4.6048,4.606,4.6165,4.6202,4.6202,4.6202,4.6202,4.6202,4.6202,4.6202,4.6202,4.6202,4.5916,4.5343,4.4729,4.4431,4.4413,4.4413,4.4431,4.4378,4.3693,4.3254,4.3026,4.2418,4.2043,4.1885,4.1874,4.1797,4.1611,4.1604,4.1681,4.1809,4.1892,4.198,4.2187,4.2419,4.253,4.256,4.2718,4.2844,4.2892,4.291,4.291,4.2892,4.233,4.1986,4.1913,4.1424,4.0863,4.0573,4.0429,4.0447,4.0374,3.9994,3.9641,3.9604,3.9097,3.8808,3.8744,3.8707,3.8726,3.8726,3.8726,3.8753,3.8681,3.8563,3.84,3.8255,3.82,3.82,3.82,3.82,3.8234,3.8282,3.8368,3.8446,3.8478,3.8567,3.8624,3.864,3.8692,3.8699,3.8699,3.8699,3.8707,3.8696,3.8742,3.8707,3.8758,3.8759,3.8733,3.8634,3.8239,3.7922,3.7921,3.738,3.6673,4.76,4.76,4.7479,4.7496,4.7445,4.7445,4.7427,4.7427,4.7479,4.7562,4.7517,4.6226,4.5745,4.5821,4.5927,4.5947,4.596,4.6127,4.6159,4.6159,4.6202,4.6202,4.6202,4.6202,4.6202,4.6202,4.6202,4.6202,4.6202,4.6202,4.6149,4.6109,4.6021,4.5933,4.5951,4.5951,4.5951,4.5968,4.5261,4.4536,4.3834,4.3728,4.3377,4.2699,4.2681,4.233,4.1692,4.1604,4.1615,4.1648,4.1805,4.1913,4.1966,4.2176,4.2328,4.232,4.252,4.2699,4.2881,4.291,4.291,4.291,4.2819,4.2747,4.2765,4.2692,4.2022,4.0981,4.0555,4.0628,4.0501,4.0447,4.041,4.0392,4.0247,4.0302,4.0184,4.0284,4.0284,4.0284,4.0103,4.0266,4.0048,3.9641,3.9034,3.8526,3.849,3.849,3.8472,3.8472,3.8444,3.8352,3.8337,3.8382,3.8445,3.847,3.8517,3.8533,3.8624,3.8673,3.8681,3.8699,3.8699,3.8707,3.8689,3.8712,3.8712,3.8704,3.8719,3.8742,3.8632,3.8588,3.8597,3.811,3.7389,4.8358,4.8293,4.7876,4.7703,4.7703,4.7703,4.7703,4.7703,4.7703,4.7745,4.7717,4.7112,4.6692,4.6374,4.5897,4.5641,4.5658,4.577,4.5902,4.596,4.6035,4.614,4.6202,4.6202,4.6202,4.6202,4.6202,4.6202,4.6202,4.6202,4.6202,4.6202,4.6202,4.6202,4.6202,4.6202,4.6202,4.6196,4.591,4.5595,4.5208,4.436,4.3746,4.3483,4.3447,4.3096,4.24,4.2324,4.2085,4.1657,4.1675,4.1719,4.1719,4.1934,4.2061,4.2082,4.2279,4.2502,4.2709,4.2718,4.2776,4.29,4.291,4.291,4.291,4.291,4.2584,4.2085,4.1904,4.1904,4.1868,4.1497,4.1216,4.1144,4.0791,4.0519,4.0501,4.0519,4.0501,4.0501,4.0501,4.0519,4.0465,4.0229,3.9922,3.9604,3.955,3.9478,3.9532,3.9568,3.9559,3.955,3.9576,3.9183,3.8621,3.8382,3.8465,3.852,3.8533,3.8575,3.871,3.8699,3.8699,3.8699,3.8699,3.8699,3.8707,3.8699,3.8699,3.8699,3.8689,3.8712,3.8784,3.8564,3.8231,4.9134,4.9048,4.8548,4.8324,4.8324,4.8324,4.8341,4.8324,4.8324,4.8324,4.8289,4.8117,4.7776,4.727,4.646,4.6101,4.6098,4.623,4.6335,4.6439,4.6542,4.6552,4.6485,4.6468,4.637,4.6219,4.6202,4.6202,4.6202,4.6202,4.6202,4.6202,4.6202,4.6202,4.6202,4.6202,4.6202,4.6202,4.6202,4.6202,4.6039,4.5103,4.4431,4.4255,4.422,4.3886,4.3138,4.3096,4.2745,4.199,4.1927,4.1804,4.1633,4.1758,4.1849,4.1906,4.21,4.2287,4.251,4.252,4.2609,4.2786,4.2824,4.2825,4.2882,4.291,4.291,4.2855,4.291,4.2855,4.2837,4.2375,4.2058,4.2004,4.1461,4.1171,4.1198,4.1135,4.1207,4.1153,4.1325,4.1044,4.089,4.0818,4.0754,4.0456,4.0429,4.0501,4.0501,4.0447,4.0447,4.0501,4.0465,4.0048,3.912,3.9085,3.9049,3.8998,3.9078,3.8922,3.8884,3.8844,3.8673,3.8666,3.8673,3.8699,3.8699,3.8699,3.8723,3.8707,3.8696,3.8727,3.8757,3.8751,3.8781,4.9959,4.9927,4.9893,4.9804,4.9858,4.9838,4.9841,4.972,4.9821,4.9841,4.9669,4.9082,4.8723,4.8631,4.8021,4.7757,4.7736,4.7792,4.7825,4.7838,4.79,4.7683,4.7168,4.7146,4.6842,4.6417,4.6425,4.6337,4.6284,4.6202,4.6202,4.6202,4.6202,4.6202,4.6202,4.6202,4.6202,4.6202,4.6202,4.6202,4.6184,4.6109,4.5682,4.5098,4.5045,4.4676,4.3974,4.3851,4.35,4.2769,4.2751,4.2429,4.1727,4.1633,4.1708,4.1863,4.1924,4.204,4.2249,4.2308,4.2399,4.258,4.2619,4.2697,4.2824,4.2853,4.2853,4.2882,4.2862,4.2854,4.2891,4.2774,4.2747,4.2765,4.2765,4.2674,4.271,4.2547,4.2765,4.2692,4.2584,4.2285,4.175,4.166,4.1334,4.0881,4.061,4.0646,4.0754,4.0664,4.0682,4.07,4.0682,4.0501,4.0428,4.0118,4.0296,4.0239,3.9752,3.9564,3.9347,3.914,3.8905,3.8779,3.8988,3.9014,3.8791,3.8723,3.8735,3.875,3.8765,3.878,3.8742,3.8712,3.8788,4.9996,4.9996,4.9996,4.9996,4.9996,4.9996,4.9996,4.9996,4.9996,4.9996,4.9944,4.9686,4.9565,4.9545,4.9346,4.8687,4.7838,4.7827,4.7909,4.796,4.796,4.7902,4.7809,4.7862,4.7788,4.7608,4.7632,4.742,4.6928,4.6442,4.6202,4.6202,4.6202,4.6202,4.6202,4.6202,4.6202,4.6202,4.6202,4.6202,4.6202,4.6202,4.6056,4.584,4.5805,4.5454,4.4676,4.4676,4.4308,4.3535,4.3518,4.3167,4.2429,4.1885,4.1609,4.1703,4.1708,4.1805,4.2009,4.204,4.2145,4.2379,4.2409,4.2422,4.2492,4.2512,4.2512,4.2522,4.2512,4.2552,4.2709,4.2824,4.291,4.291,4.291,4.291,4.291,4.291,4.291,4.291,4.291,4.2765,4.2547,4.2466,4.2339,4.2103,4.2013,4.1977,4.2013,4.2031,4.194,4.2013,4.2031,4.2031,4.2031,4.1053,4.0554,4.0606,4.0422,4.0382,4.0214,4.0112,3.9926,3.9869,3.9875,3.9777,3.9687,3.9187,3.9139,3.9043,3.9032,3.8884,3.8727,3.8855,3.8943,4.9996,4.9996,4.9996,4.9996,4.9996,4.9996,4.9996,4.9996,4.9996,4.9996,4.9996,4.9996,4.9996,4.9996,4.9996,4.9493,4.8513,4.8444,4.8501,4.8567,4.8584,4.8512,4.841,4.8483,4.8464,4.833,4.8443,4.8227,4.7801,4.7227,4.6828,4.663,4.6577,4.6442,4.6249,4.6202,4.6202,4.6202,4.6202,4.6202,4.6202,4.6202,4.6202,4.6214,4.6202,4.5986,4.5472,4.5466,4.5098,4.4413,4.429,4.3939,4.3202,4.2418,4.199,4.1973,4.1734,4.1659,4.1773,4.1805,4.1913,4.2135,4.2166,4.2187,4.2277,4.2297,4.2297,4.2297,4.2297,4.2379,4.258,4.2728,4.2834,4.2891,4.291,4.291,4.291,4.291,4.291,4.291,4.291,4.291,4.291,4.2892,4.2855,4.291,4.291,4.291,4.291,4.291,4.291,4.291,4.2801,4.2747,4.2674,4.1959,4.1578,4.1579,4.1152,4.1105,4.1067,4.1002,4.0927,4.0939,4.0881,4.0764,4.0434,3.9896,3.9649,3.9538,3.932,3.9178,3.9117,3.911,3.9192,4.9996,4.9996,4.9996,4.9996,4.9996,4.9996,4.9996,4.9996,4.9996,4.9996,4.9996,4.9996,4.9996,4.9996,4.9996,4.9927,4.9789,4.9737,4.9769,4.9769,4.9821,4.9513,4.9038,4.9045,4.8895,4.8544,4.8513,4.8578,4.8591,4.835,4.7946,4.7485,4.741,4.7086,4.6302,4.6389,4.6284,4.6284,4.6267,4.6214,4.6202,4.6202,4.6202,4.6202,4.6202,4.6179,4.6126,4.6144,4.5775,4.5191,4.5098,4.4729,4.3957,4.3202,4.2787,4.2681,4.2085,4.1692,4.1668,4.1661,4.1719,4.187,4.1913,4.1998,4.2173,4.2225,4.2225,4.2215,4.2236,4.232,4.25,4.2542,4.2642,4.2854,4.291,4.291,4.291,4.291,4.291,4.291,4.291,4.291,4.291,4.291,4.291,4.291,4.291,4.291,4.291,4.291,4.291,4.291,4.291,4.291,4.291,4.2873,4.2837,4.272,4.2104,4.1742,4.1715,4.1651,4.1523,4.15,4.1548,4.1469,4.1626,4.1108,4.0673,4.0466,4.0051,3.9696,3.9645,3.965,3.9489,4.9996,4.9996,4.9996,4.9996,4.9996,4.9996,4.9996,4.9996,4.9996,4.9996,4.9996,4.9996,4.9996,4.9996,4.9996,4.9996,4.9996,4.9996,4.9996,4.9996,4.9996,4.9887,4.972,4.9768,4.9858,4.9775,4.9401,4.9254,4.9245,4.8806,4.8367,4.8174,4.8152,4.8034,4.7705,4.7327,4.7046,4.6963,4.6472,4.6214,4.6202,4.6214,4.6214,4.6202,4.6202,4.6202,4.6202,4.6202,4.6091,4.584,4.5863,4.5507,4.4752,4.3974,4.357,4.3465,4.2851,4.2418,4.2348,4.192,4.1661,4.1692,4.1703,4.1719,4.1795,4.1845,4.1827,4.1834,4.1834,4.1892,4.2072,4.2107,4.2335,4.2844,4.291,4.2891,4.2891,4.291,4.291,4.291,4.291,4.291,4.291,4.291,4.291,4.291,4.291,4.291,4.291,4.291,4.291,4.291,4.291,4.291,4.291,4.291,4.291,4.291,4.2556,4.2266,4.2258,4.2241,4.2114,4.2171,4.2202,4.2326,4.2476,4.2268,4.1761,4.1475,4.1157,4.0801,4.0403,4.0201,4.0068,5.0393,5.039,5.0114,4.9996,4.9996,4.9996,4.9996,4.9996,4.9996,4.9996,4.9996,4.9996,4.9996,4.9996,4.9996,4.9996,4.9996,4.9996,4.9996,4.9996,4.9996,4.9996,5.0025,5.0132,5.0271,5.0352,5.0021,4.992,4.9999,4.9547,4.917,4.8982,4.8929,4.8771,4.8543,4.8117,4.7819,4.7736,4.7314,4.6916,4.67,4.6648,4.6495,4.6267,4.6202,4.6202,4.6202,4.6202,4.6202,4.6202,4.6202,4.5963,4.5489,4.4787,4.4343,4.4202,4.3676,4.3219,4.3131,4.25,4.2043,4.1997,4.1751,4.1604,4.1604,4.1604,4.1604,4.1604,4.1615,4.1692,4.187,4.1895,4.2159,4.2621,4.267,4.2718,4.2758,4.2854,4.2892,4.291,4.291,4.291,4.291,4.291,4.291,4.291,4.291,4.291,4.291,4.291,4.291,4.291,4.291,4.291,4.291,4.291,4.291,4.291,4.2837,4.2729,4.2693,4.2694,4.2622,4.2976,4.3135,4.332,4.3465,4.3044,4.2618,4.241,4.2234,4.1681,4.1214,4.0862,4.0651,5.1151,5.1065,5.0427,5.0168,5.0117,5.0131,5.0082,4.9996,4.9996,4.9996,4.9996,4.9996,4.9996,4.9996,4.9996,4.9996,4.9996,4.9996,4.9996,4.9996,4.9996,4.9996,5.0008,5.0106,5.0189,5.0228,5.0275,5.0398,5.0472,5.0402,5.0299,4.9789,4.9745,4.9464,4.9012,4.8714,4.8626,4.856,4.8455,4.8029,4.7467,4.7467,4.7081,4.6389,4.6354,4.6319,4.6202,4.6202,4.6202,4.6202,4.6202,4.6179,4.6056,4.5524,4.515,4.5115,4.4395,4.4044,4.3816,4.3272,4.2839,4.2804,4.2295,4.1681,4.1804,4.1821,4.1734,4.1622,4.1604,4.1664,4.1827,4.187,4.2009,4.2205,4.2369,4.248,4.2609,4.2768,4.2891,4.291,4.291,4.291,4.291,4.291,4.291,4.291,4.291,4.291,4.291,4.291,4.291,4.291,4.291,4.291,4.291,4.291,4.291,4.291,4.2919,4.2919,4.2966,4.2985,4.3114,4.349,4.3862,4.4117,4.4216,4.3794,4.3628,4.3585,4.3159,4.2515,4.2106,4.1823,4.1255,5.191,5.1892,5.1703,5.1306,5.0841,5.0806,5.0511,5.0031,5.0013,5.0048,4.9996,4.9996,4.9996,4.9996,4.9996,4.9996,4.9996,4.9996,4.9996,4.9996,4.9996,4.9996,4.9993,5.0037,5.0106,5.0189,5.0246,5.0352,5.0571,5.0571,5.0566,5.0606,5.0504,5.0465,5.0254,4.9675,4.9429,4.9289,4.8771,4.849,4.828,4.8209,4.7823,4.7169,4.7081,4.677,4.6284,4.6202,4.6202,4.6202,4.6202,4.6202,4.6196,4.5986,4.5858,4.5735,4.5226,4.4782,4.4624,4.4044,4.3641,4.3623,4.3307,4.3061,4.2506,4.2488,4.219,4.1804,4.1604,4.1644,4.1681,4.1714,4.1758,4.1834,4.2172,4.2438,4.2591,4.2776,4.291,4.291,4.291,4.291,4.291,4.291,4.291,4.291,4.291,4.291,4.291,4.291,4.291,4.291,4.291,4.291,4.291,4.291,4.291,4.291,4.2919,4.2938,4.3022,4.3133,4.3329,4.3635,4.4,4.4296,4.457,4.4537,4.4571,4.4459,4.4075,4.3452,4.3242,4.296,4.2139,5.2703,5.2668,5.2341,5.1961,5.1582,5.1565,5.1306,5.0925,5.0582,5.0462,5.0407,5.0131,4.9996,4.9996,4.9996,4.9996,4.9996,4.9996,4.9996,4.9996,4.9996,4.9996,4.9993,5.0068,5.0092,5.012,5.016,5.0288,5.0411,5.0422,5.0547,5.0698,5.0774,5.0819,5.0816,5.05,5.0202,5.0132,4.9714,4.9398,4.9047,4.9012,4.8573,4.8029,4.7836,4.749,4.6823,4.6389,4.6202,4.6202,4.6202,4.6202,4.6202,4.6202,4.6202,4.6179,4.5788,4.5559,4.5419,4.484,4.4431,4.4325,4.4161,4.3728,4.336,4.3254,4.2938,4.226,4.212,4.1982,4.18,4.1823,4.1888,4.1931,4.1953,4.2121,4.2426,4.272,4.2881,4.291,4.291,4.291,4.2892,4.2873,4.2892,4.291,4.291,4.291,4.291,4.291,4.291,4.291,4.291,4.291,4.291,4.291,4.2947,4.2947,4.3087,4.3078,4.3205,4.3355,4.3612,4.3871,4.4188,4.4451,4.4673,4.4871,4.4885,4.4739,4.4587,4.4364,4.4025,4.3859,4.3037,5.3529,5.346,5.2737,5.2392,5.2341,5.2323,5.222,5.203,5.1461,5.122,5.1099,5.0531,5.0358,5.0131,5.0255,5.01,4.9996,4.9996,4.9996,4.9996,4.9996,4.9996,5.0011,5.0094,5.0123,5.0094,5.0163,5.0231,5.0313,5.0299,5.0397,5.0606,5.0643,5.0716,5.0815,5.082,5.0904,5.0816,5.0697,5.036,4.9921,4.9798,4.9412,4.8749,4.8385,4.8139,4.7485,4.6858,4.6389,4.6354,4.6249,4.6202,4.6202,4.6202,4.6202,4.6202,4.6144,4.6109,4.6091,4.5524,4.5203,4.5115,4.4589,4.4079,4.4079,4.4027,4.3711,4.2962,4.2921,4.262,4.2194,4.2228,4.2241,4.2156,4.165,4.1721,4.2149,4.2534,4.2637,4.2656,4.262,4.2656,4.2656,4.2656,4.2647,4.2448,4.2556,4.2647,4.2765,4.291,4.291,4.291,4.291,4.291,4.291,4.291,4.2948,4.3004,4.3268,4.3373,4.3545,4.3712,4.3929,4.4151,4.4302,4.4449,4.4593,4.4764,4.4944,4.5011,4.4859,4.4638,4.4418,4.4393,4.3902,5.427,5.427,5.4082,5.3668,5.3185,5.3134,5.2806,5.2237,5.2065,5.1961,5.1927,5.1755,5.1358,5.0858,5.0841,5.058,5.0134,5.0082,4.9996,4.9996,4.9996,4.9996,5.0011,5.0037,5.0094,5.0135,5.0175,5.0299,5.0436,5.045,5.0516,5.0602,5.0716,5.0774,5.0702,5.0846,5.0891,5.0891,5.0891,5.0834,5.0676,5.0553,5.0202,4.9469,4.8889,4.8508,4.824,4.7573,4.7169,4.6981,4.6595,4.6302,4.6219,4.6202,4.6202,4.6202,4.6202,4.6202,4.6179,4.6039,4.5963,4.5846,4.5665,4.5472,4.4887,4.4852,4.4466,4.3869,4.3641,4.3359,4.2799,4.2829,4.269,4.2348,4.2206,4.2233,4.2298,4.1587,4.1214,4.118,4.118,4.1026,4.1062,4.1198,4.1397,4.1805,4.2076,4.2257,4.252,4.2765,4.2837,4.2819,4.291,4.2919,4.291,4.2948,4.3059,4.3169,4.3425,4.3629,4.3793,4.3952,4.4121,4.4236,4.4347,4.4475,4.4578,4.4751,4.492,4.5009,4.5106,4.4979,4.4866,4.489,4.4762,5.4512,5.4512,5.4512,5.4287,5.3944,5.3908,5.3684,5.3254,5.2892,5.2754,5.2668,5.241,5.1979,5.1634,5.1599,5.1375,5.1013,5.0634,5.0321,5.0082,4.9996,4.9996,4.9996,4.9996,5.0051,5.012,5.0246,5.0355,5.0411,5.0478,5.0502,5.0585,5.0716,5.076,5.0743,5.0846,5.0891,5.0891,5.0891,5.0891,5.0891,5.0891,5.0781,5.0219,4.9521,4.9082,4.903,4.8328,4.7981,4.7718,4.7174,4.6577,4.6237,4.6202,4.6202,4.6202,4.6202,4.6202,4.6202,4.6202,4.6196,4.6202,4.6202,4.5986,4.5717,4.563,4.5256,4.4694,4.4407,4.4202,4.3608,4.3788,4.3508,4.2947,4.2657,4.2513,4.214,4.1439,4.0971,4.0972,4.0863,4.0664,4.0519,4.0392,4.0537,4.1117,4.1153,4.137,4.1958,4.2221,4.2584,4.2692,4.2837,4.2919,4.2929,4.3013,4.3178,4.3364,4.3619,4.3817,4.3983,4.414,4.428,4.4357,4.4418,4.444,4.4551,4.4731,4.4865,4.4943,4.5043,4.5186,4.5218,4.5119,4.5048,5.4512,5.4512,5.4512,5.4512,5.4512,5.4494,5.4443,5.4341,5.3839,5.3563,5.3477,5.2806,5.2668,5.241,5.2392,5.2341,5.1996,5.1582,5.0996,5.0617,5.0358,5.0306,5.0237,5.0131,5.0011,5.0022,5.0217,5.0285,5.0316,5.0373,5.0492,5.0575,5.0643,5.0716,5.0832,5.0891,5.0891,5.0891,5.0891,5.0891,5.0891,5.0891,5.0869,5.0693,5.0272,4.9903,4.9732,4.917,4.8683,4.8631,4.7959,4.7274,4.6705,4.6249,4.6202,4.6202,4.6202,4.6202,4.6202,4.6202,4.6202,4.6202,4.6202,4.6202,4.6161,4.6091,4.5823,4.5524,4.5203,4.5017,4.4539,4.4709,4.4563,4.4012,4.3308,4.2764,4.2228,4.1958,4.1795,4.1288,4.0809,4.0501,4.0284,4.0139,4.0247,4.032,4.0356,4.0573,4.1162,4.1614,4.1913,4.2285,4.2393,4.2886,4.2987,4.3114,4.3267,4.357,4.3833,4.3991,4.4162,4.4292,4.4393,4.444,4.4475,4.4489,4.4524,4.4659,4.4783,4.4864,4.4991,4.5142,4.5219,4.5286,4.522,5.4512,5.4512,5.4512,5.4512,5.4512,5.4512,5.4512,5.4478,5.4339,5.4322,5.427,5.4149,5.3668,5.3356,5.3201,5.2858,5.2375,5.2065,5.1892,5.1565,5.1203,5.091,5.0824,5.0493,5.0151,5.0037,5.0198,5.0347,5.0373,5.0492,5.0519,5.0523,5.0706,5.0819,5.076,5.0805,5.0891,5.0891,5.0891,5.0891,5.0891,5.0891,5.0891,5.0904,5.0658,5.0606,5.0483,4.9938,4.9499,4.9429,4.8731,4.8315,4.7846,4.6968,4.6425,4.6302,4.6232,4.6202,4.6202,4.6202,4.6202,4.6202,4.6202,4.6202,4.6202,4.6202,4.6091,4.6039,4.5881,4.5707,4.507,4.5382,4.5213,4.4761,4.4579,4.4397,4.3704,4.3118,4.2339,4.1587,4.0954,4.0374,4.0193,3.994,3.984,3.9767,3.9641,3.9948,4.0519,4.0836,4.1062,4.1442,4.1831,4.2496,4.3077,4.323,4.3416,4.3761,4.4025,4.4188,4.4314,4.4418,4.4501,4.4489,4.4489,4.4489,4.4544,4.4619,4.4699,4.4808,4.4949,4.5089,4.5192,4.5256,4.5297,5.4512,5.4512,5.4512,5.4512,5.4512,5.4512,5.4512,5.4512,5.4512,5.4512,5.4512,5.4494,5.4339,5.4046,5.396,5.353,5.2979,5.2806,5.2599,5.2203,5.1841,5.1668,5.1651,5.1237,5.091,5.0715,5.065,5.0507,5.0334,5.0505,5.0533,5.0592,5.0778,5.0863,5.0805,5.0846,5.0891,5.0891,5.0891,5.0891,5.0891,5.0891,5.0891,5.0891,5.0891,5.0891,5.0834,5.0623,5.0325,5.0184,4.9539,4.9205,4.8784,4.8122,4.7197,4.6876,4.6477,4.6232,4.6214,4.6202,4.6202,4.6202,4.6202,4.6202,4.6202,4.6202,4.6202,4.6202,4.6214,4.6074,4.5712,4.6,4.5779,4.5305,4.5441,4.5287,4.4716,4.429,4.3406,4.2239,4.1388,4.0809,4.0175,3.9885,3.9514,3.9251,3.9034,3.9387,3.9948,4.0012,4.0193,4.0854,4.1343,4.1932,4.2699,4.3128,4.3356,4.3746,4.4162,4.434,4.4411,4.4487,4.4501,4.4489,4.4489,4.4489,4.4503,4.4558,4.4647,4.4751,4.4889,4.502,4.5145,4.524,4.5267,5.4512,5.4512,5.4512,5.4512,5.4512,5.4512,5.4512,5.4512,5.4512,5.4512,5.4512,5.4512,5.4512,5.4494,5.4425,5.4149,5.3632,5.3632,5.3289,5.2875,5.2548,5.2444,5.2427,5.2186,5.1824,5.1393,5.1321,5.0897,5.0313,5.0383,5.0505,5.0561,5.0733,5.0877,5.0873,5.0891,5.0891,5.0891,5.0891,5.0891,5.0891,5.0891,5.0891,5.0891,5.0891,5.0891,5.0887,5.0834,5.0816,5.0676,5.0325,4.9938,4.9802,4.917,4.8486,4.7836,4.6981,4.6542,4.6437,4.6232,4.6202,4.6202,4.6202,4.6202,4.6202,4.6202,4.6202,4.6202,4.6214,4.6196,4.6128,4.6411,4.6248,4.5986,4.6007,4.6108,4.5552,4.5157,4.4963,4.3751,4.2321,4.1461,4.1026,4.0573,4.0356,3.9677,3.9441,3.916,3.9568,3.9188,3.9441,4.0272,4.0896,4.1402,4.211,4.2922,4.3204,4.3539,4.4053,4.4433,4.4461,4.4482,4.4489,4.4489,4.4489,4.4489,4.4489,4.4496,4.4578,4.4673,4.4815,4.4937,4.5043,4.5192,4.5272,5.4512,5.4512,5.4512,5.4512,5.4512,5.4512,5.4512,5.4512,5.4512,5.4512,5.4512,5.4512,5.4512,5.4512,5.4512,5.4427,5.4356,5.427,5.4149,5.3858,5.3479,5.3237,5.3134,5.2479,5.2375,5.2117,5.2082,5.1237,5.0616,5.0446,5.04,5.053,5.0714,5.0716,5.0846,5.0891,5.0891,5.0891,5.0891,5.0891,5.0891,5.0891,5.0891,5.0891,5.0891,5.0891,5.0891,5.0891,5.0891,5.0873,5.0834,5.0746,5.0623,5.0009,4.9622,4.9025,4.8218,4.7239,4.7169,4.6718,4.6354,4.6354,4.6249,4.6214,4.6202,4.6202,4.6202,4.6202,4.6202,4.6202,4.6251,4.6435,4.6483,4.656,4.6623,4.6546,4.6169,4.6161,4.5959,4.5454,4.4077,4.2963,4.2212,4.1705,4.1198,4.0465,3.9831,3.955,3.9178,3.8852,3.8728,3.9557,4.0325,4.0866,4.1413,4.2234,4.2727,4.3128,4.3751,4.4301,4.4301,4.4282,4.4489,4.4489,4.4489,4.4489,4.4489,4.4496,4.4517,4.4632,4.4783,4.4858,4.4907,4.5066,4.5272,5.4512,5.4512,5.4512,5.4512,5.4512,5.4512,5.4512,5.4512,5.4512,5.4512,5.4512,5.4512,5.4512,5.4512,5.4512,5.4512,5.4512,5.4512,5.4512,5.4512,5.4151,5.3996,5.3944,5.3651,5.3375,5.2892,5.2772,5.2358,5.1573,5.1348,5.1376,5.0945,5.1109,5.1049,5.0953,5.0881,5.0891,5.0891,5.0891,5.0891,5.0891,5.0891,5.0891,5.0891,5.0891,5.0891,5.0891,5.0891,5.0891,5.0891,5.0891,5.0891,5.0851,5.057,5.036,5.0272,4.9359,4.8569,4.8064,4.7327,4.6946,4.67,4.6507,4.6214,4.6202,4.6202,4.6202,4.6202,4.6202,4.6202,4.6214,4.6289,4.6355,4.6524,4.6847,4.6869,4.6754,4.7045,4.6939,4.6413,4.587,4.4719,4.3651,4.2999,4.2348,4.1424,4.0573,3.993,3.9351,3.8707,3.8687,3.8866,3.9607,4.0268,4.0793,4.1445,4.1902,4.2393,4.3172,4.363,4.3869,4.3982,4.4207,4.4433,4.4489,4.4489,4.4489,4.4515,4.4528,4.4639,4.4757,4.484,4.4925,4.5131,4.5297,5.4512,5.4512,5.4512,5.4512,5.4512,5.4512,5.4512,5.4512,5.4512,5.4512,5.4512,5.4512,5.4512,5.4512,5.4512,5.4512,5.4512,5.4512,5.4512,5.4512,5.4512,5.446,5.4391,5.4341,5.4116,5.3667,5.3667,5.3323,5.3042,5.2807,5.252,5.1644,5.1816,5.1741,5.135,5.1188,5.1138,5.0891,5.0891,5.0891,5.0891,5.0891,5.0891,5.0891,5.0891,5.0891,5.0891,5.0891,5.0891,5.0891,5.0891,5.0891,5.0887,5.0834,5.0781,5.0693,5.0114,4.9745,4.9082,4.838,4.7743,4.7222,4.6735,4.6202,4.6202,4.6202,4.6202,4.6202,4.6202,4.6202,4.6214,4.6209,4.6233,4.638,4.6613,4.6819,4.7001,4.7126,4.7328,4.7138,4.6667,4.6323,4.5317,4.4458,4.3552,4.2474,4.1497,4.051,3.9711,3.8992,3.8858,3.8987,3.9186,3.983,4.0235,4.0712,4.1141,4.1635,4.243,4.2873,4.3037,4.352,4.3895,4.4139,4.4339,4.4489,4.4489,4.4515,4.4535,4.4599,4.4705,4.4871,4.501,4.5181,4.5297,5.4512,5.4512,5.4512,5.4512,5.4512,5.4512,5.4512,5.4512,5.4512,5.4512,5.4512,5.4512,5.4512,5.4512,5.4512,5.4512,5.4512,5.4512,5.4512,5.4512,5.4512,5.4512,5.4512,5.4494,5.446,5.4356,5.427,5.4236,5.4253,5.3958,5.341,5.2631,5.2567,5.2608,5.2355,5.1934,5.1482,5.1197,5.108,5.0974,5.0939,5.0891,5.0891,5.0891,5.0891,5.0891,5.0891,5.0891,5.0891,5.0891,5.0891,5.0891,5.0891,5.0891,5.0891,5.0834,5.0781,5.05,5.0118,4.917,4.8174,4.745,4.6805,4.6372,4.6407,4.6232,4.6196,4.6074,4.5986,4.6056,4.6109,4.6202,4.6196,4.6078,4.6206,4.6441,4.6688,4.6976,4.7198,4.7491,4.7373,4.6995,4.6688,4.5766,4.4769,4.3716,4.2395,4.1405,4.0417,3.9707,3.9386,3.9302,3.9168,3.9432,3.9707,4.0146,4.0593,4.0992,4.1577,4.1911,4.2098,4.2668,4.3332,4.3726,4.3933,4.4226,4.4489,4.4515,4.4522,4.4549,4.4632,4.4821,4.5004,4.517,4.527,5.4512,5.4512,5.4512,5.4512,5.4512,5.4512,5.4512,5.4512,5.4512,5.4512,5.4512,5.4512,5.4512,5.4512,5.4512,5.4512,5.4512,5.4512,5.4512,5.4512,5.4512,5.4512,5.4512,5.4512,5.4512,5.4512,5.4512,5.4512,5.446,5.4512,5.432,5.376,5.3348,5.2902,5.2685,5.2599,5.2144,5.1731,5.1523,5.1417,5.0939,5.0891,5.0891,5.0891,5.0891,5.0891,5.0891,5.0891,5.0891,5.0891,5.0891,5.0891,5.0891,5.0891,5.0891,5.0891,5.0891,5.0891,5.0764,4.9837,4.8924,4.8122,4.742,4.6941,4.6841,4.6191,4.5647,4.5507,4.5577,4.563,4.5559,4.5893,4.6086,4.5773,4.5717,4.5945,4.6239,4.6498,4.696,4.7221,4.7529,4.7565,4.7288,4.6971,4.5977,4.4943,4.3577,4.2321,4.1427,4.0609,4.0322,3.9776,3.9586,3.9372,3.9627,3.9865,4.0109,4.0428,4.0778,4.1022,4.1316,4.1948,4.2574,4.3025,4.3501,4.3801,4.4095,4.4376,4.4496,4.451,4.4632,4.4783,4.4967,4.5148,4.5213,5.4512,5.4512,5.4512,5.4512,5.4512,5.4512,5.4512,5.4512,5.4512,5.4512,5.4512,5.4512,5.4512,5.4512,5.4512,5.4512,5.4512,5.4512,5.4512,5.4512,5.4512,5.4512,5.4512,5.4512,5.4512,5.4512,5.4512,5.4512,5.4512,5.4512,5.4425,5.4298,5.415,5.3688,5.345,5.3168,5.2935,5.2411,5.2267,5.2158,5.1659,5.1382,5.1277,5.1207,5.1066,5.0891,5.0891,5.0891,5.0891,5.0891,5.0891,5.0891,5.0891,5.0891,5.0891,5.0891,5.0891,5.0891,5.0711,5.0149,4.9464,4.8854,4.817,4.7819,4.7415,4.6537,4.6186,4.594,4.5589,4.5115,4.5115,4.5296,4.5226,4.4782,4.4806,4.5016,4.5438,4.5761,4.6413,4.6934,4.7313,4.7778,4.7878,4.7586,4.6892,4.6001,4.5077,4.3827,4.2781,4.2015,4.1396,4.0733,4.0035,3.9806,3.964,3.9765,3.989,3.9902,4.0203,4.0297,4.0647,4.126,4.1673,4.1999,4.2524,4.3219,4.3632,4.3876,4.4188,4.447,4.4613,4.4764,4.4852,4.5028,4.5153,5.4512,5.4512,5.4512,5.4512,5.4512,5.4512,5.4512,5.4512,5.4512,5.4512,5.4512,5.4512,5.4512,5.4512,5.4512,5.4512,5.4512,5.4512,5.4512,5.4512,5.4512,5.4512,5.4512,5.4512,5.4512,5.4512,5.4512,5.4512,5.4512,5.4512,5.4512,5.4559,5.4513,5.4566,5.4636,5.4284,5.3681,5.3043,5.3098,5.305,5.2765,5.226,5.2049,5.1698,5.1365,5.1136,5.0922,5.0908,5.0891,5.0891,5.0891,5.0891,5.0891,5.0891,5.0891,5.0891,5.0891,5.0891,5.0851,5.0114,4.9798,4.9592,4.896,4.8556,4.8398,4.7766,4.6923,4.6484,4.594,4.5273,4.4922,4.4606,4.4395,4.4126,4.415,4.4209,4.4649,4.4917,4.5495,4.6383,4.7174,4.7788,4.8085,4.8116,4.76,4.6934,4.6325,4.5371,4.4272,4.3325,4.2634,4.1854,4.1003,4.0257,4.0002,3.9696,3.9652,3.9608,3.9683,3.9871,4.0034,4.0459,4.0797,4.1022,4.1586,4.2318,4.2862,4.3339,4.382,4.4315,4.4581,4.4744,4.4815,4.4901,4.5061,5.4512,5.4512,5.4512,5.4512,5.4512,5.4512,5.4512,5.4512,5.4512,5.4512,5.4512,5.4512,5.4512,5.4512,5.4512,5.4512,5.4512,5.4512,5.4512,5.4512,5.4512,5.4512,5.4512,5.4512,5.4512,5.4512,5.4512,5.4512,5.4512,5.4512,5.4512,5.4559,5.47,5.4869,5.4968,5.4817,5.446,5.3964,5.3861,5.3717,5.3257,5.2941,5.2576,5.2123,5.1807,5.1435,5.1027,5.1013,5.0961,5.0908,5.0891,5.0891,5.0891,5.0891,5.0891,5.0891,5.0891,5.0891,5.0873,5.0588,5.0518,5.0206,4.9785,4.9311,4.9236,4.8077,4.7327,4.6805,4.6349,4.57,4.5133,4.4975,4.4676,4.3957,4.3803,4.3726,4.3921,4.4032,4.4469,4.5623,4.6561,4.7524,4.8069,4.8604,4.8306,4.8085,4.7556,4.6826,4.5789,4.4703,4.3837,4.3057,4.219,4.1128,4.0428,4.0134,3.9746,3.9608,3.9608,3.9683,3.9833,3.9977,4.0259,4.0666,4.1041,4.1429,4.2093,4.2787,4.3632,4.4173,4.4337,4.4631,4.4821,4.4918,4.5049,5.4512,5.4512,5.4512,5.4512,5.4512,5.4512,5.4512,5.4512,5.4512,5.4512,5.4512,5.4512,5.4512,5.4512,5.4512,5.4512,5.4512,5.4512,5.4512,5.4512,5.4512,5.4512,5.4512,5.4512,5.4512,5.4512,5.4512,5.4512,5.4512,5.4512,5.4543,5.4639,5.4733,5.4884,5.5048,5.5032,5.4982,5.465,5.4607,5.4559,5.4153,5.3752,5.3348,5.2944,5.2541,5.2102,5.154,5.1242,5.1136,5.1013,5.0908,5.0908,5.0891,5.0891,5.0891,5.0891,5.0891,5.0891,5.0873,5.0887,5.0799,5.0768,5.036,5.0167,4.9938,4.9025,4.831,4.7696,4.6981,4.6304,4.5754,4.5596,4.4829,4.4109,4.3556,4.3496,4.3638,4.3784,4.4072,4.5176,4.599,4.6994,4.7988,4.8739,4.9062,4.8953,4.8816,4.802,4.7255,4.6255,4.5202,4.4414,4.3506,4.248,4.1436,4.0578,4.0153,3.9689,3.9614,3.9614,3.9633,3.9777,4.0034,4.024,4.0409,4.0747,4.1467,4.2217,4.2968,4.3571,4.3925,4.4278,4.4713,4.4916,4.5036,5.4512,5.4512,5.4512,5.4512,5.4512,5.4512,5.4512,5.4512,5.4512,5.4512,5.4512,5.4512,5.4512,5.4512,5.4512,5.4512,5.4512,5.4512,5.4512,5.4512,5.4512,5.4512,5.4512,5.4512,5.4512,5.4512,5.4512,5.4512,5.4512,5.4512,5.4608,5.4717,5.4764,5.4871,5.4992,5.5106,5.5129,5.5081,5.5153,5.5142,5.4928,5.4615,5.4226,5.384,5.3436,5.2822,5.2277,5.1895,5.1558,5.1242,5.0961,5.0908,5.0891,5.0891,5.0891,5.0891,5.0891,5.0891,5.0891,5.0891,5.0891,5.0891,5.0851,5.0851,5.0606,4.9973,4.9412,4.8837,4.824,4.736,4.6646,4.5843,4.5058,4.4302,4.3517,4.3514,4.3689,4.3896,4.4152,4.4765,4.5389,4.6286,4.7326,4.8195,4.8984,4.9063,4.8921,4.8913,4.8219,4.7867,4.6824,4.5904,4.4958,4.3869,4.2799,4.1755,4.0891,4.0541,3.9764,3.9614,3.9614,3.9633,3.9796,3.9871,3.9727,4.0115,4.1004,4.1673,4.2236,4.2789,4.3353,4.4087,4.4575,4.483,4.4979,5.4512,5.4512,5.4512,5.4512,5.4512,5.4512,5.4512,5.4512,5.4512,5.4512,5.4512,5.4512,5.4512,5.4512,5.4512,5.4512,5.4512,5.4512,5.4512,5.4512,5.4512,5.4512,5.4512,5.4512,5.4512,5.4512,5.4512,5.4512,5.4512,5.4512,5.4512,5.4575,5.4717,5.4811,5.4917,5.5081,5.5139,5.5244,5.5369,5.5478,5.551,5.5194,5.4808,5.4419,5.4208,5.3559,5.2997,5.2369,5.1965,5.1702,5.1154,5.0926,5.0891,5.0891,5.0891,5.0891,5.0891,5.0891,5.0891,5.0891,5.0891,5.0891,5.0891,5.0891,5.0816,5.0623,5.0254,4.9728,4.9385,4.8628,4.7911,4.7113,4.6413,4.5756,4.4933,4.4452,4.4548,4.443,4.4655,4.4814,4.5421,4.5764,4.6785,4.7706,4.8419,4.8686,4.8908,4.9039,4.9077,4.8645,4.8269,4.7331,4.6336,4.5221,4.4226,4.3194,4.2199,4.1335,4.0691,4.0021,3.9758,3.9758,3.9671,3.9614,3.9614,4.004,4.0703,4.1191,4.1454,4.2217,4.2845,4.3672,4.4379,4.4686,4.4988,5.4512,5.4512,5.4512,5.4512,5.4512,5.4512,5.4512,5.4512,5.4512,5.4512,5.4512,5.4512,5.4512,5.4512,5.4512,5.4512,5.4512,5.4512,5.4512,5.4512,5.4512,5.4512,5.4512,5.4512,5.4512,5.4512,5.4512,5.4512,5.4512,5.4512,5.4512,5.4527,5.4655,5.467,5.4731,5.4884,5.5035,5.5171,5.5324,5.5463,5.551,5.551,5.5159,5.4878,5.4756,5.4314,5.3714,5.3032,5.2667,5.2158,5.1452,5.1171,5.1049,5.0891,5.0891,5.0891,5.0891,5.0891,5.0891,5.0891,5.0891,5.0891,5.0891,5.0891,5.0891,5.0799,5.057,5.0272,5.0185,4.9925,4.9321,4.8721,4.8191,4.7655,4.669,4.5724,4.544,4.5154,4.5184,4.5222,4.543,4.5626,4.6299,4.72,4.7932,4.8307,4.8664,4.8945,4.9133,4.9133,4.8983,4.8532,4.7575,4.658,4.5615,4.4677,4.3607,4.2724,4.2111,4.1404,4.0541,4.0015,4.0059,3.9852,3.9614,4.0002,4.0334,4.0334,4.0597,4.1379,4.2067,4.2703,4.3649,4.4664,4.4955,5.4512,5.4512,5.4512,5.4512,5.4512,5.4512,5.4512,5.4512,5.4512,5.4512,5.4512,5.4512,5.4512,5.4512,5.4512,5.4512,5.4512,5.4512,5.4512,5.4512,5.4512,5.4512,5.4512,5.4512,5.4512,5.4512,5.4512,5.4512,5.4512,5.4512,5.4512,5.4512,5.4527,5.4543,5.459,5.4747,5.49,5.5083,5.5264,5.5448,5.551,5.551,5.551,5.5458,5.5335,5.5107,5.4559,5.4086,5.3682,5.2702,5.193,5.1628,5.1136,5.0891,5.0891,5.0891,5.0891,5.0891,5.0891,5.0891,5.0891,5.0891,5.0891,5.0981,5.1034,5.0931,5.0729,5.0676,5.0558,5.0766,5.0374,4.9852,4.9376,4.9055,4.841,4.7651,4.7222,4.6737,4.6182,4.6043,4.5612,4.578,4.5784,4.6641,4.6936,4.7612,4.8345,4.869,4.8964,4.9189,4.934,4.9302,4.8645,4.7781,4.7237,4.6235,4.504,4.4177,4.3463,4.2374,4.1229,4.076,4.0503,4.0209,3.9871,3.9671,3.9777,3.9871,4.0059,4.0503,4.1135,4.1642,4.2643,4.388,4.4808,5.4512,5.4512,5.4512,5.4512,5.4512,5.4512,5.4512,5.4512,5.4512,5.4512,5.4512,5.4512,5.4512,5.4512,5.4512,5.4512,5.4512,5.4512,5.4512,5.4512,5.4512,5.4512,5.4512,5.4512,5.4512,5.4512,5.4512,5.4512,5.4512,5.4512,5.4512,5.4512,5.4512,5.4512,5.4512,5.4686,5.4842,5.4994,5.5129,5.5341,5.5463,5.551,5.551,5.551,5.544,5.5422,5.4981,5.4559,5.4261,5.3685,5.2509,5.1702,5.0961,5.0926,5.0891,5.0891,5.0891,5.0891,5.0891,5.0891,5.0891,5.0918,5.0954,5.1158,5.1198,5.1003,5.0927,5.0945,5.103,5.1309,5.1436,5.0952,5.0598,5.0372,5.0125,4.9595,4.9029,4.8164,4.7343,4.6693,4.6104,4.5842,4.5768,4.5801,4.604,4.6749,4.7781,4.8371,4.8626,4.8889,4.9321,4.9358,4.9434,4.8833,4.8382,4.7744,4.6523,4.5322,4.4458,4.3238,4.1955,4.136,4.091,4.0503,4.0184,4.0002,3.9796,3.9652,3.9852,4.0096,4.039,4.0973,4.1512,4.258,4.3822,5.4512,5.4512,5.4512,5.4512,5.4512,5.4512,5.4512,5.4512,5.4512,5.4512,5.4512,5.4512,5.4512,5.4512,5.4512,5.4512,5.4512,5.4512,5.4512,5.4512,5.4512,5.4512,5.4512,5.4512,5.4512,5.4512,5.4512,5.4512,5.4512,5.4512,5.4512,5.4512,5.4512,5.4512,5.4494,5.4639,5.4764,5.4902,5.5007,5.5159,5.5389,5.5448,5.551,5.551,5.551,5.551,5.5387,5.4984,5.47,5.4001,5.2772,5.2035,5.14,5.1084,5.0926,5.0891,5.0891,5.0891,5.0891,5.0918,5.0918,5.0931,5.1184,5.1447,5.1531,5.1378,5.1455,5.146,5.1323,5.1526,5.1981,5.1771,5.1784,5.1661,5.1396,5.0979,5.0063,4.9062,4.8268,4.7564,4.6892,4.619,4.6037,4.5699,4.5866,4.5923,4.6936,4.7751,4.8082,4.857,4.902,4.9377,4.9415,4.9471,4.9114,4.8626,4.7969,4.6768,4.551,4.4327,4.3163,4.2067,4.1285,4.1116,4.0816,4.039,4.0165,4.004,3.9689,3.9796,4.004,4.0353,4.0907,4.1508,4.259,5.4408,5.4478,5.4512,5.4512,5.4512,5.4512,5.4512,5.4512,5.4512,5.4512,5.4512,5.4512,5.4512,5.4512,5.4512,5.4512,5.4512,5.4512,5.4512,5.4512,5.4512,5.4512,5.4512,5.4512,5.4512,5.4512,5.4512,5.4512,5.4512,5.4512,5.4512,5.4512,5.4512,5.4512,5.4512,5.4527,5.4605,5.478,5.4904,5.4976,5.5174,5.5354,5.5448,5.5478,5.551,5.551,5.5493,5.537,5.5019,5.4352,5.3299,5.2474,5.186,5.1435,5.1097,5.0992,5.0891,5.0891,5.0918,5.1021,5.0967,5.103,5.1434,5.1713,5.1818,5.1873,5.1934,5.1964,5.1818,5.1837,5.231,5.2634,5.27,5.2741,5.2447,5.2169,5.1075,5.0005,4.9241,4.8517,4.7736,4.6929,4.6486,4.611,4.5716,4.5716,4.6017,4.6719,4.7432,4.807,4.8634,4.9039,4.9302,4.9377,4.9471,4.9208,4.8701,4.7969,4.67,4.5517,4.4327,4.3088,4.2262,4.2049,4.1698,4.1135,4.0816,4.0685,4.0297,4.0021,4.0134,4.0478,4.062,4.1185,4.1601,5.3977,5.4512,5.4512,5.4512,5.4512,5.4512,5.4512,5.4512,5.4512,5.4512,5.4512,5.4512,5.4512,5.4512,5.4512,5.4512,5.4512,5.4512,5.4512,5.4512,5.4512,5.4512,5.4512,5.4512,5.4512,5.4512,5.4512,5.4512,5.4512,5.4512,5.4512,5.4512,5.4512,5.4512,5.4512,5.4527,5.4575,5.4702,5.4795,5.4886,5.5096,5.5262,5.5354,5.5416,5.551,5.551,5.551,5.551,5.5422,5.5019,5.4282,5.3211,5.247,5.1891,5.147,5.1132,5.1027,5.0891,5.0958,5.1211,5.1219,5.1123,5.1569,5.2166,5.2259,5.2305,5.242,5.2648,5.2495,5.2259,5.2571,5.2921,5.3058,5.3159,5.3033,5.2707,5.2034,5.1111,5.0292,4.957,4.8866,4.8236,4.7751,4.7019,4.5885,4.5848,4.5679,4.6298,4.6467,4.7301,4.8146,4.8634,4.9047,4.9358,4.949,4.949,4.9077,4.8521,4.7826,4.6512,4.5228,4.397,4.3294,4.3006,4.2461,4.1854,4.1617,4.141,4.138,4.1155,4.0779,4.0773,4.0846,4.1029,4.1609]}]]